ECMWFNIL_sfc_gust_000.txt.gz
Wind_Gust
0 0 0 0 0 0 0 0 0 0 0 0 0 0 0 0 0 0 0 0 0 0 0 0 0 0 0 0 0 0 0 0 0 0 0 0 0 0 0 0 0 0
0 0 0 0 0 0 0 0 0 0 0 0 0 0 0 0 0 0 0 0 0 0 0 0 0 0 0 0 0 0 0 0 0 0 0 0 0 0 0 0 0 0
0 0 0 0 0 0 0 0 0 0 0 0 0 0 0 0 0 0 0 0 0 0 0 0 0 0 0 0 0 0 0 0 0 0 0 0 0 0 0 0 0 0
0 0 0 0 0 0 0 0 0 0 0 0 0 0 0 0 0 0 0 0 0 0 0 0 0 0 0 0 0 0 0 0 0 0 0 0 0 0 0 0 0 0
0 0 0 0 0 0 0 0 0 0 0 0 0 0 0 0 0 0 0 0 0 0 0 0 0 0 0 0 0 0 0 0 0 0 0 0 0 0 0 0 0 0
0 0 0 0 0 0 0 0 0 0 0 0 0 0 0 0 0 0 0 0 0 0 0 0 0 0 0 0 0 0 0 0 0 0 0 0 0 0 0 0 0 0
0 0 0 0 0 0 0 0 0 0 0 0 0 0 0 0 0 0 0 0 0 0 0 0 0 0 0 0 0 0 0 0 0 0 0 0 0 0 0 0 0 0
0 0 0 0 0 0 0 0 0 0 0 0 0 0 0 0 0 0 0 0 0 0 0 0 0 0 0 0 0 0 0 0 0 0 0 0 0 0 0 0 0 0
0 0 0 0 0 0 0 0 0 0 0 0 0 0 0 0 0 0 0 0 0 0 0 0 0 0 0 0 0 0 0 0 0 0 0 0 0 0 0 0 0 0
0 0 0 0 0 0 0 0 0 0 0 0 0 0 0 0 0 0 0 0 0 0 0 0 0 0 0 0 0 0 0 0 0 0 0 0 0 0 0 0 0 0
0 0 0 0 0 0 0 0 0 0 0 0 0 0 0 0 0 0 0 0 0 0 0 0 0 0 0 0 0 0 0 0 0 0 0 0 0 0 0 0 0 0
0 0 0 0 0 0 0 0 0 0 0 0 0 0 0 0 0 0 0 0 0 0 0 0 0 0 0 0 0 0 0 0 0 0 0 0 0 0 0 0 0 0
0 0 0 0 0 0 0 0 0 0 0 0 0 0 0 0 0 0 0 0 0 0 0 0 0 0 0 0 0 0 0 0 0 0 0 0 0 0 0 0 0 0
0 0 0 0 0 0 0 0 0 0 0 0 0 0 0 0 0 0 0 0 0 0 0 0 0 0 0 0 0 0 0 0 0 0 0 0 0 0 0 0 0 0
0 0 0 0 0 0 0 0 0 0 0 0 0 0 0 0 0 0 0 0 0 0 0 0 0 0 0 0 0 0 0 0 0 0 0 0 0 0 0 0 0 0
0 0 0 0 0 0 0 0 0 0 0 0 0 0 0 0 0 0 0 0 0 0 0 0 0 0 0 0 0 0 0 0 0 0 0 0 0 0 0 0 0 0
0 0 0 0 0 0 0 0 0 0 0 0 0 0 0 0 0 0 0 0 0 0 0 0 0 0 0 0 0 0 0 0 0 0 0 0 0 0 0 0 0 0
0 0 0 0 0 0 0 0 0 0 0 0 0 0 0 0 0 0 0 0 0 0 0 0 0 0 0 0 0 0 0 0 0 0 0 0 0 0 0 0 0 0
0 0 0 0 0 0 0 0 0 0 0 0 0 0 0 0 0 0 0 0 0 0 0 0 0 0 0 0 0 0 0 0 0 0 0 0 0 0 0 0 0 0
0 0 0 0 0 0 0 0 0 0 0 0 0 0 0 0 0 0 0 0 0 0 0 0 0 0 0 0 0 0 0 0 0 0 0 0 0 0 0 0 0 0
0 0 0 0 0 0 0 0 0 0 0 0 0 0 0 0 0 0 0 0 0 0 0 0 0 0 0 0 0 0 0 0 0 0 0 0 0 0 0 0 0 0
0 0 0 0 0 0 0 0 0 0 0 0 0 0 0 0 0 0 0 0 0 0 0 0 0 0 0 0 0 0 0 0 0 0 0 0 0 0 0 0 0 0
0 0 0 0 0 0 0 0 0 0 0 0 0 0 0 0 0 0 0 0 0 0 0 0 0 0 0 0 0 0 0 0 0 0 0 0 0 0 0 0 0 0
0 0 0 0 0 0 0 0 0 0 0 0 0 0 0 0 0 0 0 0 0 0 0 0 0 0 0 0 0 0 0 0 0 0 0 0 0 0 0 0 0 0
0 0 0 0 0 0 0 0 0 0 0 0 0 0 0 0 0 0 0 0 0 0 0 0 0 0 0 0 0 0 0 0 0 0 0 0 0 0 0 0 0 0
0 0 0 0 0 0 0 0 0 0 0 0 0 0 0 0 0 0 0 0 0 0 0 0 0 0 0 0 0 0 0 0 0 0 0 0 0 0 0 0 0 0

ECMWFNIL_sfc_gust_003.txt.gz
Wind_Gust
17 17 17 17 17 16 17 16 17 17 14 13 14 15 16 15 17 13 13 14 13 13 13 11 10 10 11 10 9 11 13 11 11 11 11 10 11 10 11 12 10 11
17 16 17 17 17 16 16 16 15 17 16 14 13 14 15 16 16 15 15 15 15 15 14 13 12 11 10 11 9 9 11 10 11 11 10 9 10 10 9 8 9 10
17 16 16 16 17 15 14 15 15 16 17 16 14 15 16 17 17 16 16 16 16 16 15 14 13 12 10 10 9 9 10 10 10 10 9 10 8 8 9 6 8 7
19 18 17 16 16 15 16 16 17 17 16 18 16 16 17 18 17 18 17 16 16 16 16 15 14 13 12 12 10 10 10 9 10 10 10 11 9 9 8 7 7 7
18 19 18 17 17 16 16 17 17 18 18 17 17 17 19 19 19 20 19 18 17 17 17 16 15 15 14 13 12 11 11 10 10 10 10 10 9 9 8 8 8 8
17 19 20 19 17 18 18 17 18 17 18 17 18 19 19 20 20 20 20 20 19 18 18 17 17 16 16 15 13 13 13 13 12 10 11 11 12 11 11 9 10 10
17 17 16 16 15 17 19 17 14 16 17 18 19 19 19 22 21 22 22 21 21 20 20 19 18 17 16 15 14 14 13 11 13 13 12 12 11 10 10 9 9 8
16 17 16 13 10 15 19 18 19 20 17 17 19 21 21 24 24 22 22 23 22 22 21 21 20 19 17 16 16 15 14 13 13 14 13 12 11 12 11 9 8 9
15 18 18 17 12 14 14 15 18 17 19 20 19 21 22 23 24 24 25 25 24 23 22 21 21 20 19 18 17 17 17 15 14 14 13 12 13 12 13 12 10 10
10 12 14 16 16 17 18 14 14 16 19 19 19 18 23 23 24 26 26 26 25 24 24 22 23 21 21 21 21 20 19 18 17 15 15 14 14 14 13 11 11 10
13 13 13 12 14 14 15 17 17 17 21 22 17 18 21 21 23 24 26 27 26 26 25 25 25 24 23 22 21 19 19 18 18 17 15 15 13 12 6 10 11 11
10 12 13 14 16 16 17 18 20 18 17 18 20 21 23 23 23 24 26 27 27 28 28 28 27 26 25 24 23 21 19 18 18 17 16 15 15 13 14 13 11 11
12 10 10 11 11 12 13 16 17 18 19 21 21 22 22 23 24 26 25 27 28 29 28 27 27 25 24 23 23 22 21 20 18 17 16 15 14 14 12 12 11 11
14 14 14 12 10 10 12 12 13 15 17 20 22 22 23 25 25 27 28 30 30 27 26 25 23 23 24 24 23 21 20 19 18 17 16 15 12 13 12 11 11 10
8 10 14 14 13 12 13 12 13 13 14 18 20 23 19 22 23 23 25 27 28 26 27 25 25 24 24 22 22 21 19 19 18 18 16 15 14 14 13 12 12 12
10 9 10 9 10 9 11 13 14 15 15 17 19 21 22 21 20 19 26 27 27 29 27 26 26 23 15 17 16 20 19 18 16 15 15 15 14 14 13 13 12 12
11 12 12 12 11 11 11 14 15 14 13 14 15 16 18 19 21 23 22 24 27 28 29 24 22 17 16 16 12 11 16 15 15 15 14 14 14 13 14 14 13 14
10 10 10 11 12 13 13 13 13 14 14 13 13 14 15 15 15 20 21 22 22 22 19 19 13 13 18 17 15 13 8 14 15 14 14 14 14 14 14 13 13 12
11 12 12 12 12 13 13 13 15 15 14 14 13 12 13 15 16 16 14 19 20 19 20 14 16 13 18 17 15 13 10 7 14 14 16 16 14 14 12 12 11 11
12 12 13 14 14 15 15 15 15 15 14 13 13 13 15 16 16 18 18 22 23 22 20 17 17 15 20 18 13 11 14 10 14 14 13 13 13 14 13 13 13 13
13 14 15 15 15 15 15 16 16 14 15 15 15 15 16 17 19 19 21 19 16 13 16 18 17 13 15 17 17 16 11 8 13 12 12 12 12 13 13 13 12 13
13 14 15 15 16 16 16 16 15 15 16 15 15 15 16 16 17 18 19 17 17 20 17 19 16 16 16 16 13 9 8 13 13 15 15 14 15 14 15 14 14 14
14 15 15 16 16 17 17 16 15 15 15 15 15 16 15 16 16 17 16 19 22 21 20 21 18 15 17 16 15 12 9 15 11 15 15 15 15 14 15 15 15 15
15 16 15 16 16 17 17 16 15 15 15 15 16 16 17 16 15 14 15 18 20 21 20 22 21 17 17 15 14 13 10 12 14 15 13 13 14 14 15 15 14 6
16 16 16 15 17 16 16 17 16 16 16 15 16 17 17 16 14 17 18 17 19 17 12 20 20 17 14 14 12 13 14 12 15 15 14 14 14 14 13 14 14 12
16 16 15 15 16 16 16 18 17 16 16 17 17 18 17 14 18 16 19 19 18 19 17 18 19 17 16 11 10 9 10 12 16 16 14 11 12 14 14 13 14 16

ECMWFNIL_sfc_gust_006.txt.gz
Wind_Gust
14 13 13 12 12 12 11 9 10 11 10 12 12 11 12 11 9 7 7 6 6 5 5 5 6 5 5 3 5 8 9 7 7 6 8 7 7 6 7 8 5 3
15 13 13 12 11 12 12 9 10 11 8 8 10 11 12 13 10 9 9 8 7 6 6 5 5 6 6 6 4 7 7 5 6 8 5 6 7 7 5 5 4 2
15 13 14 12 11 11 13 10 8 11 7 5 8 11 12 12 10 10 10 9 9 8 6 5 5 5 5 6 4 5 7 5 6 5 4 6 4 6 3 3 4 3
14 13 13 12 10 9 12 11 7 11 7 7 6 10 13 12 10 10 9 10 8 9 8 7 6 6 6 6 4 6 6 6 6 5 6 5 4 3 4 3 3 4
13 12 10 9 8 8 11 10 8 9 9 10 7 8 14 12 10 11 11 10 9 10 9 9 8 6 6 6 6 5 4 5 5 5 6 5 4 4 4 4 3 1
10 13 12 7 6 7 5 13 10 7 7 11 10 9 13 13 11 12 13 12 12 12 11 11 10 9 9 9 6 7 6 7 6 6 7 6 7 6 8 5 4 3
8 7 7 9 6 6 6 4 7 8 8 8 10 11 12 14 13 14 15 14 15 15 15 13 11 10 9 9 9 9 8 7 9 8 8 7 6 6 5 4 6 5
10 7 8 10 5 10 9 9 7 5 6 4 5 11 9 15 15 11 13 15 15 17 16 16 15 14 11 10 11 10 9 8 8 9 8 8 6 7 6 5 2 4
9 11 8 9 8 7 10 11 10 8 7 7 4 4 7 11 15 13 14 16 16 16 17 16 17 16 13 11 11 11 12 9 9 9 8 7 7 7 10 9 6 5
5 5 4 5 7 7 9 11 10 10 10 7 6 6 4 4 7 13 13 13 15 15 17 16 18 15 14 15 15 13 13 13 12 10 10 8 9 9 9 8 8 6
6 9 5 5 3 5 9 12 16 17 14 15 11 9 9 7 5 7 11 15 14 16 17 17 17 17 17 16 14 12 14 12 13 12 10 10 9 8 5 5 6 5
6 5 4 5 7 9 11 13 21 19 23 18 15 14 18 15 6 7 9 12 15 16 15 14 15 16 18 18 17 14 13 11 11 10 11 11 10 8 8 5 3 6
10 7 6 5 5 6 8 12 9 11 12 14 15 14 14 12 13 13 10 9 10 12 15 13 14 14 15 16 17 17 15 14 11 9 8 8 8 9 7 7 7 7
8 7 5 6 9 10 8 9 11 13 15 14 14 16 12 12 14 12 10 9 17 15 10 10 9 11 17 16 18 16 15 13 12 9 10 9 7 8 6 6 6 5
8 8 5 5 4 5 5 8 12 11 14 19 19 19 18 16 15 13 15 13 11 11 12 11 12 9 19 18 18 16 14 11 12 12 11 11 10 9 7 7 6 5
7 7 9 8 9 9 10 9 10 12 10 10 12 15 15 17 21 22 20 15 11 11 12 10 10 11 17 19 14 15 14 11 11 12 16 13 12 10 9 8 8 7
4 6 5 5 7 5 4 8 8 9 11 12 13 15 14 13 11 9 11 13 14 15 15 13 14 15 16 15 16 13 11 10 12 10 9 10 11 10 11 11 9 10
4 4 3 4 4 5 6 8 8 8 7 5 5 5 4 4 4 7 8 11 13 15 13 12 11 8 15 14 13 14 11 12 8 7 7 6 7 6 6 7 9 9
5 5 4 3 3 5 6 7 9 9 8 9 8 6 4 4 6 4 5 9 12 10 8 11 10 11 17 16 15 14 14 12 12 7 6 6 5 6 5 7 8 7
4 3 2 2 3 4 4 7 9 8 6 6 7 6 6 6 6 6 6 8 7 9 9 11 10 9 17 17 17 17 15 10 11 10 6 6 10 10 9 8 3 3
8 6 3 4 4 4 4 6 7 7 7 5 5 8 8 9 9 9 10 10 10 8 12 10 9 8 13 15 16 16 15 9 7 4 10 8 6 3 4 3 3 4
6 5 5 5 5 5 6 7 7 7 8 7 7 8 8 7 7 9 10 11 6 13 12 12 10 7 12 13 14 14 12 7 4 5 8 5 7 6 7 7 12 8
5 6 5 6 6 6 7 6 6 7 7 7 8 9 9 9 8 8 8 7 13 12 14 12 11 5 6 11 12 12 8 6 4 6 4 6 11 12 14 13 11 9
7 8 7 6 7 8 6 5 5 7 8 7 9 8 9 8 8 10 4 9 14 12 13 14 12 7 8 10 9 8 6 6 4 6 9 10 9 9 9 8 8 13
8 8 7 8 9 8 7 7 7 8 9 7 8 9 8 10 10 9 8 11 13 12 12 14 13 9 8 10 8 5 5 6 6 6 6 7 8 10 11 12 12 11
7 9 10 10 10 8 7 8 8 10 10 9 8 12 12 13 12 7 13 13 14 15 13 13 14 11 10 7 7 6 6 7 7 7 8 11 10 7 4 3 4 11

ECMWFNIL_sfc_gust_009.txt.gz
Wind_Gust
13 14 16 16 15 15 15 15 14 14 13 13 13 10 11 8 7 6 7 8 7 6 5 5 5 6 7 7 7 8 7 6 7 7 6 7 5 6 7 5 5 5
12 15 14 13 13 12 14 15 16 16 15 13 14 13 11 10 6 8 8 7 6 6 5 4 3 5 7 8 8 8 7 7 6 7 8 7 5 6 6 3 2 3
10 13 15 14 15 13 13 13 15 16 17 14 14 14 13 11 9 8 10 8 6 6 5 4 4 2 5 7 7 6 6 6 4 3 5 5 4 5 3 3 3 4
8 11 13 13 14 14 12 14 13 14 16 14 15 15 16 12 12 12 10 9 8 6 5 4 4 4 5 6 7 7 6 5 6 6 5 4 4 4 3 4 4 5
10 9 10 10 11 14 11 15 15 12 16 17 15 14 15 13 12 11 11 9 8 8 6 5 4 3 6 5 6 8 6 7 6 6 5 2 2 5 2 4 2 3
8 10 9 11 11 15 12 13 15 12 14 15 17 15 15 14 14 13 12 10 8 8 6 5 5 4 6 5 4 7 6 8 6 6 6 6 4 3 4 4 2 1
10 9 8 8 10 12 11 12 13 12 13 15 15 15 15 13 13 14 13 11 11 11 9 7 6 5 4 6 5 7 6 6 6 5 6 6 7 4 2 4 3 3
8 7 9 10 10 10 9 9 10 11 11 12 8 11 15 15 13 12 12 12 11 10 9 8 8 7 7 6 6 7 7 7 8 7 5 6 7 6 4 4 3 2
10 10 10 9 10 9 10 12 14 16 17 19 18 17 7 8 14 13 12 13 11 11 11 11 10 9 9 7 7 8 10 6 9 8 6 7 7 8 6 5 2 1
9 7 10 11 11 10 13 11 11 10 11 15 12 10 11 3 2 8 12 14 11 11 12 12 12 11 11 10 10 9 11 9 9 9 8 7 10 9 8 7 7 4
12 13 13 14 13 13 12 10 10 10 7 9 10 9 7 9 8 10 7 4 8 11 13 14 14 14 14 13 11 10 12 11 10 10 8 8 10 9 8 9 9 9
10 14 16 14 13 13 12 10 9 7 9 9 9 8 6 5 8 9 10 10 10 8 10 13 14 15 15 15 15 13 12 11 11 11 9 8 9 8 7 9 10 8
14 18 16 11 13 13 14 14 12 9 9 8 8 7 5 6 7 6 8 6 10 12 10 10 12 14 15 16 16 14 13 12 12 11 10 9 8 8 8 8 8 6
11 6 8 8 9 8 10 14 14 14 12 6 6 4 5 5 6 8 10 12 12 10 9 8 10 12 14 15 15 16 14 12 12 12 10 8 7 7 7 7 6 5
10 7 7 7 8 8 6 6 6 6 7 8 9 10 11 9 9 8 6 5 10 13 14 12 10 10 10 12 14 13 13 13 13 12 12 10 7 7 6 6 5 6
8 6 6 6 7 7 6 7 6 5 6 6 7 9 8 9 8 6 7 11 14 16 14 11 12 11 9 11 10 13 13 13 12 13 12 11 11 9 6 7 7 6
6 7 6 5 6 6 6 10 10 9 10 11 11 9 10 10 11 12 12 12 13 13 11 8 8 9 11 12 11 12 11 12 13 12 12 12 12 12 11 9 7 7
8 7 6 7 6 8 8 9 10 13 11 12 12 11 11 8 8 9 10 11 12 10 9 10 9 10 15 15 13 13 10 14 13 14 13 12 12 13 12 11 9 8
6 6 6 5 3 5 4 3 3 6 9 8 9 12 10 11 13 15 15 11 8 6 6 6 9 9 13 14 13 12 14 13 12 15 16 15 14 12 10 10 10 9
3 6 7 5 5 3 2 1 1 2 2 4 5 5 7 8 9 12 10 7 4 7 4 1 2 8 6 8 10 13 13 12 10 10 9 9 10 10 9 9 8 8
5 6 6 5 4 3 2 1 2 3 4 3 2 2 3 6 8 7 7 7 9 8 7 5 6 7 10 10 11 14 13 11 9 9 11 11 8 5 5 5 5 8
7 7 7 6 5 4 4 2 1 2 1 3 2 3 2 1 2 4 6 7 10 11 10 8 5 8 12 14 15 15 12 9 9 9 9 11 11 10 5 4 4 4
9 9 7 6 6 5 4 3 2 1 3 2 2 3 4 4 5 3 6 7 9 9 12 10 6 5 9 12 14 14 12 10 11 11 9 8 7 3 3 1 1 2
9 8 7 6 6 4 2 2 2 1 3 2 2 3 3 5 7 2 6 11 11 9 12 12 7 4 8 12 13 12 11 12 9 10 7 6 2 2 1 2 4 10
3 5 6 6 3 2 2 2 2 2 4 3 5 4 5 4 3 9 8 8 9 12 13 15 10 6 8 12 13 12 12 9 11 10 10 8 8 7 4 8 11 15
2 4 5 3 3 5 4 6 3 2 3 5 6 5 7 4 4 12 11 8 8 11 13 14 14 7 7 11 13 13 11 12 9 11 9 8 7 8 7 7 12 10

ECMWFNIL_sfc_gust_012.txt.gz
Wind_Gust
11 10 14 13 13 12 13 14 13 14 12 12 13 11 12 9 6 7 6 6 6 7 6 6 7 7 8 8 7 8 8 7 7 7 8 9 8 8 10 8 7 7
12 9 12 12 11 9 11 13 14 15 15 14 14 13 10 9 7 9 7 6 5 5 5 6 7 8 8 9 8 10 7 7 6 5 9 7 5 8 8 7 6 6
14 11 12 15 16 13 14 12 12 12 15 15 14 14 13 10 11 9 10 9 8 5 5 6 7 6 7 7 8 8 8 7 7 5 8 6 5 7 5 6 6 5
14 15 15 15 16 15 13 14 12 10 9 11 13 14 14 12 12 12 10 10 9 7 6 6 7 6 6 7 7 7 6 6 7 7 7 5 6 7 6 7 6 5
13 14 15 17 17 16 14 15 15 13 13 14 11 11 12 11 11 10 9 8 8 6 5 5 5 7 6 6 6 6 5 7 5 7 7 6 6 7 5 7 7 6
14 16 18 19 19 17 17 18 17 16 15 11 15 13 14 15 14 14 13 12 10 10 7 6 5 4 6 7 6 6 6 6 4 5 5 6 5 5 6 6 6 7
17 17 20 20 18 18 20 19 18 18 18 19 15 16 17 17 17 16 15 14 12 11 10 8 8 6 6 7 7 5 5 7 5 5 6 3 4 3 2 4 4 4
16 18 21 20 19 18 19 19 16 18 17 15 17 15 15 15 15 15 14 14 13 12 11 10 8 8 7 8 8 7 5 6 7 6 6 6 3 5 3 3 4 3
14 17 16 17 18 14 14 14 14 14 16 19 17 15 13 15 15 14 15 15 14 14 12 11 10 9 8 9 9 10 9 7 7 7 7 7 6 6 6 5 5 4
17 23 23 15 13 14 15 13 14 15 16 17 16 16 17 12 10 13 15 16 17 15 14 13 11 10 9 10 10 10 10 9 7 7 6 7 8 7 6 6 6 4
12 21 27 28 28 29 17 14 13 15 14 16 15 13 12 12 10 6 9 11 14 15 14 14 14 14 13 11 10 9 11 11 9 8 8 8 9 9 8 7 6 7
14 15 16 19 23 27 26 25 22 14 13 13 15 15 12 12 12 10 10 9 9 10 10 11 12 14 15 15 14 12 11 11 11 10 10 10 9 9 9 8 8 7
17 11 12 16 18 14 12 20 22 25 24 13 9 13 14 14 12 12 11 12 11 10 11 11 11 10 12 13 13 13 13 12 11 11 11 10 9 10 10 9 9 8
7 10 9 9 14 15 17 16 15 18 16 18 20 12 8 10 12 12 12 11 11 10 7 8 10 12 12 11 11 14 13 12 13 13 12 10 8 9 9 10 10 9
10 10 8 8 13 13 13 15 19 20 19 14 12 15 16 7 7 6 7 7 7 8 8 7 8 11 11 11 12 11 12 14 14 14 14 13 10 9 8 9 9 10
16 18 17 10 11 13 12 15 15 14 13 14 16 17 13 5 3 4 5 5 4 2 1 2 5 5 7 14 14 16 14 14 11 13 14 13 13 11 8 9 11 10
12 12 13 11 12 7 9 10 11 11 10 9 9 8 6 5 4 5 5 5 5 5 5 6 8 9 10 11 14 16 14 13 14 14 13 14 14 15 14 13 9 8
13 12 11 9 7 8 9 9 10 10 9 7 4 4 5 2 3 6 5 3 3 4 4 7 7 7 11 11 12 14 13 15 13 14 14 14 14 16 16 14 11 9
6 7 7 6 5 5 3 2 1 1 2 3 4 6 2 3 8 5 6 4 2 3 5 6 5 5 6 5 7 9 11 9 10 11 13 13 15 17 14 12 11 11
6 7 6 4 3 4 5 4 3 4 5 6 6 4 6 7 5 7 6 5 5 6 4 2 3 5 2 3 5 9 10 8 6 4 3 3 2 4 5 7 8 10
6 6 7 6 5 5 4 3 2 2 2 3 6 7 7 9 9 8 8 5 6 6 6 3 5 7 4 4 5 8 9 8 6 9 10 8 7 7 7 7 7 7
6 6 6 5 4 3 2 1 2 2 2 4 2 2 1 2 2 3 5 5 2 3 6 4 4 8 5 7 9 10 11 10 10 11 11 11 10 8 9 7 8 11
6 8 7 6 5 4 2 2 2 2 2 2 2 5 4 3 3 3 4 7 7 5 6 5 3 5 5 9 11 13 11 10 11 11 10 10 9 8 8 7 5 4
9 8 8 7 7 7 6 5 3 3 3 2 1 2 4 5 3 4 3 7 10 7 8 9 3 2 5 8 10 10 10 12 10 12 10 8 6 6 8 9 10 9
7 8 9 8 9 8 8 6 6 7 3 2 1 1 3 4 2 6 4 3 4 8 9 12 8 4 5 10 12 12 12 9 11 11 11 6 7 10 10 10 10 12
5 6 6 8 8 7 6 7 7 3 3 2 2 3 3 3 5 4 6 4 4 6 8 9 12 5 4 10 11 12 11 11 9 12 10 7 6 9 10 9 10 11

ECMWFNIL_sfc_gust_015.txt.gz
Wind_Gust
15 12 15 15 13 12 12 10 8 9 8 6 8 7 8 6 5 6 6 7 6 8 7 7 7 7 9 8 8 9 9 9 8 7 9 10 7 8 10 7 6 8
13 13 13 12 10 9 9 8 10 10 9 7 7 7 5 6 5 8 8 8 7 8 7 8 8 8 8 8 7 9 7 8 7 5 10 9 6 8 8 6 7 5
13 13 13 12 14 12 12 8 8 8 8 7 4 4 5 4 7 5 8 9 9 8 8 8 8 7 8 7 7 7 8 7 7 4 9 8 6 9 6 6 6 5
16 16 15 11 8 12 10 10 7 6 6 6 5 4 3 3 5 6 6 8 9 8 9 8 9 7 7 7 7 7 6 7 6 5 7 5 5 7 6 6 6 6
15 12 12 12 7 7 11 11 10 8 7 7 4 3 4 4 6 7 7 6 7 7 8 9 8 8 7 7 7 8 5 7 4 5 7 6 2 5 4 6 6 5
6 12 14 14 10 9 11 13 12 10 8 6 10 6 5 5 5 6 8 9 7 9 7 7 8 7 8 8 8 9 8 8 5 5 6 6 3 2 5 6 7 6
8 10 18 13 9 8 10 12 12 11 10 10 6 8 6 6 6 7 7 9 9 10 11 10 10 9 7 8 7 7 7 8 7 7 7 4 5 2 2 6 6 6
9 8 13 15 13 11 11 11 12 14 12 7 10 11 9 11 10 8 7 7 7 8 9 10 10 11 9 9 10 9 8 7 10 8 7 6 5 5 2 3 5 5
7 7 7 8 10 9 10 11 12 12 11 13 13 11 9 11 12 10 9 8 7 8 8 8 10 10 10 10 11 11 11 8 9 10 9 9 7 7 6 5 5 5
10 9 7 8 9 7 4 2 4 7 12 14 12 9 12 12 8 8 7 8 8 7 8 10 11 12 13 13 13 13 12 11 10 9 9 10 10 9 7 7 7 5
8 7 9 10 9 9 10 9 5 4 5 4 4 7 9 10 10 8 7 8 12 10 9 8 7 6 5 4 4 6 10 11 11 10 10 10 10 10 9 10 8 8
8 7 7 8 9 11 11 12 10 5 7 9 8 10 12 17 18 18 15 16 15 14 9 9 6 5 6 9 9 7 5 5 6 8 9 9 8 8 9 10 10 9
8 10 12 12 12 12 16 15 13 7 6 9 11 9 11 12 12 12 14 17 20 13 11 10 7 5 6 6 6 6 7 7 7 7 7 8 8 10 9 9 10 9
10 10 10 10 15 15 13 15 12 12 8 5 6 7 9 12 15 16 14 11 14 13 13 14 9 5 6 7 7 7 6 6 7 8 7 7 7 7 7 9 10 10
12 12 11 14 15 14 17 14 13 12 12 10 9 11 12 15 13 7 3 5 7 10 13 12 13 13 9 7 7 6 6 8 9 7 9 9 7 7 7 8 8 9
9 8 10 10 10 17 18 16 16 16 17 17 15 14 12 10 9 6 7 8 7 12 13 14 15 12 6 7 8 9 9 9 8 8 7 8 9 9 7 7 9 10
6 7 9 12 13 10 11 13 13 14 14 13 12 12 11 8 6 5 8 6 7 13 17 18 17 11 6 9 10 13 11 10 11 12 10 11 12 12 14 14 12 9
9 7 11 11 12 11 10 8 5 7 9 9 10 9 9 8 8 9 8 8 10 12 13 14 12 5 5 6 8 10 10 11 9 9 9 10 9 11 12 11 9 8
9 11 12 13 14 11 10 10 11 10 11 10 13 13 9 11 12 10 11 12 13 13 14 13 9 3 3 5 7 9 11 10 9 8 7 8 8 9 7 5 6 8
7 8 9 10 9 8 9 10 12 13 13 12 10 8 11 12 10 13 12 13 14 15 11 3 3 4 6 6 6 7 8 7 6 5 5 5 6 6 6 6 8 10
3 3 6 6 6 8 8 8 9 8 7 9 12 13 14 14 14 13 13 14 13 9 9 6 2 5 4 4 5 4 3 4 2 2 4 3 3 4 6 9 9 10
5 6 5 6 7 6 7 5 3 3 4 2 4 4 3 3 3 3 6 4 4 6 6 3 2 5 2 3 5 6 7 5 6 6 6 6 6 5 5 6 7 8
4 9 7 7 6 7 6 5 4 2 2 4 7 5 5 4 1 1 3 5 5 4 5 2 1 3 3 7 9 11 9 8 8 9 8 8 7 7 7 6 4 5
5 6 10 8 7 8 6 4 2 1 2 2 5 5 6 3 3 5 6 4 4 7 6 6 2 2 4 8 10 10 10 10 8 10 8 9 10 9 9 10 12 15
8 8 6 8 8 7 7 6 5 6 4 4 7 7 4 3 5 8 7 8 7 3 5 4 3 4 3 5 10 11 11 9 11 10 10 7 10 11 9 10 11 12
5 7 7 7 9 7 5 7 5 3 3 6 5 8 9 7 5 8 8 6 6 6 8 5 4 4 4 5 8 9 10 10 9 12 10 8 7 9 11 8 9 10

ECMWFNIL_sfc_gust_021.txt.gz
Wind_Gust
11 12 13 13 13 14 14 11 9 9 7 8 11 10 9 8 8 9 9 9 10 10 10 9 9 8 8 8 8 10 11 11 11 10 11 12 13 13 13 12 11 13
13 11 9 10 11 10 11 11 11 10 9 8 11 11 10 9 9 9 10 10 11 11 10 9 9 9 8 9 8 10 10 10 11 8 11 12 12 13 13 13 13 12
12 12 12 11 12 12 13 11 10 8 8 9 11 11 11 9 10 10 10 9 10 11 10 10 10 10 10 9 8 9 10 10 11 9 10 12 11 13 13 13 13 13
11 12 11 11 10 12 12 13 11 10 8 10 11 12 12 10 11 11 10 9 10 11 10 10 11 11 11 10 9 10 10 10 10 9 11 10 11 12 12 13 13 14
13 12 11 12 10 11 11 12 13 13 12 10 10 11 14 12 11 12 11 10 10 11 10 11 10 11 10 10 9 11 10 11 9 9 11 11 10 11 10 11 12 13
9 11 11 13 13 13 12 12 13 14 14 11 12 10 10 12 12 12 11 11 10 11 11 10 10 10 9 10 10 10 10 11 10 10 12 12 11 9 10 10 12 12
13 12 12 11 11 12 10 10 10 9 10 11 12 10 10 11 13 13 13 12 12 12 12 11 10 10 9 9 9 10 10 9 9 9 12 11 11 10 10 10 13 13
14 12 11 11 11 11 8 9 11 11 9 8 11 12 10 11 12 11 12 13 13 13 13 12 12 11 10 9 10 10 10 8 7 8 9 10 9 11 10 9 10 12
12 13 13 12 12 11 10 9 10 11 12 10 10 12 11 10 11 11 11 12 12 11 12 12 12 12 10 9 9 8 9 8 8 8 9 10 10 10 11 9 10 10
10 10 12 12 12 11 11 10 11 11 13 13 11 12 14 11 11 13 14 13 13 12 11 11 11 11 11 11 11 10 9 8 7 7 7 8 10 11 11 10 10 9
10 10 11 11 11 10 10 11 12 12 13 15 14 13 14 15 13 12 13 14 13 14 13 12 10 10 10 11 10 10 10 10 9 8 8 8 8 8 6 11 11 11
11 12 14 12 11 10 12 12 12 13 14 14 15 15 14 15 17 15 13 13 13 12 13 13 13 11 10 10 10 9 9 9 9 10 10 10 10 9 9 9 11 11
12 12 13 12 12 12 12 14 14 14 15 16 16 17 16 15 15 16 14 13 13 13 14 14 14 12 10 10 11 11 10 10 9 9 10 10 10 11 11 9 9 10
12 11 12 12 11 12 14 15 15 16 17 17 17 18 17 17 16 14 14 14 16 14 13 13 13 12 11 10 10 9 8 8 9 9 9 10 11 13 12 14 15 15
10 10 11 12 13 14 15 15 16 16 17 18 18 19 16 16 15 14 15 15 14 12 11 10 9 8 7 7 8 8 8 10 10 11 11 12 13 13 14 16 17 16
11 10 12 11 12 14 15 15 15 14 14 15 15 13 10 12 11 10 11 15 16 13 10 8 8 7 6 9 9 10 10 11 11 12 13 13 13 13 13 15 16 16
9 9 9 11 10 10 10 12 12 11 11 11 12 12 11 9 11 13 12 13 16 15 14 11 9 8 8 11 12 13 12 11 12 13 12 13 14 14 15 14 15 16
9 9 9 9 8 9 8 9 9 11 13 13 13 14 14 13 14 12 12 13 13 14 13 13 13 11 11 13 13 10 7 12 14 14 13 13 14 14 14 14 12 10
8 9 9 9 10 10 10 11 11 11 12 13 14 14 13 16 15 13 13 11 11 14 14 15 17 14 15 13 11 9 8 10 13 14 13 13 13 13 12 12 11 10
11 10 10 8 8 9 9 11 12 13 12 12 12 12 15 17 18 16 14 15 14 13 11 10 12 13 13 12 10 8 8 8 12 13 12 11 11 10 10 10 10 10
12 12 12 10 9 8 8 9 11 10 10 11 12 15 17 18 19 19 18 15 15 13 11 9 12 9 7 6 5 6 7 7 8 7 7 6 6 7 7 7 7 8
9 10 11 10 10 10 11 11 12 13 14 13 11 14 14 12 10 12 13 12 10 10 9 11 12 9 8 8 9 10 11 9 10 9 9 9 10 9 9 8 7 6
9 9 10 10 9 10 12 13 12 14 13 13 15 16 16 16 15 13 12 12 12 12 13 12 12 8 10 11 11 12 8 11 11 11 11 11 10 9 10 10 9 9
9 8 8 8 8 11 11 11 10 9 11 12 13 13 13 13 12 13 12 13 14 13 14 13 11 9 9 11 13 11 8 13 12 13 12 11 11 10 11 13 15 12
12 10 10 9 9 9 7 8 9 9 7 8 8 9 11 12 12 14 13 12 10 10 5 11 12 9 8 11 10 10 11 13 15 15 14 12 13 13 11 14 15 14
10 10 9 10 11 9 8 8 7 8 9 9 8 9 11 10 10 11 13 11 10 10 9 9 11 11 11 9 9 10 8 13 15 16 16 15 14 16 16 14 15 16

ECMWFNIL_sfc_gust_024.txt.gz
Wind_Gust
15 14 14 16 15 15 15 14 13 13 14 12 13 13 12 12 10 11 11 12 12 12 12 12 11 11 11 11 9 10 12 11 11 12 13 13 13 13 13 12 10 11
13 13 13 14 14 14 14 14 13 12 13 11 13 13 13 12 11 11 13 13 13 13 12 12 11 11 10 11 10 10 12 11 11 11 11 11 11 12 12 11 11 11
14 12 13 13 14 14 15 15 14 13 13 12 13 13 14 13 12 12 13 13 14 13 13 12 11 10 10 10 9 10 12 11 10 10 10 11 10 11 11 11 12 11
16 14 14 14 14 16 15 15 14 14 13 14 14 14 15 13 13 14 14 13 14 14 13 13 12 11 11 11 10 11 11 11 11 10 11 11 10 11 11 11 12 13
17 16 13 14 14 15 16 15 15 14 14 14 14 15 16 15 15 15 14 14 14 14 14 14 13 13 12 12 11 13 13 13 11 11 12 12 12 12 12 12 12 13
16 17 16 16 15 15 15 15 16 15 16 14 15 16 16 15 15 15 15 15 14 15 15 15 15 14 13 13 12 13 13 14 14 13 15 14 14 12 14 13 13 13
17 16 14 14 13 13 14 14 14 15 16 14 15 14 15 16 15 15 16 15 16 16 16 15 14 13 13 12 12 13 13 13 14 14 15 14 14 12 12 12 12 14
16 13 13 13 13 13 13 16 16 15 14 13 13 13 15 16 17 15 14 15 15 16 15 15 15 15 13 12 14 13 12 10 11 12 12 13 11 12 11 10 10 11
14 13 13 12 13 12 13 15 15 14 15 15 13 13 13 14 15 16 17 16 16 15 15 15 15 15 13 13 13 13 13 11 9 10 10 11 11 11 12 11 10 10
12 11 11 12 12 13 14 14 16 15 15 16 16 13 15 13 14 16 17 17 17 17 16 15 15 15 15 14 15 14 13 14 12 10 10 10 10 11 12 11 10 9
10 11 11 12 13 13 14 15 16 17 15 17 16 17 15 16 15 15 16 17 17 18 18 17 16 16 15 14 13 12 12 12 12 12 10 10 9 8 4 9 10 9
11 11 12 13 14 15 14 15 16 16 17 16 17 18 18 16 17 16 16 17 17 17 18 18 17 16 16 16 15 14 13 12 11 12 12 12 12 11 11 10 9 9
12 12 12 13 14 15 15 17 16 15 17 17 17 17 18 18 17 17 16 17 18 18 18 18 18 17 16 15 15 15 14 13 12 12 11 11 11 12 12 13 13 13
9 9 11 14 14 15 17 17 17 18 17 16 17 17 18 19 19 19 18 18 18 18 18 17 16 16 16 16 14 14 13 13 13 12 12 12 12 13 13 14 15 16
8 8 10 12 14 15 16 17 17 18 18 19 19 18 18 19 20 22 22 21 20 18 17 15 14 14 14 15 15 14 13 12 12 12 12 13 13 14 14 15 15 15
10 8 10 11 12 13 14 14 16 17 18 19 19 20 19 19 19 19 21 21 21 19 17 15 14 14 9 8 4 10 10 11 12 13 14 14 14 15 15 15 15 16
9 8 8 10 11 12 12 14 15 14 16 18 18 18 17 17 18 19 20 20 20 18 18 16 15 13 15 14 12 7 8 9 11 12 12 13 15 15 15 16 16 17
10 11 10 10 11 12 12 14 14 15 16 17 17 17 17 17 18 20 21 20 21 21 19 18 16 10 15 15 14 13 8 10 9 11 11 13 14 15 16 17 16 15
11 10 11 11 12 13 12 13 14 15 16 17 18 17 18 20 21 21 22 22 22 22 22 19 15 14 17 14 15 16 14 11 11 10 12 13 13 15 16 19 17 12
10 10 10 11 12 13 13 14 14 14 13 14 16 17 18 19 19 21 21 23 23 23 23 20 21 14 15 14 15 17 15 10 14 13 14 15 15 16 17 16 12 12
12 10 9 10 11 12 14 15 16 15 16 16 17 16 17 18 19 19 20 21 21 21 21 21 18 13 16 11 10 13 13 7 12 11 14 16 17 13 13 11 10 9
13 13 12 11 11 11 13 14 15 17 17 16 16 16 16 17 18 19 19 19 19 18 18 19 16 12 14 13 12 13 17 14 15 15 14 13 11 11 11 11 10 9
13 13 12 13 12 13 13 12 13 14 14 15 16 17 18 18 18 19 19 18 17 16 18 18 15 9 7 11 12 14 13 19 18 18 16 14 12 11 12 12 11 10
13 13 13 12 13 14 14 13 13 13 13 13 14 14 15 16 16 18 18 17 17 17 18 17 14 13 12 12 15 18 15 19 19 19 17 16 15 12 13 15 16 16
16 15 14 14 14 14 14 16 15 15 14 13 14 14 13 13 14 15 15 15 16 17 5 15 15 12 11 11 13 16 14 16 16 18 17 17 17 16 15 15 15 14
15 15 15 15 15 14 14 15 16 16 14 15 15 16 15 15 16 15 15 15 16 18 20 19 17 15 14 11 12 11 8 13 16 16 17 17 16 18 17 16 17 17

ECMWFNIL_sfc_gust_027.txt.gz
Wind_Gust
14 14 14 14 13 13 12 12 12 11 11 11 12 13 14 12 11 10 11 11 11 10 10 11 12 11 11 10 10 12 14 12 12 12 12 12 12 11 11 10 8 9
14 13 14 14 14 13 12 10 10 11 11 10 12 14 14 13 11 12 12 13 12 12 12 12 11 11 10 11 11 12 12 11 12 13 12 11 11 12 11 9 9 7
13 13 13 13 15 13 13 12 12 12 12 11 13 14 14 13 13 12 12 12 13 13 11 11 11 11 11 12 10 11 12 11 12 12 12 13 12 12 10 10 10 9
13 13 13 13 14 15 13 13 13 14 13 14 13 15 15 14 13 13 13 12 13 13 12 12 11 11 12 12 10 12 12 12 13 11 11 11 11 11 11 11 10 11
14 14 13 13 14 14 12 13 14 14 13 14 14 14 15 15 14 15 14 14 13 13 13 13 12 12 11 11 12 13 12 13 11 10 12 12 12 11 11 12 12 12
18 16 15 15 15 14 14 14 15 15 15 14 14 15 15 15 15 15 14 14 14 14 14 13 13 13 13 13 12 12 11 13 12 12 13 13 13 12 14 13 12 13
18 18 16 16 14 14 14 14 14 15 15 14 15 14 15 15 15 15 16 15 16 16 16 14 14 13 13 12 12 12 13 13 12 13 14 14 12 12 13 11 12 14
20 17 15 14 14 14 14 15 16 15 14 14 13 14 15 15 16 15 14 15 16 17 16 16 16 15 14 13 15 13 13 12 12 13 13 14 11 12 11 11 10 11
14 15 15 15 14 13 14 15 15 15 15 14 14 14 14 15 15 15 16 16 15 16 16 16 16 16 13 14 15 15 15 12 11 12 13 12 11 12 14 12 10 11
15 16 16 15 15 14 14 14 15 16 16 16 15 13 14 13 15 16 17 16 16 16 16 16 16 15 15 15 16 16 15 15 13 12 12 12 12 13 14 12 12 11
13 14 14 15 15 15 14 14 16 16 16 17 16 15 14 13 15 15 16 17 17 18 17 16 16 16 16 15 14 14 15 15 14 14 12 11 10 10 8 11 12 11
12 13 14 13 14 14 15 14 15 16 17 16 16 16 16 15 15 15 17 18 18 19 19 18 18 17 17 17 17 14 14 13 13 13 13 13 11 11 13 10 11 11
13 12 13 13 13 12 12 15 16 16 17 17 16 16 16 16 17 16 16 17 19 19 20 20 20 19 18 17 17 16 15 15 13 13 13 11 13 12 13 12 12 11
12 11 11 11 11 13 13 14 16 16 17 16 15 16 16 17 18 18 17 17 18 18 19 18 18 19 19 19 18 17 16 15 15 13 14 13 11 13 12 12 13 13
11 10 9 10 11 12 14 15 15 15 16 16 16 15 16 18 18 19 19 19 18 18 19 17 18 18 19 18 18 18 18 16 16 16 14 15 14 15 14 13 14 14
10 9 9 10 10 12 15 15 16 16 15 16 17 18 18 17 18 20 20 21 21 20 19 18 18 18 10 9 7 19 18 18 16 16 16 16 17 15 16 15 16 16
9 8 9 10 10 10 10 14 17 15 15 16 16 16 16 17 17 19 20 21 22 22 21 20 20 16 11 8 6 5 15 17 18 18 16 16 16 16 16 17 15 17
9 8 8 9 9 10 10 9 10 11 13 14 15 16 17 17 17 19 18 18 19 19 21 20 20 10 14 11 9 7 6 15 18 19 19 18 16 17 17 15 16 13
8 8 8 8 8 9 8 9 10 12 13 14 15 16 15 19 18 18 19 20 20 21 21 22 19 14 15 13 11 11 9 8 17 17 18 17 16 17 13 12 11 13
9 9 9 8 9 10 10 11 12 13 13 13 14 16 18 18 20 20 20 21 20 20 23 22 19 16 16 15 14 14 12 9 15 17 17 18 17 16 12 8 6 8
13 11 9 9 9 9 10 12 13 13 14 15 16 16 18 20 21 22 19 15 15 13 19 20 15 17 19 18 14 11 10 8 14 18 17 16 16 16 13 11 11 9
11 10 10 10 10 9 10 11 11 14 16 16 17 17 17 15 19 21 19 21 20 17 22 21 19 20 20 18 15 14 13 16 20 20 19 16 14 16 14 11 15 20
13 12 11 11 11 12 12 11 11 12 13 15 17 17 18 18 19 19 19 20 20 18 23 24 20 16 19 19 17 16 12 20 21 22 20 20 19 10 8 8 14 13
15 15 14 13 12 13 13 12 13 14 13 13 15 16 17 18 19 20 20 20 17 17 22 18 17 15 16 16 16 17 15 21 20 17 16 17 13 12 13 15 12 10
16 16 15 15 15 14 12 13 15 16 16 15 15 16 16 16 17 20 20 20 17 20 10 14 16 13 16 17 16 18 19 18 17 17 15 14 15 16 15 17 15 12
16 16 15 16 16 15 15 14 15 16 16 17 17 18 18 18 17 19 18 18 16 18 19 19 18 18 18 16 18 17 18 17 16 19 13 19 20 22 19 18 17 16

ECMWFNIL_sfc_gust_030.txt.gz
Wind_Gust
14 10 11 8 7 6 5 6 4 5 4 5 7 7 10 7 8 7 6 6 7 8 9 6 4 3 5 7 10 11 10 8 8 10 11 8 7 7 7 6 5 4
15 11 12 10 9 5 5 4 4 4 4 5 8 10 8 7 6 7 8 8 8 7 5 5 4 4 5 8 7 7 6 6 8 11 9 11 10 8 6 4 4 6
9 9 11 10 12 6 5 4 4 5 4 8 10 9 9 7 8 7 6 7 8 7 6 5 6 6 7 6 7 7 8 9 10 10 11 12 8 8 7 5 7 8
9 7 4 10 10 9 6 5 5 4 6 8 9 9 8 8 8 8 7 8 6 6 5 4 4 4 6 7 6 6 7 7 6 6 7 7 7 7 6 5 10 13
11 9 6 11 10 9 6 6 7 6 6 7 9 8 9 8 7 8 7 7 7 6 5 6 5 5 3 6 7 6 6 6 5 7 8 8 7 7 8 7 8 10
11 7 5 11 10 9 7 7 8 7 8 8 8 8 8 8 7 8 8 7 6 6 6 6 6 4 5 5 4 5 5 7 6 8 11 9 9 9 13 9 9 9
11 9 9 10 9 6 5 6 8 7 7 6 7 6 7 6 7 8 9 7 8 8 8 5 4 4 4 4 4 5 5 6 7 9 11 9 8 9 9 9 11 11
11 9 9 11 10 8 6 7 9 8 8 8 7 7 7 7 9 7 8 8 8 10 7 8 7 6 5 4 6 5 4 4 6 8 10 10 6 9 9 9 6 9
11 9 10 6 9 7 7 10 9 9 9 8 7 8 6 7 7 7 9 9 9 8 9 7 8 7 4 6 6 6 6 4 7 8 6 7 8 8 11 8 8 8
10 10 11 7 7 7 8 9 9 9 9 9 9 7 10 5 8 9 9 7 8 9 9 8 8 6 7 9 11 8 7 7 8 7 6 5 6 8 11 6 7 6
12 11 10 8 7 8 10 9 8 9 9 11 8 8 9 7 8 8 8 10 8 11 11 10 9 9 9 8 7 6 7 6 7 7 5 5 4 8 6 6 7 6
14 15 15 16 14 11 10 9 8 9 9 8 11 11 8 6 9 9 11 11 12 12 12 12 11 9 10 10 11 8 6 6 7 6 5 5 4 5 6 6 5 6
13 12 13 11 11 11 10 8 7 6 9 10 9 10 9 8 8 9 6 9 12 11 13 13 14 13 10 9 10 10 8 8 7 7 5 4 6 6 6 5 4 6
9 10 10 12 10 11 11 10 9 8 8 6 8 9 9 10 10 10 7 10 9 10 11 11 11 13 13 13 12 9 9 8 6 7 8 6 6 6 6 7 4 4
10 7 7 9 9 7 9 7 7 6 5 8 6 8 7 9 9 11 11 12 11 9 10 9 10 11 13 12 11 12 11 10 9 10 8 9 8 8 8 8 8 6
10 8 9 8 9 8 9 11 10 7 8 8 7 5 6 6 7 7 10 10 12 12 8 6 7 8 6 12 6 11 10 12 10 10 11 10 10 9 6 8 8 15
8 8 8 9 10 8 7 7 9 6 4 6 5 10 11 7 7 11 11 9 11 9 6 3 9 18 13 7 6 5 10 8 9 10 9 11 11 9 8 12 14 10
8 8 7 8 7 7 7 7 8 8 7 6 4 7 8 10 6 6 7 8 11 15 17 22 20 22 25 19 8 3 2 6 7 10 9 9 11 12 14 12 11 9
9 7 9 7 7 6 5 6 8 8 8 8 7 9 9 9 6 5 7 7 7 6 7 10 12 7 15 20 16 10 4 3 9 9 10 9 9 11 11 16 8 7
10 9 8 7 8 6 5 7 8 9 8 10 11 11 11 10 9 8 7 6 8 9 6 8 11 13 18 18 15 13 7 3 7 5 8 10 8 10 15 20 15 11
13 11 11 10 6 4 5 7 7 7 8 8 13 13 12 12 11 10 8 9 11 9 8 11 10 10 16 16 16 16 10 3 8 8 5 8 14 20 13 20 18 16
17 13 10 10 9 6 6 6 4 6 8 7 8 9 10 10 8 10 12 14 13 12 12 14 9 11 14 15 15 14 11 10 11 10 7 9 16 14 11 13 15 15
18 18 16 14 11 10 9 7 6 5 5 6 8 9 10 11 13 13 14 14 13 14 16 14 21 23 25 18 16 15 9 12 13 13 7 8 7 10 11 8 11 14
16 17 16 13 13 13 12 11 9 8 9 7 7 9 11 11 12 14 15 16 15 15 15 14 15 20 26 22 19 18 14 16 14 16 9 10 12 8 5 8 7 6
15 15 14 13 13 13 11 12 10 10 10 10 9 10 10 11 13 14 12 13 14 15 11 13 13 12 18 19 21 19 19 15 15 16 11 10 9 10 10 8 6 8
15 14 12 12 13 13 12 12 11 11 11 12 12 15 15 14 13 14 12 12 11 15 18 17 13 11 15 18 18 18 19 20 16 18 12 12 10 13 13 9 10 11

ECMWFNIL_sfc_gust_036.txt.gz
Wind_Gust
4 6 10 11 10 10 10 9 8 11 9 10 12 9 9 5 5 8 6 6 6 7 6 6 6 7 8 6 5 5 4 4 5 5 6 6 4 6 6 4 4 5
5 6 8 8 8 7 7 8 8 10 10 10 10 10 7 8 6 8 7 7 6 5 4 6 7 7 7 7 6 7 5 4 4 4 7 5 4 5 5 5 5 4
4 6 9 9 10 7 7 6 9 10 12 10 9 10 9 8 9 6 7 7 6 6 6 6 6 6 7 6 6 6 6 5 5 4 5 3 4 5 3 7 6 7
4 6 9 7 7 8 8 11 10 11 11 10 9 8 10 8 9 8 7 8 8 6 5 6 7 6 7 7 7 7 5 5 3 4 7 5 5 8 7 5 5 5
6 5 7 8 8 9 9 12 11 10 10 10 8 7 10 9 9 8 7 7 7 4 6 6 6 7 6 7 7 7 5 7 4 8 10 8 5 8 5 8 7 7
5 6 8 10 10 12 11 12 10 10 10 8 8 7 8 8 8 7 7 7 5 5 5 5 6 6 7 6 7 7 7 8 5 7 8 8 6 5 7 8 9 8
8 9 9 11 10 11 12 11 10 9 8 8 7 7 8 8 7 7 6 6 5 5 5 6 6 5 4 6 6 6 5 7 5 8 9 6 8 7 6 8 8 7
8 9 10 9 12 11 13 12 11 10 9 7 8 6 7 8 8 6 6 6 6 4 3 5 5 4 3 6 6 6 4 4 6 7 7 6 7 7 6 7 7 8
13 11 11 10 11 11 12 12 11 10 9 10 9 7 5 8 8 8 8 7 6 5 3 4 4 4 4 5 6 7 6 4 4 5 6 7 8 8 8 7 8 8
25 27 24 15 10 10 11 10 12 10 8 10 9 7 8 5 7 9 7 7 8 6 6 4 3 4 6 6 7 6 6 5 3 4 5 6 8 8 8 9 9 8
16 18 20 15 17 9 9 9 9 11 9 10 9 8 7 7 6 6 8 8 9 8 7 5 5 6 7 6 5 6 8 6 6 6 7 7 7 7 7 7 7 8
8 5 9 15 17 11 7 8 8 9 9 8 10 9 7 8 10 6 10 9 9 9 8 7 7 7 7 6 6 6 8 8 8 7 7 7 6 6 5 5 6 5
11 13 11 11 12 12 15 12 6 7 8 8 8 7 8 7 8 9 8 11 10 9 9 10 8 6 6 5 5 6 7 8 7 7 7 7 7 7 6 5 6 5
10 11 5 8 7 9 9 8 12 11 8 6 5 6 7 9 9 8 9 8 11 10 10 10 9 7 5 5 5 5 6 6 6 7 7 7 6 8 8 8 7 7
9 9 10 11 9 6 8 7 7 11 11 5 4 5 7 7 6 6 7 6 6 8 10 8 10 12 10 9 7 5 5 7 7 7 8 9 8 9 8 9 8 9
9 7 10 9 14 14 9 9 13 11 7 6 3 1 1 2 5 3 5 6 7 6 7 7 9 9 12 15 11 12 8 8 6 6 7 8 9 9 7 6 9 7
10 13 11 10 14 11 8 7 11 16 13 7 4 5 4 3 2 3 3 5 6 7 9 10 7 6 8 14 16 17 13 10 10 9 6 6 6 8 9 7 6 5
10 10 7 5 4 4 7 8 9 7 11 13 8 4 5 5 6 4 5 4 5 4 7 9 8 6 7 11 13 14 12 14 12 12 10 9 9 9 10 9 7 6
7 6 6 4 5 2 2 2 3 9 14 9 7 6 3 6 3 4 3 2 4 4 4 4 4 8 8 9 9 8 11 10 10 11 12 11 10 12 11 11 8 10
12 12 11 10 7 5 4 4 4 4 4 8 13 5 5 6 2 5 5 3 3 4 5 4 5 7 10 10 10 8 8 8 8 9 9 9 12 14 12 12 14 14
10 9 10 10 10 9 10 11 11 11 9 8 12 11 7 8 11 8 6 6 5 5 5 7 9 8 9 10 10 11 9 5 5 4 8 11 11 12 15 15 15 16
16 16 16 15 12 12 14 13 11 10 12 11 11 10 9 7 6 3 4 6 8 6 7 9 11 11 10 10 9 9 9 7 6 6 7 10 11 11 11 7 9 16
17 18 17 17 16 17 16 15 15 14 12 12 12 12 11 11 9 8 8 7 6 6 8 11 11 13 12 12 11 11 7 8 7 8 8 9 12 11 8 10 16 11
15 16 17 17 17 17 16 15 14 11 13 13 12 11 12 10 8 8 8 7 6 9 12 12 14 14 14 14 15 13 12 11 10 10 8 10 10 11 9 15 18 17
12 14 14 14 15 15 15 16 15 14 12 10 11 11 11 9 7 8 8 5 6 10 9 12 14 14 14 15 17 14 14 10 10 10 10 11 12 14 12 12 13 14
12 13 14 14 15 14 15 15 15 17 18 16 15 13 14 13 11 10 10 12 9 8 8 10 13 16 16 15 16 16 15 13 9 10 13 14 13 14 15 13 14 15

ECMWFNIL_sfc_gust_039.txt.gz
Wind_Gust
10 9 11 9 9 11 11 10 7 9 7 6 9 5 8 4 2 3 3 4 4 6 5 6 5 4 4 5 6 7 4 4 4 5 6 8 7 9 9 6 6 6
9 9 8 8 7 7 7 9 9 10 8 5 5 7 3 5 2 3 5 4 5 5 5 5 5 6 6 6 6 8 6 5 4 3 8 7 8 9 9 9 7 9
9 9 10 9 10 7 7 6 9 7 9 6 6 5 6 4 6 2 2 4 6 5 5 5 5 4 5 5 5 6 7 5 5 3 7 8 8 9 8 9 8 10
8 9 9 7 9 9 8 11 7 8 8 9 6 6 7 5 5 5 3 5 7 5 4 4 5 4 5 5 6 5 5 4 4 5 5 4 5 7 8 8 7 7
9 8 6 6 7 8 9 11 10 9 9 9 7 6 8 7 6 5 5 5 5 5 3 3 3 5 5 5 5 6 4 5 3 5 7 4 3 7 7 9 9 8
13 13 8 6 8 10 10 11 11 10 9 7 7 6 6 6 6 5 4 5 5 4 3 2 3 3 4 5 5 5 5 6 2 5 7 7 5 4 7 8 9 9
19 18 14 10 7 8 10 10 9 9 8 7 7 6 6 6 5 5 3 4 5 3 3 3 3 4 4 4 6 5 3 5 3 5 9 4 7 5 4 7 9 10
17 14 12 13 6 7 10 10 9 9 7 6 7 5 6 6 5 4 3 3 4 3 1 2 2 3 2 4 6 5 2 2 4 5 7 5 5 6 3 5 8 10
18 14 12 11 10 8 7 8 7 7 7 10 7 6 3 5 6 5 4 2 4 2 2 1 1 2 1 3 3 4 4 2 2 4 6 6 5 5 4 4 7 9
14 15 12 12 11 9 8 2 8 6 6 8 7 5 6 3 4 4 4 2 1 1 2 1 1 1 1 1 5 5 3 3 1 2 2 2 3 4 4 4 7 8
12 13 12 12 10 10 10 6 3 5 4 7 6 5 3 5 4 4 2 2 3 3 2 1 2 2 2 2 2 3 4 4 2 1 2 2 2 4 5 5 5 8
10 12 10 12 10 8 6 4 3 1 4 3 6 6 3 3 3 2 4 5 4 5 3 3 3 3 4 5 5 3 2 2 3 3 2 3 2 2 3 4 6 7
14 8 10 10 9 11 9 7 5 4 2 3 5 5 6 5 4 5 5 5 6 4 5 6 5 4 4 3 2 4 4 3 3 2 2 3 3 3 3 4 5 8
10 11 11 10 6 5 4 6 8 7 6 4 1 5 5 6 7 8 8 6 7 7 7 5 4 4 3 3 3 4 4 3 5 5 4 3 2 3 3 4 5 6
10 10 11 11 9 8 6 7 9 9 10 9 3 2 3 5 6 6 6 6 6 6 5 4 6 7 7 6 5 3 3 5 5 6 6 6 4 3 3 3 2 2
11 10 9 10 13 13 11 10 12 13 11 10 11 9 4 2 3 4 5 8 9 7 6 5 7 6 7 9 8 8 6 5 4 3 4 5 6 4 4 4 4 4
11 11 12 13 11 12 13 13 10 11 10 11 10 11 12 10 3 3 3 6 7 7 7 8 8 8 8 7 10 10 9 7 7 5 3 3 4 6 7 6 6 3
11 11 13 12 11 10 9 11 10 11 10 9 11 11 11 10 11 7 3 1 2 3 5 8 10 8 9 9 10 10 9 9 8 7 7 6 6 6 7 5 7 5
17 19 19 18 17 15 14 13 9 9 8 8 8 8 9 12 12 10 7 5 1 2 3 3 5 4 6 9 10 10 10 8 6 7 10 9 9 9 9 9 6 6
19 19 19 17 16 16 17 17 16 16 13 10 8 8 10 14 15 15 12 9 6 3 3 2 4 3 4 5 8 10 11 8 6 6 7 9 11 12 11 11 12 12
17 17 17 16 15 16 16 16 15 14 15 14 13 13 12 12 11 10 10 10 10 9 9 9 9 4 6 6 5 5 5 4 6 6 6 7 9 9 11 12 12 13
16 16 16 15 16 16 16 15 14 13 13 10 9 11 10 10 11 8 11 11 10 9 9 10 9 9 9 8 8 7 4 5 3 5 7 8 9 9 9 9 8 8
16 16 16 16 15 17 17 15 14 14 12 11 13 12 11 11 9 7 8 10 11 10 9 10 13 9 7 9 10 7 5 7 4 3 5 6 10 11 12 11 11 9
16 15 16 15 16 17 14 13 11 10 13 12 12 12 12 11 10 10 9 9 9 11 11 10 12 13 12 8 8 8 6 9 8 8 10 8 10 10 8 8 10 12
14 15 15 14 14 13 13 13 13 12 11 11 11 10 10 10 11 12 12 11 11 10 12 12 12 13 15 17 15 9 9 8 9 8 10 12 12 12 8 9 10 10
14 15 15 15 13 12 12 11 9 10 12 12 12 12 12 11 11 11 12 12 11 12 13 11 13 14 14 17 16 16 10 10 7 8 12 13 13 14 13 8 10 11

ECMWFNIL_sfc_gust_042.txt.gz
Wind_Gust
13 11 13 13 13 14 14 12 9 12 10 10 11 9 10 7 5 5 4 5 5 6 5 5 5 6 7 7 7 6 5 5 4 6 7 7 7 8 9 8 7 8
10 10 10 11 11 10 10 12 11 12 10 8 8 9 4 6 4 6 5 6 6 6 5 5 5 6 6 6 7 8 6 6 6 5 7 7 7 7 8 9 8 7
10 10 12 13 14 12 11 8 8 8 10 6 6 6 7 4 6 3 5 6 7 6 5 5 6 6 6 6 6 7 8 8 7 6 7 8 7 7 7 9 9 9
7 9 11 10 11 12 9 10 6 7 7 8 6 5 6 5 5 5 5 5 7 5 6 7 6 6 6 5 6 7 7 7 6 6 6 4 5 5 7 8 8 8
11 9 7 8 8 9 9 10 9 7 7 7 7 6 8 7 6 6 6 5 5 6 6 7 6 6 4 5 4 6 5 7 5 6 6 5 4 5 6 8 9 9
8 9 9 10 9 11 12 10 10 9 9 7 8 7 7 6 7 6 6 6 6 8 7 6 7 5 5 5 6 6 5 6 5 6 6 5 4 3 7 7 8 9
10 9 10 10 10 8 10 11 9 8 7 8 7 7 8 8 7 7 6 7 7 7 7 6 5 5 4 6 6 7 7 6 5 7 8 4 5 5 6 8 8 9
9 8 10 11 10 9 9 10 10 9 9 7 7 6 7 9 8 6 6 7 7 7 7 7 6 5 4 5 7 7 6 5 6 6 7 6 5 6 5 6 7 9
11 10 9 9 10 9 8 8 9 9 9 11 9 7 4 6 8 7 8 7 7 6 7 6 5 5 5 6 6 6 7 5 6 6 4 4 6 6 6 6 7 8
10 10 10 9 10 8 9 8 9 8 6 8 8 7 8 5 5 8 7 7 6 6 7 6 5 4 5 5 6 6 6 6 5 6 7 5 5 6 6 6 7 8
8 7 10 10 10 9 7 6 6 6 4 7 8 6 6 7 5 5 6 5 6 5 4 5 4 4 4 4 4 5 7 6 5 6 6 5 5 3 5 7 6 6
10 9 10 11 11 10 9 7 7 6 6 5 3 8 5 5 8 5 5 4 4 4 4 3 3 3 3 4 5 5 6 6 6 5 4 4 4 5 5 7 7 7
10 11 11 11 11 11 11 10 9 8 7 5 2 1 5 6 5 5 3 4 4 4 3 3 3 2 3 3 3 4 5 6 6 5 4 3 2 4 3 3 5 10
8 9 11 11 11 13 12 11 11 11 11 9 4 3 3 3 2 4 3 2 4 3 3 4 3 2 1 2 3 4 4 3 4 5 5 3 1 2 3 3 3 3
11 10 10 13 12 11 11 12 13 11 10 9 7 6 6 3 2 2 2 2 1 1 2 2 3 3 4 4 5 4 4 5 5 5 5 5 4 3 2 3 4 3
13 12 13 12 12 12 9 10 10 11 11 9 7 8 8 8 8 6 4 4 5 3 2 2 3 3 4 7 5 4 5 4 6 5 6 6 6 4 2 2 3 4
15 14 13 14 11 11 9 9 9 9 9 9 7 9 11 11 11 11 8 6 5 6 6 4 4 5 4 3 4 3 4 4 4 6 5 7 6 6 7 6 4 5
17 17 18 16 16 14 12 11 12 13 12 11 11 12 10 10 13 10 9 9 9 8 8 8 8 9 11 10 8 4 3 4 3 2 2 3 4 6 7 7 7 7
18 19 17 18 15 13 12 14 16 17 15 14 13 10 12 16 12 13 13 12 13 11 10 9 9 11 12 12 13 13 9 5 3 5 4 4 4 5 5 7 7 7
17 18 18 15 14 14 15 16 17 15 12 12 12 15 15 14 14 15 14 14 13 12 12 13 13 12 13 13 13 14 14 10 7 6 5 6 7 8 7 7 8 8
17 18 17 16 16 15 17 17 15 13 15 13 13 14 14 14 13 13 13 13 14 12 13 14 16 18 18 16 13 11 11 6 8 9 9 8 8 6 7 8 9 9
17 17 16 16 16 17 18 17 15 15 14 12 12 12 11 10 12 12 14 13 12 13 13 15 15 19 19 19 18 14 10 10 9 8 8 8 10 8 8 9 8 8
14 15 15 15 15 17 17 15 15 15 14 12 13 13 13 14 11 10 10 11 13 13 14 12 13 15 18 18 18 17 12 13 11 9 8 9 10 9 8 7 7 7
12 13 14 14 15 15 13 12 11 10 12 11 12 12 13 11 9 10 10 12 13 13 12 11 11 12 15 16 16 15 10 11 11 11 10 10 11 11 9 9 9 9
12 13 13 13 14 12 11 11 10 10 7 8 10 9 10 8 10 11 10 10 11 10 13 14 12 11 13 14 15 15 15 11 10 9 11 12 11 13 12 10 12 10
12 13 13 14 13 11 10 10 8 9 10 9 9 9 10 10 11 12 13 12 11 11 12 11 11 11 13 15 13 12 13 13 10 9 11 13 12 11 14 14 12 12

ECMWFNIL_sfc_gust_045.txt.gz
Wind_Gust
15 13 14 14 14 13 13 13 12 13 12 12 13 11 11 10 9 9 8 8 8 9 10 10 10 10 9 8 8 9 9 9 9 9 9 9 9 9 11 12 12 12
11 12 12 12 13 12 13 12 12 12 12 10 10 10 9 10 9 9 10 10 10 10 11 11 10 10 9 9 8 8 9 9 9 10 10 10 10 10 10 11 12 11
12 12 15 15 15 14 13 11 12 10 11 10 9 10 10 9 10 8 8 10 11 11 11 11 11 10 9 9 9 9 9 9 8 10 9 10 9 9 9 12 13 13
13 13 15 15 16 16 14 14 11 11 10 11 11 10 10 9 9 10 10 9 11 11 11 11 11 10 10 9 8 8 8 8 8 9 9 9 8 9 9 11 12 12
13 13 14 16 14 14 13 14 14 12 12 11 11 10 11 11 10 10 10 9 9 11 11 12 11 11 10 9 8 9 8 8 8 8 8 9 9 9 9 11 12 12
10 14 15 15 15 15 15 14 14 13 12 11 11 11 10 10 10 10 10 10 10 11 11 11 11 10 9 10 9 9 8 8 8 8 9 9 10 10 10 11 12 13
11 11 13 14 15 14 14 13 12 12 12 11 11 10 11 11 11 10 10 10 11 11 12 11 10 9 8 8 8 9 8 8 8 8 8 9 9 9 9 9 10 11
12 11 14 14 14 13 13 13 12 12 12 12 11 10 10 12 12 10 10 10 11 11 11 11 10 10 8 7 8 8 9 7 7 8 8 9 8 9 9 9 9 11
13 13 13 14 15 14 13 13 12 12 12 13 12 12 9 10 11 11 11 11 11 11 11 11 11 11 8 8 8 8 9 8 7 8 8 9 9 9 10 10 11 11
12 13 14 14 14 12 13 11 11 11 10 12 13 12 12 9 9 11 11 11 11 11 11 11 11 10 10 9 10 9 9 9 9 8 9 8 8 9 10 10 9 11
12 12 13 13 13 12 13 13 12 11 10 12 12 12 11 11 10 9 10 11 10 11 11 10 10 10 10 10 9 8 9 9 9 9 8 8 8 8 5 8 9 9
15 14 16 15 16 15 15 14 13 12 12 10 11 13 11 10 11 10 10 11 10 10 9 9 9 8 8 9 9 9 8 8 8 8 9 8 8 8 8 7 8 10
20 18 17 14 12 13 14 15 15 14 14 12 10 11 10 9 8 9 8 10 10 9 9 9 9 9 8 7 8 9 9 9 8 8 8 8 7 8 8 7 7 9
14 14 14 13 12 13 14 15 15 15 15 13 12 11 10 8 7 7 8 8 7 7 8 8 9 9 9 8 8 8 8 8 7 7 7 7 7 8 8 8 7 6
17 16 14 12 12 13 14 14 14 13 13 14 13 12 10 9 8 8 8 9 8 8 8 10 10 10 10 9 9 9 8 7 7 8 8 7 7 7 7 8 8 7
19 17 16 16 17 16 15 14 15 13 13 13 13 12 11 9 11 11 11 10 11 12 12 11 11 11 10 12 11 11 8 7 6 6 8 8 8 8 8 7 7 7
18 17 18 18 17 18 17 17 17 15 16 15 13 13 12 10 12 14 14 14 17 17 18 17 15 14 11 8 7 7 7 6 7 7 6 6 6 8 8 8 8 8
16 18 17 15 14 15 14 14 14 15 16 15 14 14 13 12 15 14 13 13 15 18 19 18 16 12 11 11 9 6 3 8 7 6 6 7 6 7 7 7 7 7
17 19 19 19 17 17 15 16 17 17 17 17 16 12 12 16 14 15 15 15 16 18 18 17 17 13 11 11 10 9 7 4 9 8 6 5 6 8 9 8 7 7
18 20 20 18 16 17 17 18 19 18 16 14 14 14 15 15 14 16 16 16 16 16 17 17 17 13 13 13 11 8 7 5 9 7 8 8 7 7 7 7 8 9
19 18 19 16 15 16 17 18 16 15 17 15 16 16 15 15 14 15 15 15 15 14 15 17 18 13 15 15 14 11 7 4 10 7 7 7 7 7 8 8 8 8
17 17 16 15 15 16 17 16 16 15 15 13 14 15 13 13 13 14 15 15 14 14 14 16 18 17 17 17 17 15 8 9 9 8 7 7 7 7 6 6 7 8
15 15 15 15 14 16 16 15 15 15 13 12 14 14 13 13 13 13 13 13 14 14 14 14 16 17 16 17 17 17 9 12 10 10 9 10 9 8 7 7 7 8
15 15 16 15 16 17 16 15 14 14 14 13 13 13 14 12 11 13 13 13 14 15 14 13 15 15 15 16 17 17 12 12 11 10 9 10 10 9 8 8 7 4
14 15 17 17 18 17 15 15 15 15 13 13 13 13 13 12 12 13 13 13 14 13 11 14 14 13 13 14 14 15 15 12 12 11 10 11 12 12 10 9 9 6
14 15 15 15 15 15 14 14 13 13 13 13 13 13 13 12 12 12 12 12 12 12 13 14 14 14 15 11 12 12 13 13 11 11 12 12 12 13 14 12 10 10

ECMWFNIL_sfc_gust_048.txt.gz
Wind_Gust
21 20 21 21 20 20 18 18 18 19 17 17 17 16 17 14 14 12 11 11 12 13 14 13 12 10 10 9 10 12 13 13 13 12 13 13 12 11 13 13 12 13
19 17 15 19 21 18 17 16 17 18 17 15 15 15 15 14 13 12 11 11 13 14 14 13 12 11 10 11 10 11 13 14 13 14 14 13 12 13 12 12 12 12
14 16 18 19 21 18 18 17 17 18 17 15 14 14 14 14 13 12 12 12 13 14 13 13 12 11 10 10 11 12 13 14 14 15 14 15 13 13 13 13 12 13
12 15 17 20 20 20 19 18 18 17 17 17 15 14 14 13 14 14 13 12 13 12 13 12 11 11 10 10 11 13 12 12 13 13 13 13 13 13 12 12 12 13
15 17 18 19 20 21 20 19 19 19 18 16 15 15 16 15 15 15 14 13 13 13 13 13 12 11 10 11 11 12 12 12 12 12 13 13 13 12 13 13 13 13
13 15 17 19 19 22 22 21 21 20 19 17 17 16 15 15 15 15 14 13 13 14 14 13 12 11 11 11 11 11 12 12 12 11 13 13 13 13 14 13 14 15
15 14 15 18 19 21 20 20 19 19 19 18 17 16 16 15 15 15 16 14 14 15 16 14 12 11 11 11 12 12 11 11 12 12 13 12 12 12 12 12 13 14
17 14 16 17 19 20 19 20 19 18 18 17 16 15 15 16 16 15 15 14 14 15 15 14 13 13 11 11 13 13 12 11 11 12 10 11 10 11 11 11 10 12
18 16 16 17 18 18 18 19 18 17 17 17 16 15 14 14 15 15 15 14 15 15 16 14 13 12 10 10 11 13 14 12 10 10 11 11 11 11 13 12 12 12
17 18 17 18 18 17 17 17 18 17 18 18 17 16 16 14 15 15 15 14 15 16 16 14 13 12 12 12 13 12 13 14 12 12 12 12 12 12 12 12 12 13
18 21 20 18 14 12 15 17 17 18 18 19 17 16 16 16 15 14 14 15 15 17 16 14 13 13 12 12 11 10 11 11 12 11 11 12 11 12 6 10 12 13
22 22 23 21 18 12 16 17 18 17 17 16 17 17 16 15 15 14 14 16 16 15 15 13 13 12 13 13 13 12 10 10 10 11 11 11 11 11 12 10 10 13
21 23 22 19 16 14 15 17 18 17 16 16 16 17 16 16 16 15 13 14 14 13 13 13 13 12 11 11 12 12 11 11 10 11 11 10 9 11 11 11 11 12
19 17 19 19 17 16 16 17 17 17 16 16 16 15 14 15 15 15 13 13 14 12 13 12 12 12 12 11 11 11 11 10 10 10 11 11 10 10 10 10 11 11
22 21 20 19 18 17 17 17 17 17 16 17 16 15 13 15 14 15 14 14 13 12 12 10 9 11 15 14 10 12 9 10 9 11 10 12 12 11 9 10 11 11
23 23 22 22 21 21 18 18 17 16 16 16 15 15 13 13 13 13 13 13 13 13 12 11 13 14 14 15 13 15 9 8 8 9 11 11 11 11 10 9 10 11
25 26 24 24 21 19 16 17 16 14 14 14 14 14 13 12 13 13 14 14 16 16 16 15 15 15 13 10 11 13 14 8 8 9 8 9 10 10 11 11 10 11
22 23 21 19 17 18 17 16 15 14 14 13 13 13 12 11 12 15 16 16 17 18 18 16 15 13 11 11 10 10 10 12 8 8 9 9 9 9 11 10 10 9
20 20 18 18 19 18 16 14 14 14 13 13 13 12 12 14 15 17 18 17 18 18 18 17 15 12 12 12 10 10 10 12 10 8 9 9 9 8 7 7 6 7
18 19 18 19 18 18 17 17 16 15 13 13 14 15 16 16 16 17 17 18 18 18 18 18 17 12 11 11 10 10 10 12 8 7 6 7 7 7 7 7 7 8
19 20 17 17 18 18 17 17 16 15 15 14 15 15 16 16 16 16 16 16 17 17 18 17 17 11 11 12 11 9 9 10 9 7 7 8 8 7 7 6 8 8
18 19 18 16 17 17 18 16 15 15 14 14 15 16 14 13 14 15 15 15 15 15 16 18 18 13 13 14 14 13 12 11 8 7 8 9 8 9 8 11 11 9
18 18 18 18 18 19 19 16 15 13 12 12 14 13 13 14 13 14 14 14 14 14 15 16 17 16 14 15 16 17 12 9 8 9 8 7 9 7 9 9 9 10
18 18 18 16 16 17 16 15 14 12 11 10 13 14 14 14 13 14 13 14 14 15 14 14 16 14 13 14 16 17 15 12 8 7 7 7 8 8 10 11 9 9
16 16 17 16 16 15 13 14 13 12 10 10 12 13 13 13 13 14 13 13 14 14 8 11 13 12 12 12 14 15 18 13 10 9 8 7 9 9 9 11 9 10
16 16 15 15 16 15 14 14 13 13 12 12 12 12 12 12 12 13 12 12 11 11 12 12 11 13 15 10 12 13 16 19 11 10 10 10 10 11 11 10 10 11

ECMWFNIL_sfc_gust_051.txt.gz
Wind_Gust
17 17 19 20 20 20 21 20 19 19 16 16 15 15 15 14 16 13 11 11 11 10 11 10 10 10 11 11 11 11 13 12 13 13 14 14 14 14 14 15 12 11
25 21 17 18 18 18 18 17 18 18 15 14 14 14 14 14 13 12 11 11 11 12 11 10 11 10 11 12 11 12 12 13 12 15 14 14 13 13 14 14 13 13
20 19 19 18 18 16 17 17 16 16 15 14 13 13 14 14 13 12 12 10 12 12 12 11 10 10 9 9 10 11 13 13 15 13 14 15 14 15 13 14 13 13
21 19 19 19 19 20 20 19 18 16 16 14 14 13 14 14 13 13 12 12 13 12 11 11 10 10 11 10 10 11 12 13 13 13 14 14 13 14 13 13 13 14
21 19 16 18 17 19 18 19 19 18 16 14 13 13 14 14 14 15 14 14 14 14 13 11 10 8 8 9 10 11 11 12 12 13 14 13 14 13 13 13 13 13
16 18 17 17 18 21 21 20 19 18 17 15 14 14 13 14 15 15 15 14 15 15 14 14 11 10 10 9 9 9 11 12 11 12 14 12 11 13 15 13 14 14
17 16 16 20 20 21 18 19 18 17 17 15 15 13 14 15 15 15 15 14 16 15 16 13 12 10 9 8 10 9 11 10 12 13 12 11 11 10 11 12 13 15
16 16 18 21 21 19 19 19 16 18 16 16 14 14 15 15 16 14 14 14 15 17 15 14 13 12 11 10 11 11 10 11 12 13 13 12 9 12 11 12 11 13
17 18 19 22 22 20 19 19 18 17 17 16 15 15 14 14 15 14 14 14 14 14 15 14 13 13 11 11 10 11 11 9 8 8 8 10 11 11 13 12 11 11
17 22 22 22 22 21 21 19 20 18 18 17 16 14 15 12 14 15 14 13 14 14 14 13 13 12 12 12 13 13 11 12 10 9 11 10 10 12 11 10 11 11
23 20 20 18 19 21 20 20 19 19 18 18 16 15 14 14 15 14 14 15 14 15 15 14 13 13 12 11 10 10 12 11 11 12 10 10 8 8 4 8 11 12
20 18 17 14 18 19 20 21 20 18 19 17 17 16 14 14 15 15 15 16 16 15 14 14 13 12 12 12 13 11 10 11 10 10 11 11 11 11 9 7 10 12
15 10 17 19 21 21 21 21 20 18 18 18 17 16 15 15 14 14 13 15 16 14 14 12 12 12 11 10 12 13 11 11 11 10 9 9 10 11 9 7 8 11
16 10 14 20 21 22 22 22 20 20 18 17 16 16 15 16 15 15 14 13 13 13 13 11 11 11 12 11 12 12 10 11 11 10 12 10 8 8 8 7 7 11
17 12 12 19 19 22 21 20 20 19 17 17 16 15 13 15 14 14 13 14 13 12 13 12 12 17 18 17 17 10 11 9 9 12 11 13 12 11 9 9 8 8
20 16 15 18 19 22 22 21 21 19 17 17 17 16 15 15 15 13 13 14 14 14 12 14 15 14 16 15 11 14 15 11 8 8 11 10 12 12 10 10 10 10
25 22 22 21 22 23 23 22 20 18 18 17 15 14 13 13 13 14 14 13 13 13 14 14 15 15 16 15 15 15 15 12 10 9 9 9 11 9 11 11 9 13
17 22 22 21 22 22 22 22 21 21 17 16 15 13 13 11 10 13 16 17 16 16 15 15 15 13 13 13 13 14 10 14 11 8 9 10 11 11 12 12 11 11
22 23 22 20 19 17 16 21 19 19 18 15 14 12 11 11 14 15 15 15 15 15 15 15 15 13 11 11 11 11 12 11 16 10 11 9 8 9 8 7 9 11
23 25 21 20 19 16 17 18 19 18 16 14 14 13 12 11 13 14 15 14 14 16 16 15 14 13 13 13 11 11 10 10 15 8 8 7 8 7 8 8 8 9
20 20 18 15 14 13 16 17 16 15 15 13 14 13 13 12 11 12 14 14 15 15 15 14 15 13 13 14 14 13 13 10 10 7 9 8 8 7 9 8 7 8
18 18 17 16 16 15 16 16 15 14 13 12 12 13 13 13 13 13 13 14 13 14 14 15 16 15 15 16 16 16 15 14 8 8 7 8 8 8 9 10 10 9
18 18 17 17 17 18 18 16 15 14 13 11 13 13 13 13 14 14 13 12 12 14 14 14 14 15 15 16 17 19 14 13 7 10 8 10 9 8 10 9 10 11
16 16 16 16 17 18 16 15 14 13 12 11 13 12 12 12 12 11 10 11 12 12 12 13 14 14 15 16 17 19 16 15 12 9 8 10 9 10 11 10 13 12
17 17 16 15 16 15 14 14 14 13 10 8 6 9 10 10 10 11 10 10 9 10 5 9 12 11 14 15 17 18 19 16 15 12 9 8 10 10 8 11 16 17
17 17 16 15 15 13 13 12 11 11 10 8 7 9 11 11 11 11 11 10 9 9 9 8 12 13 15 14 15 16 17 18 14 12 11 11 11 13 13 10 10 19

ECMWFNIL_sfc_gust_054.txt.gz
Wind_Gust
9 8 10 9 10 12 9 9 9 9 8 9 9 11 11 9 10 8 7 7 6 6 5 6 5 6 7 7 6 3 5 6 5 6 7 5 5 5 5 8 7 5
14 11 8 8 9 10 13 11 8 7 7 7 8 8 8 11 9 8 7 6 6 5 5 6 6 7 6 7 6 6 5 5 6 9 6 7 6 7 5 5 9 6
19 13 13 12 12 18 19 10 7 6 8 7 9 8 10 10 8 7 7 6 7 7 4 4 5 5 6 6 8 5 6 6 6 5 6 8 6 7 6 4 5 9
19 17 15 15 18 19 16 11 7 5 6 8 8 9 11 9 7 8 6 6 7 6 5 5 5 4 6 6 6 5 5 6 6 5 5 5 6 7 6 6 6 7
25 18 14 14 17 18 15 11 9 8 8 7 8 9 10 8 8 9 7 6 7 7 5 5 4 4 2 5 5 5 6 6 4 5 6 5 6 9 7 8 10 10
22 21 15 14 15 14 12 11 11 10 10 9 9 9 9 9 8 9 8 8 9 9 8 6 6 5 4 4 4 4 7 7 8 8 7 7 5 7 12 9 7 9
21 20 13 17 14 13 12 11 10 11 10 9 10 9 9 9 10 10 10 7 10 9 10 7 4 3 4 4 4 4 4 3 5 4 6 7 5 3 7 6 6 9
21 21 17 14 14 13 13 12 12 10 10 10 8 10 10 12 12 10 10 9 10 10 8 9 6 5 5 4 6 5 4 5 4 6 8 9 5 5 4 5 3 5
24 23 23 23 17 13 13 13 12 11 11 9 8 9 8 8 10 8 9 9 11 10 10 8 6 6 3 4 5 6 7 5 5 7 5 8 6 5 9 8 5 5
22 23 23 22 20 16 15 13 13 11 11 9 8 9 11 7 10 10 9 6 9 9 10 9 7 5 4 6 8 7 6 5 4 3 5 5 4 9 11 11 5 4
19 19 20 21 19 17 16 14 12 11 10 11 10 8 10 5 11 7 8 8 7 10 10 9 7 7 6 5 5 4 4 5 4 5 4 5 4 6 7 6 6 5
19 17 19 19 18 17 15 14 13 11 9 10 13 12 11 7 8 8 9 10 10 9 11 9 9 7 7 6 7 4 3 4 4 3 3 3 10 3 2 7 4 12
18 17 17 17 16 16 16 13 14 10 11 8 9 12 11 8 8 8 5 8 10 9 10 8 9 8 6 4 7 6 4 5 3 4 4 2 6 6 4 3 5 17
17 14 16 17 14 17 15 13 12 10 10 8 10 9 10 10 9 8 6 8 8 7 9 13 17 17 17 16 16 8 5 3 5 5 2 5 3 3 8 5 11 17
13 12 13 13 12 13 13 12 8 9 8 12 10 8 7 9 8 9 9 6 10 14 18 18 16 15 15 15 13 16 13 4 4 7 6 5 3 3 6 2 13 16
14 13 14 15 16 15 14 12 11 11 9 10 10 10 9 9 9 7 7 8 14 19 17 15 15 12 14 12 9 10 12 13 4 4 4 5 7 5 6 5 15 13
14 12 14 16 15 16 17 11 12 17 11 10 10 10 9 9 8 9 11 13 17 17 16 14 12 13 13 10 11 12 11 12 10 4 2 5 3 5 6 4 13 15
13 13 12 15 15 18 16 14 15 15 11 8 9 10 12 17 19 18 17 16 16 17 16 13 12 13 14 15 13 12 10 11 11 7 4 5 2 3 4 6 10 13
17 19 18 21 24 18 12 12 14 16 18 17 15 14 17 18 16 17 17 17 17 17 15 14 12 15 16 16 15 13 13 11 11 13 4 6 2 3 10 8 7 12
18 18 19 18 20 20 18 17 17 16 14 14 15 17 18 16 16 16 16 17 17 15 13 14 13 14 16 17 16 15 13 9 11 12 4 4 5 5 7 4 8 8
17 18 18 19 19 19 17 18 17 18 17 15 15 15 15 15 13 14 15 16 16 14 14 12 12 15 15 16 16 16 15 7 9 8 9 5 7 5 3 3 3 6
18 20 19 19 18 21 19 16 16 17 17 15 14 15 14 14 13 13 14 15 13 13 13 13 13 17 16 17 17 18 16 10 8 3 4 6 8 8 7 6 5 5
18 19 18 18 17 19 19 15 16 16 14 13 15 14 14 15 14 13 12 12 11 12 12 10 12 15 17 17 18 19 14 11 10 6 3 3 3 3 4 16 16 13
19 19 18 17 18 18 15 14 13 13 14 13 14 14 14 11 11 14 14 13 14 13 11 11 12 14 17 18 18 20 14 12 11 9 3 2 2 2 13 17 19 24
19 19 18 18 17 15 13 14 14 13 11 13 13 11 11 9 10 12 12 11 10 10 12 13 12 12 16 17 19 19 19 13 13 13 15 16 13 12 15 17 15 18
18 19 18 17 17 15 14 14 13 11 12 10 9 8 6 7 9 12 11 8 6 11 13 13 12 11 15 17 18 19 19 16 16 16 16 15 14 14 12 14 16 15

ECMWFNIL_sfc_gust_057.txt.gz
Wind_Gust
23 20 18 15 14 11 12 14 13 13 13 13 14 12 13 11 12 11 9 8 9 10 9 6 8 9 10 9 8 9 10 9 9 8 8 8 8 11 11 8 6 8
24 26 20 16 13 9 10 11 11 15 14 14 14 12 11 14 11 11 10 9 8 10 9 8 9 10 9 9 7 8 8 9 9 8 9 7 7 10 10 9 8 7
15 20 23 20 17 13 10 10 10 11 15 15 14 13 13 12 12 10 11 9 9 11 10 10 8 9 10 9 8 8 9 8 8 7 9 8 8 10 7 9 7 8
7 15 21 21 19 16 12 12 8 9 12 14 13 14 14 11 10 11 9 9 10 10 10 9 9 9 10 10 9 9 8 8 7 8 9 8 9 9 9 9 7 6
7 6 9 15 16 15 12 12 10 12 13 14 14 14 14 11 11 10 8 10 10 9 7 7 6 6 10 11 9 10 9 8 5 6 8 8 9 10 8 8 7 8
6 5 4 11 13 13 13 13 12 14 15 15 16 14 13 12 11 9 10 11 9 10 7 7 5 6 11 10 10 10 9 9 7 7 8 8 8 8 10 8 8 7
10 7 8 9 12 12 12 11 13 15 16 16 15 13 13 12 11 9 11 11 10 8 8 7 6 6 6 8 10 9 8 8 8 8 9 8 9 8 7 8 10 8
9 7 8 8 11 13 12 13 15 15 16 15 14 12 12 12 11 10 10 11 10 10 8 8 8 6 6 8 10 8 7 8 10 9 8 9 8 9 8 9 9 9
10 10 7 9 13 13 14 15 16 15 15 16 14 11 10 9 11 9 12 10 10 10 7 8 8 7 6 8 8 8 6 4 8 6 8 9 7 9 9 8 10 8
11 10 9 10 13 12 16 17 16 15 14 15 13 11 10 9 10 9 9 9 11 8 9 8 9 7 5 9 9 8 7 6 4 6 9 10 8 8 6 7 7 10
12 11 13 10 12 14 16 17 17 15 14 15 13 10 7 11 9 9 8 9 10 10 10 10 9 5 4 7 7 6 7 6 6 8 10 5 6 6 10 8 11 9
10 9 15 16 17 17 16 17 17 16 15 13 12 9 9 10 10 8 9 9 9 11 11 11 8 7 6 3 6 5 4 5 3 4 6 7 6 8 10 11 12 10
16 10 15 20 18 18 15 17 16 14 14 13 9 11 11 10 9 10 7 9 9 10 13 15 15 15 12 11 11 7 4 7 5 4 4 3 6 8 11 12 10 9
14 11 14 10 14 16 17 16 17 14 13 9 11 11 10 9 9 9 8 16 18 16 16 15 14 15 13 12 10 10 6 6 6 7 5 5 8 8 8 10 11 10
11 11 9 9 9 12 12 16 15 14 11 13 13 10 8 8 7 14 20 19 16 16 16 15 17 15 12 10 10 10 9 8 5 5 3 4 7 8 13 12 9 9
16 14 12 7 13 11 13 12 12 10 10 13 13 10 8 9 14 18 18 17 17 16 15 16 14 12 11 11 8 6 6 10 8 7 4 1 3 9 11 10 9 6
18 18 15 12 11 10 13 15 14 12 10 10 13 16 17 17 19 18 16 16 17 17 17 15 13 11 12 7 7 8 7 9 8 8 4 5 2 9 11 9 7 6
19 19 17 14 11 9 14 16 15 15 17 15 18 20 20 17 18 16 16 15 17 18 17 14 13 13 13 11 9 11 8 9 8 7 7 4 4 12 8 8 10 9
16 17 16 12 6 13 14 16 18 18 18 18 18 16 18 18 14 17 16 14 18 19 16 14 13 14 14 14 13 12 11 8 8 8 7 6 7 8 12 8 4 9
16 18 18 16 15 15 16 16 18 17 17 17 18 20 21 17 16 17 15 16 17 17 16 14 15 15 15 15 14 14 13 7 6 7 7 7 6 9 8 9 8 9
17 18 19 18 18 15 17 17 17 17 20 18 20 20 19 16 15 16 15 15 15 15 17 16 15 16 17 16 16 16 14 8 9 3 7 8 12 15 15 14 14 16
19 19 19 18 16 16 17 16 16 16 18 19 21 20 16 15 14 15 15 15 14 16 17 16 16 18 17 17 17 15 12 12 10 9 5 12 19 18 17 16 16 17
20 19 21 20 18 19 18 15 16 16 14 14 23 17 17 17 15 14 12 14 16 16 16 15 16 16 16 17 17 17 12 14 14 17 18 19 20 18 18 19 18 17
20 19 21 20 19 18 15 13 14 14 16 13 18 18 16 14 15 17 16 15 17 16 15 16 15 15 17 18 19 18 13 15 13 15 16 17 17 17 17 19 20 24
21 20 20 21 21 17 15 14 14 13 14 16 16 17 16 14 15 18 18 17 16 16 16 19 15 13 16 19 20 18 16 14 14 14 16 14 13 14 13 15 16 16
20 20 19 19 18 15 14 13 11 14 16 18 17 16 17 15 14 15 17 16 14 15 15 13 15 14 17 20 20 20 16 17 15 17 14 11 10 11 13 11 11 12

ECMWFNIL_sfc_gust_060.txt.gz
Wind_Gust
10 10 7 9 12 13 14 13 12 12 11 12 15 13 13 11 12 12 10 10 10 10 8 9 9 11 13 12 11 11 10 11 11 10 10 9 8 9 10 8 7 10
9 9 12 15 11 12 10 13 14 14 13 13 11 11 9 12 10 12 11 10 9 9 7 9 9 11 11 11 10 11 10 9 9 8 11 9 9 9 9 8 8 6
6 7 11 13 13 12 11 11 12 13 15 14 12 14 13 11 11 9 11 11 11 9 9 9 9 10 10 9 8 9 9 7 8 7 10 9 10 10 9 9 7 8
7 6 7 8 9 10 11 13 13 14 13 15 15 14 14 11 11 10 9 10 11 10 10 9 10 9 9 10 10 8 5 4 7 8 8 7 9 10 9 8 7 7
9 7 8 8 8 9 9 13 16 17 17 19 14 13 15 13 12 11 10 10 11 11 10 10 9 9 10 12 15 13 13 9 8 8 9 9 8 9 8 9 8 8
9 9 7 8 11 11 14 17 19 19 20 17 18 15 14 13 12 11 11 12 12 12 9 9 9 9 9 10 12 12 14 14 11 10 9 9 8 8 10 9 9 8
14 12 12 14 17 14 16 13 12 13 17 19 17 17 16 15 13 12 11 11 11 10 11 8 9 9 10 10 9 9 10 13 12 11 10 9 9 7 6 8 9 7
14 12 13 13 14 16 18 10 13 14 15 18 18 16 16 16 14 12 11 12 10 10 9 9 9 10 9 9 10 9 7 7 9 9 9 8 8 8 7 8 7 7
15 13 12 13 14 13 17 10 15 15 16 20 18 16 14 16 14 14 13 12 11 10 8 8 9 10 10 10 10 10 9 7 8 9 9 9 10 10 9 7 7 8
13 13 15 15 13 14 19 10 11 14 17 19 17 16 16 13 14 14 13 12 12 9 10 8 9 10 10 10 11 10 10 9 9 9 10 9 10 8 7 7 8 7
9 12 14 13 11 11 17 10 8 12 14 18 17 16 13 13 12 13 12 13 13 11 10 10 10 10 11 9 8 8 10 10 10 9 10 9 10 9 9 9 9 10
9 10 13 11 8 11 18 18 11 9 9 13 17 14 12 12 13 12 13 12 12 11 9 7 8 7 8 9 7 7 7 7 8 10 8 9 7 7 9 10 10 9
8 14 17 11 11 14 17 14 11 10 11 14 17 16 15 13 10 10 8 10 10 12 10 10 10 9 7 5 3 5 7 7 7 7 6 5 7 10 10 8 8 9
7 8 12 14 14 14 15 10 9 11 10 9 12 13 14 12 12 14 11 14 13 13 9 9 11 10 7 4 5 6 7 7 9 9 8 7 8 8 8 9 8 8
10 7 6 14 15 10 12 11 11 12 12 14 14 13 12 15 15 16 17 16 14 13 12 10 13 10 6 4 6 6 5 8 7 10 11 11 10 8 7 7 5 4
11 13 10 12 17 16 12 10 9 14 15 14 13 16 16 18 18 15 16 16 16 13 11 12 11 7 7 6 4 3 6 9 8 8 9 10 12 9 6 4 7 7
15 19 14 10 17 18 13 11 10 11 11 13 17 19 19 18 22 19 16 13 14 13 13 12 9 7 7 4 5 4 5 8 9 7 8 11 11 11 11 7 8 10
11 18 18 18 16 16 14 11 12 16 15 16 19 20 17 18 20 20 18 13 13 13 13 11 9 8 6 5 7 7 5 10 7 9 9 10 11 10 8 10 10 11
12 14 20 18 17 16 16 14 16 15 16 19 19 19 18 20 17 20 18 13 13 14 13 9 8 10 9 8 9 8 7 11 10 9 10 7 8 9 11 12 11 12
19 16 14 17 18 17 17 17 16 16 12 17 20 20 23 19 17 20 17 16 13 13 12 11 11 11 10 9 10 10 12 14 13 15 14 13 11 10 11 13 12 10
21 19 15 15 17 19 20 18 17 14 16 14 17 20 22 20 18 19 17 16 12 11 15 14 13 13 11 11 12 14 17 16 17 17 17 16 16 16 16 15 13 13
23 21 20 15 17 19 19 18 17 16 18 17 20 20 18 19 15 18 18 17 12 12 17 15 14 16 13 12 14 16 18 18 18 19 18 18 18 16 16 15 13 11
24 23 23 15 17 20 19 17 17 14 16 18 22 19 19 17 16 17 15 16 15 15 17 15 15 16 15 16 15 17 17 18 19 19 18 20 16 14 15 15 15 13
23 24 20 19 20 20 19 18 16 16 14 11 20 21 20 16 17 20 18 17 18 17 16 18 15 15 17 17 17 17 15 19 18 20 17 18 16 14 14 15 16 18
21 23 21 18 22 20 19 21 17 17 14 14 17 18 19 16 19 22 19 18 18 18 17 20 17 16 18 18 18 15 16 15 18 19 19 14 14 14 11 12 12 12
20 23 22 22 21 20 20 20 16 17 16 14 16 17 18 16 20 21 22 18 16 17 18 17 19 17 19 20 18 18 14 15 12 19 18 14 10 12 13 10 9 9

ECMWFNIL_sfc_gust_066.txt.gz
Wind_Gust
6 6 4 5 7 11 11 11 10 11 12 11 12 14 20 16 12 12 12 12 11 12 12 12 11 12 13 11 10 11 11 12 12 12 13 13 12 12 13 11 10 11
6 9 10 10 9 9 13 12 12 12 10 11 9 5 7 6 7 11 11 12 11 11 11 12 12 14 14 14 12 11 10 10 12 9 12 12 12 12 12 12 12 9
8 8 9 9 13 13 12 11 9 9 9 10 15 14 13 13 10 9 9 11 12 12 12 11 11 11 11 10 12 11 11 11 11 10 13 13 11 12 11 11 10 12
11 11 9 11 11 8 5 8 10 11 9 8 12 12 13 14 15 16 13 11 12 12 11 11 14 12 12 12 11 10 11 12 11 11 12 9 10 11 10 11 10 10
5 6 3 4 4 3 4 10 9 11 10 9 7 8 12 13 12 11 13 13 11 12 12 13 12 14 14 14 12 11 10 11 10 10 11 11 9 10 10 11 11 12
6 3 2 3 7 11 15 10 11 11 14 14 15 12 11 12 11 12 12 12 11 11 11 12 13 13 14 12 12 11 11 10 9 10 10 11 9 8 10 11 11 12
9 7 5 8 12 16 14 8 14 13 12 11 9 11 11 11 10 10 10 11 11 14 13 11 13 12 12 13 12 12 10 11 11 11 11 9 9 9 8 10 12 12
11 7 8 13 16 17 9 13 14 12 10 10 12 11 13 13 13 12 12 11 10 9 11 9 8 11 11 12 13 11 11 10 11 12 11 10 9 10 10 10 11 11
13 10 9 13 17 13 12 14 12 10 10 13 13 11 11 13 13 13 13 13 12 10 9 12 10 9 10 11 12 13 13 11 11 12 12 12 12 12 11 10 10 10
14 12 11 14 13 11 12 12 12 12 11 12 12 10 12 11 11 13 14 13 13 11 11 12 10 9 10 11 12 13 13 13 12 11 11 12 12 11 10 11 11 10
19 17 13 12 13 12 15 15 12 12 11 12 10 11 10 11 10 11 13 14 15 14 13 12 11 11 12 11 9 10 13 13 13 12 11 11 11 11 9 11 11 12
19 18 17 15 11 11 14 13 13 12 11 9 11 12 11 12 14 13 15 15 14 15 13 12 12 13 13 13 11 10 10 11 12 12 12 11 10 10 11 11 11 11
18 18 19 17 14 11 13 12 14 17 16 18 16 13 13 14 13 14 11 13 13 12 13 14 13 11 11 10 10 10 10 10 10 10 10 10 10 10 10 11 11 11
19 19 18 18 16 13 13 12 13 15 15 15 15 15 14 14 14 14 11 11 11 12 12 12 12 11 10 11 11 12 11 10 10 10 9 9 8 8 7 6 6 7
19 19 18 19 17 15 14 13 16 16 14 13 14 13 14 16 13 14 12 11 10 10 11 11 12 13 12 12 12 10 11 11 11 11 11 10 8 7 7 8 7 7
20 19 20 20 18 16 14 14 16 15 16 16 17 17 19 16 14 12 14 15 15 12 11 11 11 8 8 11 10 14 12 11 11 11 11 10 11 10 9 9 8 7
21 21 20 19 19 19 15 14 15 14 16 17 17 17 18 17 16 14 14 14 15 15 13 10 10 9 8 8 10 13 12 12 13 11 10 11 13 13 12 11 8 8
24 23 21 20 19 19 18 14 14 15 16 16 14 14 15 16 18 17 14 13 13 12 13 12 10 6 8 9 10 13 11 13 11 11 11 12 12 14 12 12 11 10
21 22 22 21 21 19 18 16 13 16 16 13 16 15 12 15 15 14 13 12 14 15 13 10 9 6 8 9 10 12 12 10 11 11 14 13 14 14 13 12 11 12
23 21 21 21 20 20 18 19 13 14 11 10 11 11 13 12 12 14 12 12 11 13 12 8 7 3 7 9 9 13 15 13 12 14 13 13 13 12 11 11 10 13
25 23 21 20 20 19 19 20 20 20 15 8 9 9 9 11 14 14 11 11 11 11 11 9 5 4 7 11 13 15 17 14 16 16 17 15 12 11 10 10 10 10
23 23 21 19 21 20 20 20 20 20 18 19 14 13 16 16 16 11 12 12 10 10 12 10 10 9 9 15 17 18 19 17 17 17 17 15 13 11 10 10 9 10
23 22 20 19 21 23 22 21 21 21 20 17 16 19 21 22 20 13 13 12 13 12 14 13 12 11 8 11 17 21 17 17 17 18 17 17 13 10 10 10 10 9
22 22 21 19 21 23 21 19 19 20 19 17 14 21 24 22 17 19 17 16 21 19 11 17 14 13 11 7 9 12 18 21 18 20 16 16 14 11 10 12 14 17
21 23 22 19 18 20 22 22 20 19 18 18 16 23 24 21 22 24 19 18 21 20 21 19 18 15 15 12 12 10 14 18 20 21 20 14 15 14 11 11 13 15
20 23 23 21 17 17 20 22 20 20 22 20 19 19 23 22 22 22 22 21 20 22 23 21 19 17 17 17 14 14 10 14 15 23 21 17 13 14 15 12 12 14

ECMWFNIL_sfc_gust_069.txt.gz
Wind_Gust
12 12 12 14 14 14 14 14 15 15 15 14 14 15 16 15 14 15 14 15 14 15 17 17 18 18 19 19 19 20 20 22 21 21 22 24 23 21 22 22 17 22
13 13 13 13 12 11 12 14 14 18 18 17 16 15 13 15 14 11 11 13 14 15 15 17 20 20 20 20 20 19 17 19 21 21 22 24 23 18 18 18 21 22
13 11 10 10 11 10 12 12 12 15 19 21 21 18 15 13 16 17 16 15 15 17 16 16 19 20 20 18 19 20 20 21 21 22 21 23 22 22 21 18 18 19
14 12 11 12 14 14 13 13 13 15 15 14 17 20 18 12 16 18 15 17 19 19 18 18 18 19 20 21 19 21 21 21 23 20 20 20 19 18 18 19 22 23
16 15 13 14 15 14 12 14 15 14 17 17 15 17 18 16 17 15 18 22 20 21 20 21 20 18 18 19 20 21 21 20 18 19 21 20 15 16 19 20 21 23
18 17 16 16 14 13 13 14 15 15 16 17 19 19 19 19 18 19 19 21 20 20 18 18 20 21 19 19 22 22 20 21 19 21 22 21 20 19 21 21 21 21
20 19 18 17 14 14 15 15 15 13 15 16 17 19 19 18 19 19 20 22 22 20 19 19 20 21 21 19 20 20 23 21 22 23 22 22 21 21 21 21 21 19
21 19 19 17 15 15 15 15 15 15 16 17 18 20 19 19 20 19 19 20 21 23 22 21 22 22 23 22 20 19 22 24 22 22 20 21 22 23 24 22 17 17
23 20 20 17 16 15 17 16 15 15 15 17 18 18 19 19 19 20 20 21 21 22 22 21 22 22 23 24 24 21 21 22 21 20 22 21 22 22 21 18 17 17
24 24 23 22 20 17 16 16 17 17 15 18 19 19 22 19 19 22 21 21 22 22 23 20 21 21 22 23 23 22 23 23 21 23 21 19 19 19 19 18 18 17
25 24 24 24 23 21 19 18 17 17 15 18 17 18 19 21 23 24 24 23 24 24 24 19 19 23 23 21 21 21 22 19 18 19 18 18 18 18 14 18 18 18
26 25 25 25 23 22 21 21 19 17 18 16 17 18 18 18 20 23 24 25 25 24 23 20 19 18 18 19 19 18 18 17 17 17 17 18 17 16 18 19 18 19
26 26 26 24 22 22 22 21 20 17 18 18 17 19 19 20 20 22 23 24 25 25 24 21 19 17 16 16 17 17 17 16 15 15 15 14 14 16 19 20 19 20
26 25 24 25 23 23 22 21 20 17 17 17 17 19 20 19 20 22 23 23 24 24 22 19 19 18 16 16 17 17 15 15 16 15 15 15 17 20 17 17 16 14
27 25 24 25 25 24 24 23 22 18 18 18 18 18 18 20 20 23 23 24 24 24 21 16 17 17 17 17 18 18 17 17 16 16 16 17 19 20 21 19 13 18
27 25 26 25 24 24 24 24 23 21 18 18 19 20 20 18 21 21 22 23 23 24 21 17 16 13 12 16 14 17 16 16 15 16 18 18 18 16 18 16 18 18
27 27 27 26 24 24 23 23 24 23 18 17 17 20 21 18 19 21 23 23 24 22 19 16 15 13 15 16 16 17 16 15 17 16 16 17 17 17 18 17 16 14
27 27 28 27 25 25 24 22 22 22 22 19 18 16 16 13 14 20 20 22 21 19 18 16 13 9 16 16 16 17 12 16 16 16 15 15 16 16 16 16 15 13
27 27 27 27 27 26 24 23 22 21 22 21 21 19 13 9 12 17 15 14 15 17 17 14 10 8 14 15 16 16 15 12 15 15 16 15 16 16 16 16 16 15
28 27 28 28 27 27 26 25 25 24 22 19 19 20 18 14 8 10 7 9 11 13 12 8 8 5 9 12 13 14 13 9 12 13 13 15 15 16 15 16 17 17
29 28 27 29 30 28 27 27 27 26 24 23 20 19 18 17 15 10 8 7 11 11 8 7 8 5 8 11 13 15 14 9 14 13 13 12 12 12 14 15 15 14
27 27 27 28 30 29 28 28 27 27 27 25 22 20 17 16 15 15 13 12 14 10 10 12 19 10 9 11 15 17 17 13 14 15 14 14 13 12 12 12 12 13
26 26 27 28 28 29 29 28 27 27 26 25 24 23 21 21 19 18 16 19 22 16 14 14 15 15 11 13 14 17 14 12 15 16 15 15 13 12 12 11 10 10
26 26 25 26 27 28 28 27 26 25 25 26 26 24 23 18 16 16 18 18 19 23 17 16 15 16 14 11 11 8 12 17 14 16 15 15 15 13 12 13 14 15
24 24 24 25 27 27 27 26 26 25 24 25 25 23 24 21 18 16 15 18 20 21 26 22 19 19 19 15 15 10 8 11 17 16 17 14 15 15 12 13 14 14
24 24 22 23 26 26 27 26 23 22 22 23 22 21 19 18 22 20 19 17 19 22 22 20 23 24 25 22 19 19 15 9 9 17 18 17 14 15 16 13 14 14

ECMWFNIL_sfc_gust_072.txt.gz
Wind_Gust
14 13 13 15 16 15 15 15 14 14 17 16 15 15 16 16 17 18 19 19 19 20 21 20 19 17 19 18 18 20 19 19 22 20 22 24 24 23 24 22 21 21
15 14 15 15 15 15 15 14 13 15 17 15 15 15 16 17 17 18 19 19 19 19 19 21 22 22 22 23 20 21 22 22 23 19 22 23 23 24 23 21 21 21
15 16 18 17 18 16 16 17 15 15 16 16 16 15 16 16 17 17 17 19 19 18 20 20 21 22 23 25 22 20 19 21 22 22 20 23 23 24 23 22 21 21
17 17 19 16 16 17 18 17 15 15 14 16 17 17 16 14 16 18 18 18 20 21 18 20 21 22 23 22 19 17 19 20 21 21 23 23 23 23 22 21 21 21
18 18 17 17 16 15 15 16 17 16 15 17 16 16 17 16 17 19 18 18 19 20 20 21 20 22 22 21 21 20 17 17 21 23 23 23 23 22 22 22 22 22
19 20 18 17 17 17 15 15 16 17 17 17 18 18 18 17 17 18 18 19 20 20 21 22 21 21 23 22 21 21 21 20 22 25 25 24 21 22 23 22 23 23
21 20 19 20 18 18 19 16 14 15 18 17 18 18 18 18 18 18 19 18 20 22 23 21 20 21 21 22 23 22 22 23 25 24 26 21 24 23 23 23 24 24
22 20 20 20 20 19 18 19 17 16 16 17 17 19 18 19 20 18 18 18 19 21 22 23 23 24 23 24 23 22 23 23 24 26 25 27 24 24 27 25 23 24
22 21 22 21 21 20 18 19 19 19 18 18 17 18 19 21 20 18 19 20 21 21 22 23 24 24 23 24 25 26 26 25 24 25 24 24 26 24 24 25 23 24
23 22 22 21 21 21 21 20 20 19 19 17 18 18 21 19 20 19 19 20 21 22 23 23 24 23 23 24 26 26 27 28 28 25 23 20 25 26 26 27 25 24
24 24 24 23 23 22 21 22 21 20 19 19 18 18 19 19 19 19 20 20 21 22 24 24 25 25 25 24 24 24 25 27 27 26 24 25 29 26 18 28 25 27
25 24 25 24 24 23 22 22 21 18 19 19 17 17 18 20 20 20 19 21 22 23 24 25 25 25 25 25 25 24 25 26 26 25 24 24 26 25 26 24 21 26
26 26 26 25 25 24 23 22 22 20 19 19 18 17 17 18 17 19 20 22 22 23 25 25 25 26 26 24 24 23 24 25 23 24 23 24 25 26 23 24 23 24
27 26 26 26 26 25 23 22 22 22 21 19 17 16 16 16 17 18 20 23 23 21 23 23 24 25 25 24 22 23 23 24 25 26 26 23 21 24 25 22 23 23
27 26 26 26 27 26 25 24 23 22 22 22 21 18 16 16 18 18 21 23 23 20 19 24 25 25 26 26 25 25 23 24 26 26 24 23 25 25 23 22 22 20
27 27 28 28 28 28 27 26 25 24 23 22 21 21 21 18 17 18 19 22 21 20 21 24 23 24 16 17 15 22 24 24 23 24 25 24 24 23 22 22 21 21
27 29 29 29 29 29 28 28 27 25 24 24 23 22 21 21 20 18 19 19 20 20 18 19 24 22 11 16 16 14 21 22 24 24 24 24 22 22 23 23 22 21
28 29 29 29 30 30 29 29 28 26 26 25 24 24 24 23 21 22 20 18 18 20 21 20 21 12 13 15 16 15 13 23 24 25 24 22 22 23 23 22 21 22
28 29 29 29 30 30 29 30 30 28 28 26 26 24 23 23 23 23 23 22 19 21 22 18 15 6 11 12 15 16 18 17 25 24 23 22 21 21 22 21 22 22
28 28 29 29 29 29 29 29 29 29 28 26 24 25 25 24 22 22 21 21 22 20 18 17 8 9 6 10 15 17 18 15 23 22 21 21 19 20 20 21 22 22
28 28 29 28 29 29 29 29 28 28 28 27 26 24 24 24 23 21 20 20 20 20 19 10 12 10 6 5 12 16 17 12 21 22 19 16 15 15 18 18 19 21
27 27 28 28 28 28 28 29 29 28 27 26 25 23 23 23 22 21 20 20 19 19 18 15 14 13 9 6 6 13 15 17 21 15 14 14 12 13 14 15 18 18
26 26 27 28 28 28 28 28 28 28 26 25 25 25 24 24 22 22 22 21 20 18 18 16 16 17 13 7 9 10 15 20 14 15 13 13 12 12 13 13 13 14
26 26 26 27 28 29 28 27 26 26 26 25 25 25 25 24 23 22 23 23 23 21 21 16 16 18 16 8 7 10 15 15 14 15 14 13 13 11 11 14 14 17
25 26 26 26 27 27 28 28 27 26 25 25 24 23 25 24 24 25 24 25 25 24 22 22 18 17 18 14 19 16 10 11 10 15 17 14 13 12 13 14 15 15
25 25 25 25 26 24 24 25 24 26 25 24 24 24 24 24 24 25 26 26 26 26 28 26 23 21 23 19 22 23 18 15 12 11 13 14 12 14 15 16 16 17

ECMWFNIL_sfc_gust_075.txt.gz
Wind_Gust
18 17 18 21 21 20 19 18 18 17 19 17 17 18 20 16 15 16 15 15 16 17 18 20 20 22 22 22 24 24 20 19 16 20 19 18 16 18 19 17 16 17
20 20 19 20 22 22 20 19 18 18 16 17 18 18 18 19 15 16 15 16 17 18 19 19 20 22 23 23 24 22 20 16 19 23 22 22 20 17 14 15 19 20
19 19 20 20 24 23 23 20 19 18 17 15 14 21 19 20 16 16 17 17 17 18 19 20 21 21 22 22 22 23 22 22 23 21 23 21 21 20 16 18 18 20
18 19 19 19 21 23 24 23 20 19 17 16 15 17 19 18 20 21 17 16 18 18 19 20 22 21 21 22 21 23 24 24 23 21 23 22 21 18 16 15 21 23
20 20 19 20 20 22 24 24 24 22 21 20 17 19 20 18 20 20 18 17 18 19 20 22 22 23 18 19 19 20 24 24 23 23 22 19 18 18 17 19 22 25
20 21 21 21 19 20 23 24 24 24 24 19 18 18 18 22 23 19 18 19 20 21 22 22 23 23 21 21 21 24 24 23 23 24 25 23 23 18 21 21 22 25
22 21 21 21 21 21 21 21 23 24 25 24 21 20 20 19 21 20 20 20 20 21 22 22 23 23 22 23 23 23 24 24 23 24 25 23 23 23 18 19 20 21
23 22 22 22 21 21 21 22 22 23 23 24 24 25 24 22 21 19 21 21 21 21 22 22 23 25 24 24 24 23 24 24 23 26 24 22 22 24 21 21 23 26
24 23 23 22 22 21 21 23 23 22 22 22 23 24 25 25 23 20 19 22 22 20 22 22 23 23 24 24 26 26 27 24 23 26 26 26 24 26 26 25 25 24
24 24 22 23 23 22 22 22 23 22 22 23 23 23 25 25 25 22 20 16 19 20 18 21 24 20 21 24 26 27 27 27 28 26 26 26 26 26 27 29 27 24
24 24 24 25 24 24 23 23 23 24 23 24 24 24 24 25 25 21 22 24 21 21 23 21 24 23 21 22 25 25 25 25 25 25 24 26 23 26 20 26 27 27
24 23 24 25 25 24 24 24 24 24 25 23 23 26 26 27 26 23 21 24 24 23 21 21 21 20 22 24 23 24 26 26 23 22 20 23 24 27 24 25 26 23
24 24 26 25 25 25 25 25 25 24 25 26 25 25 27 27 28 29 26 19 24 21 17 18 19 19 20 19 21 23 24 24 24 20 24 23 22 25 24 22 23 22
25 24 25 26 26 26 26 26 25 25 25 25 25 26 26 26 28 29 30 30 23 15 17 18 20 20 20 20 18 23 25 25 24 25 25 24 23 22 23 19 19 17
24 25 25 25 26 26 26 26 27 26 26 26 25 26 25 26 26 27 30 29 31 22 18 17 18 22 17 14 21 27 26 24 25 24 25 25 25 23 25 24 17 17
25 25 26 26 27 27 27 27 28 27 27 27 27 27 27 27 27 27 26 28 29 30 23 15 18 21 13 11 10 17 20 23 23 22 19 18 17 22 22 21 19 17
26 26 26 27 27 28 27 28 29 29 28 28 27 27 28 27 27 27 27 26 27 29 28 28 22 18 13 14 14 16 16 17 19 16 16 18 21 23 20 19 20 19
26 26 26 27 27 28 28 28 29 29 29 28 28 28 28 27 28 27 26 26 26 26 26 27 26 20 21 21 19 17 15 19 18 19 24 21 17 22 21 19 18 16
26 26 26 27 27 27 27 28 29 29 29 29 29 28 27 27 28 28 27 26 25 25 26 27 22 23 27 26 25 21 19 17 24 21 19 17 17 16 15 13 14 14
26 26 26 26 27 27 27 27 28 29 28 27 28 28 28 27 26 27 27 27 27 26 25 25 22 21 27 29 27 24 19 13 20 23 17 16 17 20 19 17 23 20
26 26 26 26 27 27 27 28 29 28 28 28 29 28 29 29 27 26 27 26 27 27 27 25 23 21 25 29 28 24 21 14 17 18 16 19 21 18 19 19 20 25
25 25 26 25 26 27 28 28 27 29 30 28 28 28 28 27 26 26 26 27 27 28 27 27 26 21 26 29 29 27 20 17 18 20 19 21 23 20 19 19 16 10
24 25 25 25 25 26 27 27 28 28 28 28 28 29 28 29 28 27 27 27 28 27 28 28 26 23 25 28 28 28 18 21 19 20 20 21 15 13 17 16 17 14
25 25 25 25 25 27 27 27 26 26 27 28 28 28 29 29 28 28 28 27 28 30 30 28 27 24 25 29 27 27 20 19 23 23 20 13 14 14 18 21 20 20
25 25 24 24 25 25 26 26 26 26 25 25 26 26 28 28 28 28 28 28 28 29 27 31 29 25 25 31 27 27 23 19 21 17 10 12 13 14 15 15 17 17
26 26 25 26 26 25 26 25 24 25 26 25 24 26 27 27 28 29 29 28 28 28 31 32 33 30 30 32 29 29 29 22 11 10 11 13 15 13 14 19 17 16

ECMWFNIL_sfc_gust_078.txt.gz
Wind_Gust
18 16 18 20 21 20 20 21 18 17 15 15 15 15 13 7 7 8 9 10 12 15 13 14 13 12 14 15 16 18 17 17 17 14 16 16 15 16 17 17 18 16
15 16 17 20 20 19 20 20 21 20 18 14 15 16 14 12 7 8 9 8 10 13 14 16 16 15 15 14 13 15 16 16 16 13 16 17 15 16 17 17 17 17
16 16 18 18 20 19 19 19 20 20 18 20 18 16 15 13 11 9 9 9 12 11 12 16 17 16 19 18 12 12 12 11 16 16 13 13 15 16 15 15 15 16
17 15 15 17 18 20 20 22 20 20 19 24 22 22 20 16 15 12 8 9 12 13 11 15 19 15 17 18 16 14 14 16 16 18 16 16 15 15 16 15 14 15
17 18 17 18 19 21 21 22 22 21 22 22 23 23 21 19 18 19 15 11 9 12 13 16 21 19 13 13 16 16 17 16 18 17 15 16 16 15 15 16 17 16
22 19 19 18 20 21 22 21 21 22 23 19 20 21 22 22 20 19 19 15 11 12 13 16 21 18 15 18 19 18 15 17 15 15 15 18 17 17 19 20 20 17
20 19 18 20 17 18 18 19 20 20 21 19 21 21 23 24 21 19 19 18 15 14 14 16 14 15 16 12 16 16 14 15 15 15 19 16 16 22 20 21 21 20
20 20 20 22 19 18 18 21 21 20 20 21 21 22 23 26 25 21 19 17 18 19 17 16 16 15 14 14 13 15 15 15 19 16 15 17 19 18 19 21 20 19
19 20 20 20 21 20 20 23 20 19 22 23 24 23 23 23 25 26 26 25 25 18 21 18 20 20 17 13 14 14 18 16 15 13 16 18 18 18 20 18 21 21
20 20 21 23 23 21 22 22 25 23 23 24 23 21 26 22 21 23 26 27 25 22 19 18 15 20 19 15 16 14 15 16 15 20 21 19 19 21 22 19 19 18
21 22 23 23 22 22 23 24 22 25 24 24 25 25 25 25 25 23 23 23 26 26 25 24 19 16 18 17 14 15 17 16 17 17 16 20 17 17 18 18 17 18
21 22 23 22 24 23 23 23 23 23 25 23 25 26 26 26 26 28 26 24 24 25 25 25 25 23 19 18 17 17 15 15 15 15 16 17 17 18 18 15 17 17
22 23 23 23 23 23 24 25 26 24 26 26 27 26 27 27 27 27 27 24 25 24 24 26 28 25 24 32 33 30 23 18 16 13 15 15 14 16 16 15 15 16
23 22 23 24 24 25 25 25 26 26 26 28 26 27 27 27 28 27 28 26 26 25 25 24 25 24 29 34 35 35 34 30 19 13 13 14 15 16 15 17 20 20
24 23 23 24 25 25 25 26 28 26 26 28 26 27 28 26 26 27 28 28 27 27 27 26 24 23 27 25 27 33 31 28 28 21 14 14 15 15 18 17 18 18
24 24 25 26 25 26 25 28 29 27 28 28 27 28 27 27 27 27 27 28 28 29 27 26 26 20 29 36 31 25 25 27 26 25 18 15 16 16 16 16 16 15
24 25 26 26 26 28 26 26 29 28 29 29 28 28 28 28 28 28 27 27 27 29 29 29 26 25 32 30 31 31 25 22 23 24 22 17 16 16 16 15 15 18
23 24 25 25 26 27 27 27 28 28 28 28 29 28 29 28 28 28 28 28 28 28 28 28 27 22 30 33 32 30 25 24 19 20 23 22 16 14 12 15 12 12
22 24 25 25 26 26 26 28 28 28 29 29 28 27 27 29 28 29 29 30 30 29 29 29 26 24 32 35 33 30 27 25 20 18 18 21 18 15 15 16 16 13
23 23 24 25 25 26 27 27 27 28 28 28 27 27 28 28 28 30 29 30 32 29 29 29 26 28 35 36 33 31 27 24 19 19 17 17 20 17 17 18 14 7
23 24 24 24 26 25 25 27 27 27 26 27 28 27 29 30 30 30 30 29 31 31 31 30 30 28 34 35 33 31 31 23 17 16 16 17 18 20 16 12 10 16
24 24 24 25 24 26 26 27 23 24 24 23 21 23 26 24 22 21 28 30 30 31 32 32 31 28 35 36 36 34 31 21 17 16 18 17 18 18 16 13 14 15
23 24 23 24 26 27 26 25 23 23 21 19 19 20 20 22 23 22 23 23 26 30 31 32 32 30 34 36 36 38 31 23 20 16 17 18 17 19 19 13 11 14
23 23 25 25 24 27 26 23 23 22 20 19 19 19 21 23 24 28 26 22 22 24 27 29 32 31 32 35 37 38 34 27 25 22 19 19 15 13 14 12 13 16
22 23 23 23 24 23 22 23 22 21 21 21 20 18 19 20 23 26 22 22 24 23 25 28 30 32 32 34 37 37 39 27 25 24 24 25 23 21 18 16 18 14
20 21 21 23 25 21 20 21 21 23 21 21 20 26 24 20 19 20 23 22 23 27 26 27 28 32 32 34 35 36 37 33 23 27 27 24 23 21 20 22 21 18

ECMWFNIL_sfc_gust_081.txt.gz
Wind_Gust
6 6 10 10 11 11 14 17 16 16 15 15 16 17 17 15 14 12 9 8 6 6 6 7 7 8 10 9 9 11 10 12 13 9 10 10 14 14 14 14 14 16
10 7 8 8 9 11 13 12 13 14 14 15 16 15 15 16 14 12 12 10 9 7 6 7 7 8 9 9 10 11 11 10 12 7 9 10 14 14 16 17 17 16
12 10 10 8 9 8 10 10 12 14 13 13 12 13 15 14 16 15 12 10 11 10 8 7 7 7 8 8 9 10 13 12 10 9 13 15 15 15 17 15 15 14
15 12 13 11 8 9 10 11 11 10 11 13 14 15 15 17 17 18 18 17 14 13 11 10 9 8 7 8 10 11 11 12 8 8 9 10 12 13 15 15 17 16
14 14 13 14 12 11 12 14 16 14 14 15 15 16 17 18 19 19 20 19 18 18 18 16 12 10 8 8 9 11 9 12 10 9 10 12 13 14 14 13 15 17
12 13 14 15 15 14 16 17 18 18 17 16 18 18 19 19 17 18 20 21 20 20 20 20 18 15 13 10 10 9 11 12 12 11 12 15 15 14 15 14 14 17
16 14 15 16 15 16 16 15 16 19 19 17 17 20 21 22 22 21 20 20 20 21 21 22 22 22 18 12 11 12 13 11 11 13 17 17 15 16 15 15 15 17
15 15 14 16 15 17 18 18 18 21 20 19 19 20 20 22 24 23 23 22 20 22 23 22 22 23 28 30 31 29 22 12 13 14 16 17 14 16 16 16 15 16
14 16 16 17 16 18 19 20 19 19 21 21 21 20 21 22 23 24 24 24 22 23 24 24 24 25 30 32 32 31 31 30 24 16 16 17 15 11 11 12 15 16
16 16 17 19 18 19 19 19 20 19 20 20 19 20 22 21 23 24 24 25 24 25 25 25 25 26 30 25 25 27 29 29 27 25 21 16 11 14 15 14 16 15
16 16 18 19 18 19 19 20 20 21 20 21 21 21 21 21 23 22 22 24 26 25 26 26 25 23 25 27 27 26 24 24 25 24 23 22 16 15 17 19 17 17
17 17 19 19 17 17 19 19 21 21 21 20 21 21 21 21 24 24 27 27 28 28 27 25 25 21 27 27 28 27 26 25 24 23 24 23 18 13 14 14 17 17
18 18 19 18 18 17 18 19 20 21 21 21 20 20 22 23 23 24 25 25 28 27 28 27 25 26 31 30 30 29 27 26 26 24 24 23 21 20 16 15 15 16
16 16 16 18 18 17 19 21 22 22 20 20 20 20 22 22 23 24 24 27 26 27 29 27 25 28 38 37 33 29 28 27 25 24 24 24 22 22 18 16 16 17
15 15 15 16 16 17 19 21 22 21 21 20 19 20 20 22 21 21 23 25 27 29 29 27 25 29 36 36 35 31 29 27 25 25 24 23 22 21 20 14 12 13
15 15 16 15 16 17 18 19 20 20 21 20 20 19 19 21 20 19 21 24 30 31 28 25 24 29 39 39 32 33 31 26 26 25 23 22 22 21 19 16 15 13
14 14 14 16 17 17 16 17 17 18 19 20 20 19 19 20 20 20 21 22 23 26 29 25 26 30 33 31 31 36 32 27 24 23 22 22 21 20 20 17 15 14
12 11 12 12 13 16 16 15 14 15 16 15 17 19 21 20 21 20 19 21 21 22 22 25 24 25 32 33 33 34 33 33 22 20 21 21 21 21 21 18 15 15
11 13 13 12 10 13 14 15 14 14 14 15 17 18 18 20 21 20 20 22 22 23 23 25 22 27 32 35 35 36 35 31 21 18 19 20 21 21 21 21 16 13
13 13 13 14 10 10 13 15 16 17 14 11 14 15 18 19 19 22 21 23 24 23 22 22 21 28 32 35 36 37 37 30 22 24 22 19 20 21 21 20 20 18
13 13 14 14 13 10 12 15 16 16 17 12 12 16 18 20 19 20 22 23 23 22 22 22 24 29 32 34 36 38 37 25 26 28 25 25 26 26 26 25 24 23
13 12 12 12 13 12 11 14 14 17 18 17 10 13 15 15 15 16 19 21 20 22 22 23 24 27 32 32 34 37 36 30 29 27 27 28 28 27 26 26 26 27
11 12 12 13 13 13 14 12 12 14 14 15 13 11 15 17 15 15 16 17 20 20 22 22 23 26 31 32 32 35 29 29 30 27 28 27 25 24 23 22 22 25
11 11 11 11 11 12 12 13 9 7 11 13 15 13 15 16 12 13 14 15 17 19 22 22 21 23 28 30 32 33 29 27 27 26 24 25 25 24 22 21 22 31
9 8 8 9 9 9 9 11 12 10 6 8 10 10 10 11 12 11 13 12 14 15 18 21 20 20 25 28 31 31 31 26 26 25 25 27 26 26 22 23 24 22
7 7 7 8 7 7 7 8 8 9 10 8 7 8 9 9 11 11 12 13 11 13 16 17 19 21 25 28 29 29 30 32 24 28 29 27 25 27 29 26 24 25

ECMWFNIL_sfc_gust_084.txt.gz
Wind_Gust
11 9 9 11 11 10 9 9 9 11 13 12 13 13 13 14 15 15 15 15 15 15 17 17 16 14 14 11 10 10 10 12 14 12 13 14 14 15 16 15 14 15
12 12 11 10 11 11 12 11 9 11 12 12 13 12 12 14 15 15 17 17 17 18 18 18 18 18 18 16 14 12 12 11 13 11 13 13 12 12 15 14 15 14
12 12 11 10 11 11 12 13 12 12 12 14 14 15 15 13 15 15 17 19 19 19 19 18 19 21 26 27 24 17 13 14 14 12 12 11 10 11 13 15 13 15
13 12 12 13 12 13 13 14 14 13 13 15 16 17 17 17 17 17 18 21 21 22 20 19 20 25 27 28 29 25 25 23 20 16 13 11 11 12 13 13 14 15
12 13 13 13 13 14 13 15 15 15 15 15 15 17 18 20 20 20 21 20 20 22 22 22 21 25 26 27 28 27 26 25 25 25 20 14 11 11 13 13 14 15
12 12 12 13 13 13 15 15 15 15 15 14 17 16 16 18 18 20 22 21 21 21 23 23 22 23 22 25 22 21 21 22 26 26 25 23 17 12 13 13 14 14
12 12 13 13 13 13 13 13 13 13 14 14 14 18 17 18 18 18 20 19 19 20 21 22 23 24 21 21 21 23 24 22 21 24 25 24 24 22 14 14 15 17
10 9 12 12 12 13 13 12 12 15 15 14 16 17 18 18 18 17 19 19 19 21 20 21 23 24 23 23 24 25 25 22 22 23 23 24 24 24 24 17 12 15
10 9 9 11 11 12 14 14 13 14 16 17 18 17 17 17 19 19 20 21 21 24 23 23 23 23 26 27 26 24 25 24 23 22 22 22 23 25 25 24 18 15
13 12 12 12 14 14 14 13 14 14 15 17 16 16 18 17 19 19 21 21 24 26 25 24 22 28 30 29 26 24 25 25 24 23 22 21 22 23 25 25 23 18
11 13 14 15 15 16 15 14 13 13 14 16 16 16 15 16 18 18 20 24 23 24 24 23 24 28 30 29 27 26 25 24 23 22 21 22 22 22 22 25 24 22
11 11 13 14 14 15 15 15 15 14 14 14 15 15 14 16 18 18 26 25 24 22 23 22 24 22 22 24 25 26 25 24 24 23 21 22 22 22 22 22 23 24
13 12 10 11 12 12 13 14 15 15 16 16 15 14 15 16 18 19 19 19 22 23 22 21 19 20 23 25 25 25 25 25 25 23 22 22 21 23 23 24 23 23
11 10 10 10 8 9 10 12 13 15 16 15 14 15 16 16 20 19 17 18 19 17 16 15 19 22 24 26 27 26 26 26 25 24 23 22 22 24 23 24 24 25
10 10 10 10 9 8 9 11 12 12 14 15 16 16 16 16 16 16 15 16 15 15 15 15 17 22 26 29 28 28 27 24 24 24 24 22 23 23 23 24 24 24
11 10 12 12 14 13 10 8 9 11 14 16 16 15 15 15 14 14 14 15 15 15 14 15 18 20 32 33 27 30 27 26 25 25 24 23 23 24 22 21 22 24
11 10 10 14 13 14 12 12 10 10 13 14 15 14 14 14 14 15 16 15 16 16 16 16 17 25 30 26 27 32 28 24 23 24 23 23 23 25 25 25 24 25
11 10 9 10 12 14 14 13 11 8 11 14 14 13 13 11 14 15 15 15 16 16 16 17 16 22 26 28 28 30 29 27 21 23 23 23 25 24 24 24 27 28
10 11 8 8 9 9 11 13 13 11 9 13 15 12 9 13 13 14 15 15 16 16 17 17 16 21 26 28 29 30 30 25 21 22 23 22 23 23 21 23 23 25
10 9 9 7 6 7 8 11 13 14 9 7 10 11 11 12 11 13 13 15 16 15 15 15 15 20 26 29 29 30 30 23 19 22 22 22 23 23 22 23 22 22
9 8 8 8 8 7 8 9 10 10 10 9 10 10 10 11 11 10 12 12 13 14 14 17 18 22 24 28 29 30 29 19 20 21 22 22 23 22 21 21 23 23
8 8 7 7 8 9 9 8 8 8 9 8 9 10 8 8 9 9 11 12 12 13 14 17 18 21 25 27 29 29 28 22 21 22 23 24 26 23 23 22 21 21
6 7 7 7 7 9 10 9 7 8 8 7 9 8 9 10 10 11 10 11 13 14 16 17 17 21 25 27 27 30 24 23 24 23 24 24 24 24 22 22 21 24
6 7 7 7 7 9 10 10 9 7 7 7 8 9 10 10 9 12 12 12 13 15 17 17 18 20 24 26 27 28 25 24 26 25 25 26 24 21 21 21 23 30
6 7 7 7 8 8 10 10 11 10 7 8 9 8 8 8 10 12 13 13 13 13 15 17 17 18 23 26 28 27 30 23 25 26 26 26 26 24 21 22 24 22
6 8 7 8 9 9 10 10 9 10 13 11 10 10 9 9 8 10 12 14 13 13 16 15 17 18 22 25 27 28 27 29 21 25 28 29 25 26 27 24 24 25

ECMWFNIL_sfc_gust_087.txt.gz
Wind_Gust
13 11 12 12 12 12 13 14 14 15 16 16 16 15 15 14 16 16 17 19 19 18 18 19 22 22 22 20 20 20 20 20 19 18 20 19 16 15 18 16 16 17
13 13 12 12 13 14 14 13 14 14 14 14 14 14 14 15 16 16 16 18 18 20 19 19 20 16 20 18 18 18 18 18 19 21 21 21 19 18 16 15 17 17
12 12 13 13 13 13 12 13 13 13 13 13 13 15 15 14 16 16 15 17 16 17 18 20 18 18 18 17 18 18 18 18 19 19 20 19 19 18 18 17 15 15
12 11 11 12 12 11 11 13 13 12 12 14 14 14 15 14 15 16 14 17 15 16 16 20 19 19 20 19 19 18 17 15 15 17 18 18 19 19 20 19 18 17
10 11 10 10 9 9 9 12 12 13 13 12 12 13 15 14 14 14 14 14 14 14 17 21 18 20 21 21 20 19 20 20 19 19 18 18 18 18 20 19 19 20
12 11 10 10 9 8 12 13 12 12 12 12 15 14 14 14 14 15 17 16 16 16 18 20 20 18 18 19 21 20 19 20 20 20 20 20 21 20 19 19 20 21
10 9 10 11 11 10 10 11 12 12 12 11 11 15 15 16 16 16 18 19 19 21 20 18 17 19 18 18 18 20 22 22 22 22 20 20 21 23 19 19 20 20
10 9 10 11 10 10 10 8 10 11 9 9 11 13 14 16 16 15 15 17 19 20 19 17 17 17 18 19 20 20 20 20 23 24 22 21 21 21 23 22 20 21
9 10 10 10 11 11 11 10 9 8 9 9 10 12 13 13 14 14 14 14 13 14 16 17 18 18 18 19 20 21 22 22 21 21 21 21 22 23 23 23 23 22
9 10 11 11 12 12 12 11 11 9 9 10 8 11 14 13 12 12 13 14 14 15 16 17 19 19 19 19 19 20 22 23 23 22 20 20 20 21 22 22 22 23
7 7 8 10 10 11 12 11 11 11 11 11 10 12 13 13 14 12 13 14 16 15 15 17 19 19 20 21 21 20 20 22 23 22 21 22 21 21 19 20 21 22
5 5 6 7 8 9 10 10 11 11 11 11 11 12 12 13 13 14 15 14 14 14 14 15 18 19 20 21 22 22 21 20 20 19 20 22 21 21 20 19 19 20
6 5 5 6 7 8 9 9 11 10 12 12 12 11 13 14 14 14 14 13 14 14 15 15 17 19 22 23 23 22 23 22 21 20 20 21 20 23 22 18 18 18
7 6 6 7 6 7 8 8 9 10 10 11 11 13 13 14 14 13 13 13 14 13 14 15 15 18 21 23 24 25 25 22 20 21 22 22 23 23 24 21 21 23
7 7 8 8 8 7 8 9 10 9 9 9 10 11 12 11 11 11 12 13 13 14 14 14 15 18 21 25 27 26 25 22 21 21 23 24 24 24 24 24 23 23
8 8 9 8 9 9 8 8 9 9 9 9 9 9 9 10 10 10 12 13 14 15 14 14 16 17 28 31 26 30 24 20 19 19 21 22 26 25 24 24 24 24
8 8 8 10 8 9 8 8 9 10 10 10 10 10 11 10 11 13 13 13 14 14 15 15 16 21 26 24 25 30 27 21 19 19 19 21 24 24 25 27 27 26
6 7 9 9 9 9 8 7 8 9 9 9 10 11 11 10 12 12 11 12 13 14 14 15 15 17 24 25 26 27 26 25 17 19 20 20 23 24 24 26 27 28
6 6 6 7 7 6 6 7 8 8 8 9 10 8 8 11 10 11 12 12 13 14 15 15 13 18 22 25 25 26 27 23 16 19 19 21 24 24 23 25 27 27
6 6 6 5 5 6 6 7 7 6 6 6 7 9 10 10 11 12 11 13 13 13 13 14 14 18 23 24 24 26 26 20 16 18 17 18 22 24 24 25 24 27
7 7 7 6 6 6 6 6 5 6 6 6 7 8 9 10 10 10 12 12 13 13 12 15 16 19 22 24 25 26 26 17 18 18 18 19 19 21 22 24 24 26
6 6 6 6 6 6 7 6 5 5 6 6 6 8 7 8 10 9 11 12 12 12 13 16 18 19 22 24 26 26 25 19 19 19 20 21 21 20 22 23 23 24
5 6 6 6 6 7 7 7 7 8 8 7 8 7 8 10 10 10 9 11 13 13 13 16 17 19 21 23 24 26 21 21 20 21 21 22 21 21 23 23 23 25
5 6 6 6 6 7 7 6 6 6 8 6 7 7 9 9 8 10 11 9 10 13 14 14 16 19 21 22 24 25 22 21 20 21 22 22 22 21 20 21 23 31
6 6 6 6 7 6 7 6 5 6 5 6 8 7 7 7 9 9 11 11 10 10 15 16 15 17 20 22 23 24 25 19 20 20 23 25 25 24 21 21 25 23
5 6 5 6 7 6 7 6 5 6 9 8 8 8 8 8 7 9 10 12 11 11 14 14 15 17 20 23 23 23 23 23 18 21 23 26 24 27 29 25 23 23

ECMWFNIL_sfc_gust_090.txt.gz
Wind_Gust
14 13 14 15 14 14 13 14 13 13 12 12 12 11 12 12 13 14 14 15 16 19 21 20 20 20 21 19 20 20 18 18 17 17 18 18 16 16 18 18 18 18
14 14 13 13 14 14 13 12 12 12 13 12 12 11 12 13 14 13 14 14 15 18 20 19 20 20 20 20 20 20 20 21 21 18 20 19 18 18 18 19 18 19
13 14 15 14 14 13 12 11 11 12 13 13 12 13 12 12 13 13 13 15 14 17 17 16 16 17 18 18 18 17 19 21 22 21 20 20 20 20 20 20 19 18
13 13 13 13 13 12 10 12 11 11 12 14 14 13 13 13 12 14 14 17 15 16 16 17 18 17 17 18 17 16 17 17 19 20 20 21 21 20 21 20 21 21
12 13 12 12 11 11 9 11 12 12 13 12 11 13 13 13 13 14 14 15 15 16 17 18 16 17 17 17 17 17 19 20 20 20 21 20 20 21 21 21 22 22
13 12 12 12 11 10 11 11 11 12 12 12 13 13 13 12 14 14 15 15 15 17 17 17 17 18 18 17 18 16 17 20 21 21 21 20 19 20 21 21 21 21
13 13 14 14 13 11 11 11 12 12 13 11 11 14 12 14 15 15 15 15 14 16 17 18 18 19 18 18 17 17 17 19 20 22 22 21 21 21 17 19 20 22
13 12 14 14 13 12 13 13 13 13 11 12 14 14 14 15 15 14 14 14 15 16 17 18 19 18 19 18 19 21 19 19 21 22 23 22 21 21 23 22 20 21
13 14 14 14 13 12 13 14 14 13 13 14 15 14 14 16 15 15 15 15 16 16 16 17 19 18 18 18 19 19 22 22 21 19 22 24 24 23 23 24 23 24
13 14 14 12 12 12 13 13 13 12 13 14 13 14 16 15 15 15 15 16 16 16 16 17 19 18 19 19 19 19 22 22 21 19 20 24 23 23 23 24 24 25
12 12 12 12 12 12 13 12 12 12 12 13 13 14 13 14 14 13 15 16 18 18 18 17 19 19 20 20 20 19 20 20 19 18 18 23 23 23 21 23 23 23
12 12 11 11 11 11 11 11 11 10 11 12 13 14 13 14 14 15 16 16 16 17 16 17 17 18 20 20 21 20 22 22 19 19 18 20 23 22 22 22 22 24
12 11 11 10 10 10 9 10 10 10 11 12 11 11 13 14 14 15 14 14 14 14 15 16 16 17 20 21 22 21 22 23 20 21 20 19 20 23 22 21 22 23
11 10 9 9 8 9 9 9 10 10 11 10 10 13 13 14 14 14 13 12 13 13 13 13 14 16 19 21 21 20 22 20 18 19 21 20 20 22 23 22 22 22
10 9 8 8 8 9 9 10 10 9 10 10 11 12 13 13 12 13 14 15 15 14 13 13 15 17 20 23 23 22 19 18 19 19 21 20 21 24 23 23 22 22
10 8 8 7 9 9 9 9 9 10 11 12 13 13 13 13 13 14 15 15 15 15 14 14 15 15 24 26 22 25 22 19 20 18 17 18 19 23 23 23 23 23
9 7 7 8 7 8 8 10 11 10 12 12 12 12 13 12 12 14 14 14 14 14 15 15 15 18 22 22 24 27 23 20 19 20 18 18 17 20 24 25 23 23
7 6 8 7 8 9 9 9 9 11 12 11 12 12 11 10 12 12 12 13 14 14 15 15 14 16 21 22 23 24 24 23 19 20 21 19 17 18 22 24 23 24
6 7 7 8 8 8 8 9 9 10 10 10 11 9 9 12 11 12 12 12 13 14 16 15 13 17 21 23 24 25 25 22 17 19 19 19 20 19 19 24 24 24
6 7 7 6 6 8 8 9 9 8 7 6 8 9 10 10 11 12 12 12 13 13 14 15 14 19 23 24 24 26 26 21 17 19 19 19 19 21 19 22 24 25
7 6 7 6 7 7 8 8 7 7 8 8 8 8 8 10 10 11 12 11 12 12 13 16 17 21 22 24 25 25 27 18 19 20 20 19 20 19 19 20 23 25
7 7 6 6 7 8 8 7 6 6 7 8 8 10 9 9 11 9 11 13 13 12 14 17 18 20 22 23 24 24 24 21 21 22 21 21 21 20 20 21 24 26
6 7 6 6 6 7 6 6 6 7 7 7 9 9 10 11 10 10 10 11 13 14 14 16 17 19 21 23 23 24 20 21 22 22 21 21 22 19 19 22 23 26
5 7 7 5 5 5 5 4 3 3 5 5 6 8 10 9 9 11 11 11 13 15 16 16 16 18 21 22 23 24 21 21 20 21 21 24 24 22 22 22 25 31
6 6 6 5 5 3 4 4 3 3 3 4 5 6 6 8 9 10 12 12 12 12 15 16 15 15 19 21 23 23 26 19 21 20 26 27 27 26 23 25 26 25
4 6 4 5 5 3 3 2 2 4 6 5 6 6 7 8 8 10 11 12 11 12 13 13 14 17 19 22 22 23 22 25 19 22 28 29 27 26 28 25 27 26

ECMWFNIL_sfc_gust_093.txt.gz
Wind_Gust
17 17 18 19 19 18 18 18 19 20 20 20 20 20 21 20 20 20 19 19 20 20 21 20 20 21 21 19 20 19 18 21 21 19 20 21 19 20 21 21 21 21
18 19 19 18 20 20 21 20 21 21 22 21 20 19 20 20 19 19 20 20 20 21 20 20 20 20 20 20 19 20 21 22 22 22 22 22 21 21 21 22 20 21
19 20 20 20 22 21 21 21 21 22 23 22 20 21 20 19 18 19 19 19 19 20 20 20 20 20 20 20 19 18 22 21 22 22 22 21 22 21 21 21 21 21
20 21 22 21 22 22 21 22 22 22 21 23 22 21 21 19 18 18 18 19 20 20 20 20 20 20 21 20 19 20 22 20 21 22 21 21 21 21 22 21 22 23
20 21 21 22 23 23 22 24 24 23 22 21 21 21 20 18 18 19 19 19 19 20 20 21 21 21 21 21 22 23 23 22 22 23 22 22 21 22 22 22 22 23
20 21 22 23 23 23 25 24 23 22 21 21 21 19 18 18 18 19 19 19 19 20 21 21 21 21 21 20 21 24 23 22 23 23 23 22 22 22 22 22 22 23
21 21 21 22 22 22 22 22 21 21 20 18 18 19 18 19 20 20 19 19 20 21 21 21 22 23 22 21 21 24 24 22 23 25 24 23 24 23 22 22 23 24
19 19 20 21 21 21 22 23 22 21 19 18 18 19 18 20 21 19 19 20 20 21 21 22 22 22 22 23 25 25 24 23 25 26 25 24 24 23 24 24 24 24
20 20 20 20 22 22 22 22 21 20 19 19 20 18 19 20 20 20 20 20 20 21 21 21 23 22 22 24 25 25 25 25 25 25 26 26 26 24 24 23 23 24
21 20 21 20 22 22 22 20 20 19 20 20 19 19 21 20 19 20 20 20 20 21 22 22 23 23 23 24 27 26 25 25 25 25 25 25 25 25 23 24 24 24
20 20 21 21 21 21 20 20 19 19 20 20 19 20 19 19 19 18 19 21 22 22 22 23 23 25 25 25 25 26 25 25 26 25 26 26 25 25 21 24 24 24
19 20 21 20 20 20 20 20 20 19 19 19 19 19 19 19 20 20 21 21 22 21 22 23 24 25 26 27 27 26 26 25 25 25 25 25 25 25 23 24 24 24
19 19 19 19 19 19 18 19 20 19 20 20 19 20 20 21 21 21 20 21 21 22 22 23 24 27 27 30 29 28 26 26 26 25 25 26 25 25 24 24 24 24
18 17 18 19 18 18 18 19 19 19 19 19 20 21 22 22 22 21 20 21 21 21 22 22 24 28 27 30 29 29 28 25 25 25 26 25 25 25 26 25 24 24
17 16 17 18 18 18 18 19 19 18 19 20 20 20 20 21 21 21 22 22 22 22 22 22 24 26 26 29 30 30 28 25 24 25 25 25 25 26 26 26 25 25
18 17 18 17 17 18 18 18 19 18 19 19 20 19 19 19 20 21 22 22 23 23 22 21 23 24 25 25 23 30 28 26 25 25 25 25 25 26 26 26 25 25
17 16 16 17 17 17 17 19 19 19 19 19 18 18 18 19 20 22 22 21 22 22 22 21 22 26 23 21 22 24 28 26 26 26 25 25 26 27 27 27 27 26
16 17 17 17 17 18 18 18 19 19 19 18 18 18 18 19 20 20 21 21 20 21 21 21 21 19 21 22 22 23 23 27 24 24 25 25 26 27 27 26 27 28
15 17 17 16 17 17 17 18 19 19 19 18 18 16 17 20 20 21 21 21 21 21 21 22 22 20 21 22 23 24 24 24 23 24 24 24 26 27 26 27 28 28
15 16 16 16 15 16 17 18 18 18 17 16 17 17 18 19 19 21 20 20 21 20 20 21 22 20 23 24 24 25 25 20 24 24 24 24 26 27 26 27 27 28
15 15 16 16 16 16 16 17 17 17 18 17 17 17 18 19 19 19 19 19 20 20 20 21 22 20 22 23 24 25 25 17 25 25 25 25 26 26 26 25 26 28
15 15 15 16 16 16 16 16 16 15 16 14 15 16 17 17 18 18 18 19 19 19 19 21 21 20 22 23 24 24 24 23 26 27 27 27 27 26 26 26 26 28
16 16 16 16 15 15 16 15 14 14 14 13 15 15 17 17 17 17 17 17 18 18 19 18 19 19 22 23 23 24 21 28 27 27 28 28 28 26 26 26 26 29
15 17 17 15 14 15 14 12 12 12 13 11 14 14 16 15 15 17 16 17 17 18 20 18 19 19 21 22 23 23 22 28 28 28 27 27 27 27 27 27 27 31
14 15 15 14 15 12 11 12 12 12 10 10 11 12 13 13 14 16 16 16 16 16 15 18 19 17 19 21 23 22 25 26 29 29 28 28 28 28 27 28 29 27
13 14 12 13 13 11 10 11 9 10 11 11 11 11 12 13 13 14 15 16 16 16 17 18 19 19 20 22 22 22 22 26 28 29 30 29 28 29 29 28 29 31

ECMWFNIL_sfc_gust_096.txt.gz
Wind_Gust
17 16 17 19 19 18 18 18 19 20 21 20 21 20 21 19 18 19 18 18 18 19 19 19 18 19 18 17 18 17 16 17 18 19 19 21 19 20 21 21 20 21
18 18 19 19 20 20 21 20 21 21 22 21 21 19 19 17 18 18 19 18 19 20 19 19 20 20 20 19 18 17 17 18 18 20 20 20 20 19 20 20 19 22
19 20 21 21 21 20 20 21 21 22 22 22 20 19 17 16 17 18 19 19 19 20 20 20 20 21 21 20 19 17 19 18 20 21 20 20 20 20 21 20 20 21
21 21 21 21 20 21 21 22 21 22 21 22 20 18 17 16 17 18 18 18 19 20 20 20 21 21 21 20 19 18 18 17 20 21 19 20 21 21 21 21 21 23
20 21 21 21 21 22 22 23 23 23 22 20 18 18 18 17 18 19 19 19 19 20 21 22 21 21 21 20 19 18 18 18 20 21 20 20 21 21 21 21 22 23
20 21 21 22 22 23 24 23 22 21 20 19 19 18 18 18 18 19 19 19 19 20 20 21 22 21 21 20 19 18 18 19 20 20 21 20 21 22 22 22 22 23
21 21 21 22 22 22 22 21 21 20 20 18 19 19 18 19 19 19 19 19 19 20 21 21 21 21 20 19 19 19 19 18 20 21 21 20 21 21 22 22 22 23
21 19 20 21 21 21 22 22 21 21 19 19 19 19 18 19 20 18 18 19 19 20 20 21 21 22 20 20 20 20 19 18 20 22 21 20 20 21 22 22 23 24
20 20 20 20 21 21 22 22 21 21 20 20 20 19 18 19 19 19 19 19 20 20 20 21 22 21 21 20 20 20 20 19 20 20 21 21 22 22 23 23 23 24
21 21 21 20 22 22 21 20 21 20 20 21 20 19 19 18 18 19 19 19 20 21 21 21 23 23 23 22 21 21 21 21 21 21 21 21 22 23 23 23 23 24
20 20 21 21 21 21 21 20 20 20 20 21 19 20 19 18 19 18 19 21 22 22 22 23 24 25 24 24 23 22 21 21 21 21 21 21 22 23 19 22 24 24
20 20 21 21 21 20 20 20 20 20 20 19 20 20 19 19 20 20 21 22 22 22 22 23 24 25 25 25 24 23 22 21 22 22 22 22 22 23 23 23 24 25
20 20 20 20 20 19 19 20 20 20 21 21 20 20 21 21 21 21 21 21 22 22 22 23 24 25 27 27 26 24 22 22 22 22 22 22 23 23 23 22 24 25
19 19 19 19 19 19 19 19 20 20 20 20 20 21 22 22 22 21 20 21 21 21 22 22 24 26 28 30 29 28 24 22 23 24 23 22 22 23 24 23 24 25
18 18 18 18 18 19 19 20 20 19 20 20 20 20 20 21 21 21 22 22 22 22 22 22 24 27 26 28 30 28 25 22 22 23 24 24 23 23 25 26 25 25
19 18 18 18 18 19 19 19 19 19 19 20 20 20 19 19 20 21 22 22 22 22 21 22 25 25 25 25 21 29 26 23 21 22 23 24 25 25 24 26 27 26
19 18 18 19 18 19 18 20 20 19 20 20 19 19 19 19 21 22 22 21 22 21 22 22 25 27 23 21 22 26 26 24 22 23 23 25 26 27 28 28 28 27
18 18 18 19 18 19 19 20 20 20 20 20 19 19 19 20 21 21 21 21 20 21 21 22 24 20 21 23 23 25 23 27 22 24 25 25 26 27 27 26 27 28
17 18 19 19 19 19 19 20 20 20 20 19 20 18 18 21 21 21 21 21 21 21 21 23 25 20 20 23 23 24 24 23 22 23 24 24 26 26 25 26 27 28
19 20 19 19 19 19 19 20 20 20 18 18 18 18 19 20 20 21 20 21 21 20 21 22 26 20 20 22 23 24 24 22 23 23 24 24 26 26 25 25 26 28
20 19 19 19 19 19 19 20 19 18 18 18 18 19 19 20 20 20 20 20 21 20 20 22 26 18 20 22 23 24 27 19 24 23 24 24 25 25 24 24 25 27
20 19 19 19 19 19 19 19 18 17 17 17 17 18 19 18 18 19 20 20 20 20 20 21 25 17 20 21 23 25 28 22 25 24 25 26 26 26 25 25 25 28
20 20 19 19 19 19 18 18 17 17 16 15 17 18 18 19 18 18 19 19 20 21 20 20 22 20 19 20 21 24 22 27 26 27 26 27 27 26 26 26 26 28
20 20 19 18 18 19 17 16 16 16 16 14 17 17 18 17 16 18 18 18 19 21 21 20 21 18 17 20 21 22 24 26 27 28 26 27 27 27 27 27 28 26
20 19 19 18 18 17 16 16 16 15 14 14 14 16 16 16 16 17 17 17 17 17 12 19 21 18 16 19 20 20 25 26 29 28 28 28 27 28 26 28 29 24
19 18 17 18 18 16 15 15 14 14 14 14 14 16 17 17 16 16 16 16 16 17 18 20 21 21 21 17 19 19 19 25 28 30 29 28 28 29 29 28 28 30

ECMWFNIL_sfc_gust_102.txt.gz
Wind_Gust
14 14 14 15 16 15 15 15 15 15 14 14 15 14 14 14 13 13 13 14 14 14 14 14 14 14 14 14 14 14 15 15 15 14 14 16 14 14 16 16 15 17
15 15 15 16 16 16 17 16 16 16 15 14 14 14 14 13 13 13 13 13 14 15 14 14 15 15 15 15 14 14 15 16 16 15 14 16 16 15 16 15 15 17
15 16 16 16 17 16 17 17 16 15 15 15 13 13 13 12 13 13 13 13 13 14 15 15 15 15 16 15 14 14 15 16 17 16 15 16 16 17 16 16 17 16
15 16 17 17 17 17 16 15 15 15 14 15 14 13 13 12 12 12 12 13 13 14 14 14 15 15 15 15 14 15 15 15 16 15 15 15 15 16 16 16 17 17
16 16 17 18 17 17 16 17 17 16 15 14 13 13 13 12 12 13 13 12 12 13 13 15 15 15 15 15 15 15 15 15 16 17 16 16 16 16 16 17 18 18
17 19 18 17 16 16 17 17 16 16 15 14 14 14 13 12 13 13 13 12 13 14 15 15 16 16 15 15 15 15 15 16 17 17 17 17 17 18 17 18 18 18
18 17 18 19 17 17 17 16 16 15 15 14 14 13 13 13 13 13 14 14 15 16 17 17 16 17 16 15 16 16 16 16 17 18 18 17 17 17 18 17 18 18
16 17 18 18 17 17 16 17 16 15 14 14 13 14 13 14 14 12 13 15 16 17 18 18 18 17 17 16 17 16 15 16 16 17 17 17 17 18 18 18 17 18
18 18 18 17 17 16 17 16 15 14 14 14 14 13 13 13 14 14 15 16 17 18 19 19 19 18 17 17 17 16 17 16 16 16 16 17 18 18 18 17 18 18
18 18 17 17 17 16 16 15 15 14 14 14 14 13 14 13 14 15 16 16 17 19 20 20 20 19 18 18 18 17 17 17 16 16 16 16 17 17 18 19 19 18
18 18 18 17 17 16 15 15 14 14 14 15 14 14 13 13 13 14 16 18 19 20 20 20 21 21 20 20 18 17 16 16 16 17 16 16 17 17 16 18 19 19
19 18 18 18 17 16 16 15 15 14 14 13 14 14 13 14 15 16 17 19 19 20 20 20 21 21 21 21 20 18 17 15 15 16 15 17 17 18 18 18 19 19
18 18 18 17 16 16 15 15 15 14 15 14 14 14 14 15 15 17 17 18 19 19 20 21 21 21 22 21 20 19 17 15 15 15 15 15 16 18 18 18 19 20
18 17 17 17 16 16 16 15 15 15 14 14 14 14 15 15 15 16 16 17 18 19 20 20 21 22 22 22 21 19 18 16 15 15 16 15 16 17 17 18 20 21
19 18 18 17 17 17 16 15 16 14 14 15 14 14 14 16 16 16 16 17 18 19 20 20 21 21 20 21 21 20 20 17 15 15 15 16 16 17 18 19 20 19
20 18 19 18 17 17 16 16 16 15 14 14 15 15 15 15 15 15 17 17 18 19 18 19 21 20 20 20 15 18 20 18 17 14 15 16 16 16 16 17 19 20
20 20 19 19 18 17 16 17 17 15 15 15 15 15 15 15 15 15 15 17 19 19 19 20 22 22 18 17 20 18 17 19 17 14 14 14 16 16 16 17 19 21
20 20 20 19 18 18 18 17 16 15 15 14 14 14 15 14 14 14 14 15 17 19 20 21 21 15 17 18 19 21 17 21 16 14 14 15 16 16 16 18 18 18
20 20 20 19 18 18 17 17 16 15 15 14 14 14 14 14 14 13 13 14 16 18 20 22 22 15 17 18 19 19 20 18 17 14 15 15 16 17 17 19 18 20
20 20 20 19 18 18 17 16 15 15 14 13 13 13 13 14 13 14 13 13 14 16 19 21 22 16 17 19 19 22 21 19 14 12 12 13 16 17 17 18 21 22
22 21 21 20 18 17 16 16 15 14 14 13 12 12 13 13 13 14 14 13 13 15 17 19 20 15 17 20 20 23 24 20 13 13 15 14 13 17 17 19 18 18
21 21 20 19 18 17 17 16 15 13 13 12 12 12 12 13 13 14 15 14 13 13 15 17 20 14 15 18 20 22 24 17 18 14 15 15 15 18 16 17 18 18
21 21 20 19 18 18 17 15 14 13 12 12 11 11 12 12 13 14 15 16 15 13 13 16 18 15 14 16 18 21 19 19 17 18 17 17 15 17 18 16 18 16
21 21 20 19 18 17 16 14 13 12 11 10 11 11 11 12 13 13 14 15 16 16 14 14 17 14 12 13 17 19 21 20 19 19 17 18 19 18 19 18 17 13
21 20 19 18 18 17 15 14 13 12 11 11 11 11 11 12 12 13 12 13 14 15 8 11 15 13 10 11 14 16 21 21 20 20 19 19 21 19 19 18 20 12
20 19 18 18 18 16 14 13 12 11 9 9 9 11 11 11 11 12 11 11 11 12 13 14 13 14 13 9 11 12 14 21 19 21 21 20 22 22 20 18 19 19

ECMWFNIL_sfc_gust_105.txt.gz
Wind_Gust
14 13 15 15 14 14 14 15 14 15 13 10 10 9 10 9 9 10 9 11 12 12 12 11 11 11 12 10 8 10 10 8 8 8 10 10 10 10 12 12 13 15
14 14 14 14 15 15 15 14 14 13 11 9 9 8 8 9 9 9 10 11 12 12 11 11 11 10 10 10 9 9 10 10 10 9 11 10 9 11 11 10 11 14
12 14 15 14 15 14 14 13 13 11 10 8 7 7 8 7 8 8 10 10 11 12 11 10 10 10 10 9 9 9 9 10 10 9 10 10 10 11 11 10 12 14
14 14 15 14 13 12 12 12 9 9 7 8 7 7 8 7 8 9 10 11 11 11 11 10 10 10 9 9 9 10 9 9 9 9 10 10 11 10 12 12 12 16
13 13 12 12 12 12 11 11 10 8 8 8 9 7 9 7 9 11 12 11 10 10 11 11 11 10 9 8 8 9 9 9 10 10 11 9 9 10 9 11 14 16
12 13 13 13 13 12 11 11 10 9 9 8 7 8 9 10 11 12 13 13 13 13 12 12 12 11 10 9 7 8 8 9 10 9 10 10 9 9 10 13 14 16
12 12 11 11 11 11 11 10 9 9 8 7 8 9 10 10 12 13 13 13 14 14 13 12 12 12 11 10 8 7 9 8 9 10 10 9 10 10 10 12 14 16
13 12 12 12 11 11 11 11 9 9 9 9 9 10 11 12 12 12 13 14 14 14 13 13 12 12 10 10 11 8 7 8 8 9 8 8 9 10 11 11 13 14
13 12 12 11 11 10 11 10 9 8 9 11 10 9 11 14 14 14 14 14 13 13 13 13 14 12 12 11 11 10 8 8 8 8 9 8 9 11 11 10 11 13
13 13 12 11 11 10 10 10 10 8 9 9 9 12 15 15 15 15 14 13 13 14 14 14 14 13 12 12 11 11 11 9 8 8 9 9 10 10 11 11 10 12
13 12 12 12 11 10 10 9 9 10 9 11 10 12 12 15 15 14 13 13 14 15 15 14 14 14 13 13 13 12 13 10 7 6 8 8 9 11 11 9 11 12
13 12 13 12 11 10 10 9 10 9 10 10 12 15 15 15 14 13 15 15 15 15 14 14 14 14 15 14 13 14 15 13 8 7 9 8 8 9 11 11 11 10
13 12 12 11 10 10 9 10 9 8 10 11 12 14 15 14 13 13 13 14 16 15 15 14 14 16 16 15 14 14 14 14 11 7 7 7 6 9 10 8 7 8
13 12 12 11 10 11 11 10 10 10 10 10 11 13 15 15 14 13 13 14 14 13 13 13 14 14 15 14 14 14 13 15 12 7 7 7 5 5 5 6 9 9
13 12 11 11 12 11 11 11 11 10 11 11 11 13 15 14 14 14 14 14 14 14 14 13 13 13 13 13 13 14 14 13 14 11 7 6 7 7 5 8 10 10
14 12 13 13 12 12 11 11 11 10 11 11 13 15 15 16 15 15 15 14 14 14 13 12 12 11 15 15 11 11 11 12 13 11 5 5 7 7 6 11 8 10
15 14 14 13 12 12 11 12 12 12 12 13 12 13 16 15 15 15 14 14 14 14 13 13 13 14 16 16 16 15 11 11 12 10 6 5 7 8 5 11 9 11
15 15 15 14 13 13 13 12 12 12 11 11 10 11 14 14 14 13 13 13 13 13 12 12 12 13 16 17 16 19 14 12 11 9 5 3 5 9 4 8 8 7
15 16 15 13 13 13 12 12 12 11 11 11 11 10 11 14 13 14 13 13 13 12 12 12 12 13 15 17 17 17 17 14 11 8 5 9 5 10 6 6 4 5
16 15 15 15 14 13 12 12 13 13 11 10 10 10 11 12 12 12 13 13 12 11 10 10 11 11 15 17 17 20 19 16 9 10 8 11 11 10 8 4 6 5
17 16 17 17 16 13 13 13 13 13 13 12 12 10 9 11 13 12 13 12 12 10 8 9 10 11 13 16 17 20 21 15 10 13 12 12 13 11 12 2 6 7
18 18 18 15 14 13 14 13 11 12 13 12 11 10 10 9 8 11 12 12 12 11 8 9 8 11 13 15 17 20 20 14 10 12 12 12 13 13 14 7 6 7
19 19 17 14 14 14 13 12 13 13 12 13 13 11 10 10 9 9 9 11 11 11 9 6 5 7 10 13 16 18 15 14 9 13 11 13 15 13 14 11 5 5
18 17 16 15 14 14 14 13 13 12 13 14 15 13 12 11 11 10 9 9 9 9 9 7 4 4 7 10 12 15 14 13 10 11 11 13 13 15 16 11 9 8
17 16 16 16 15 13 13 13 13 14 13 13 15 14 14 13 12 12 10 8 8 8 11 10 7 5 5 7 9 10 13 11 10 11 12 13 13 15 14 12 10 8
15 16 15 16 15 12 12 12 11 12 12 13 14 14 14 12 12 13 11 10 8 7 10 10 8 6 4 4 7 8 9 11 8 9 11 12 12 14 14 13 11 10

ECMWFNIL_sfc_gust_108.txt.gz
Wind_Gust
14 14 16 16 15 15 15 17 15 15 12 11 12 10 11 8 9 10 9 10 10 11 11 11 11 12 13 11 11 13 12 12 12 12 13 15 15 16 17 16 15 16
14 15 16 16 15 15 15 15 15 15 13 11 10 10 9 9 8 9 10 10 11 12 11 12 12 12 12 13 12 13 13 12 13 11 15 16 14 15 15 15 15 14
13 15 16 16 16 15 14 13 14 13 12 10 9 9 10 8 9 8 9 10 11 12 12 12 12 12 13 12 12 13 13 12 12 10 13 14 14 15 13 14 14 14
14 15 16 15 15 15 13 14 12 11 10 11 9 9 10 9 10 10 10 11 12 13 13 12 12 12 11 12 12 12 11 11 9 10 13 14 14 15 14 13 14 16
13 14 13 13 13 13 13 14 11 11 10 8 8 9 13 12 12 11 13 12 12 12 13 14 13 13 11 11 10 11 10 11 10 12 15 14 12 14 13 13 14 15
12 13 13 13 13 13 14 12 10 10 9 9 11 12 12 12 13 13 14 15 15 15 14 14 14 13 13 11 10 10 10 11 10 13 14 14 13 12 12 13 13 13
13 13 13 13 12 13 13 10 9 9 10 10 12 12 12 12 14 14 15 15 15 15 14 13 13 13 13 11 11 10 11 10 10 12 13 11 12 11 10 12 12 11
13 12 12 12 13 11 12 10 9 10 11 14 14 11 13 14 14 14 15 15 14 14 14 13 12 13 12 12 13 11 9 9 11 12 12 11 10 9 10 10 9 10
13 12 13 12 12 10 11 10 10 11 13 16 14 14 14 15 15 15 15 15 14 14 13 12 12 11 11 13 12 11 10 7 9 10 10 10 9 8 9 8 8 9
13 12 13 12 12 11 11 9 11 12 14 15 13 15 16 15 16 15 15 14 14 14 13 11 13 11 11 11 10 10 11 9 6 9 8 7 8 8 8 7 7 8
12 12 13 12 11 10 10 10 12 13 14 14 15 15 14 16 15 14 14 14 14 12 11 12 10 11 11 11 11 9 9 10 6 7 6 6 7 6 8 6 7 7
11 11 12 11 10 10 10 11 13 14 14 14 15 16 15 15 15 13 13 13 12 10 10 10 10 10 9 9 9 9 10 10 7 6 5 6 5 5 5 6 7 7
12 11 11 10 10 10 10 12 14 14 15 14 14 16 16 15 13 14 12 12 10 10 10 9 9 9 9 9 8 8 8 8 9 6 6 3 3 4 4 6 8 8
11 10 10 10 10 10 11 12 13 14 14 13 15 16 15 15 14 13 11 11 10 10 8 8 8 9 8 7 6 7 8 8 7 6 5 5 5 3 5 7 9 8
11 10 10 11 12 12 12 12 13 14 14 14 15 15 15 14 13 12 11 11 10 9 9 8 10 9 7 7 7 7 6 6 8 7 5 5 8 8 5 8 7 7
12 10 11 12 13 13 12 13 14 15 17 17 16 16 15 16 15 11 10 9 10 9 8 9 8 6 8 9 7 4 5 7 8 7 4 5 7 6 5 6 5 7
13 12 13 13 12 12 12 15 16 17 17 16 15 15 16 15 13 12 10 8 9 8 9 8 7 7 8 9 9 9 7 5 5 7 6 5 6 6 4 5 3 4
14 14 14 13 13 13 14 14 16 17 16 14 15 15 15 14 13 10 9 7 9 9 8 7 6 9 11 13 13 12 9 6 6 7 7 5 6 5 5 3 3 4
14 16 15 14 14 13 13 14 16 15 15 14 15 14 14 15 12 12 9 7 9 10 8 6 5 9 11 13 13 14 13 8 8 8 8 10 8 8 5 4 2 4
17 16 15 15 14 14 13 13 14 14 13 13 15 14 15 13 11 10 8 7 7 8 7 6 7 9 12 14 14 15 15 11 7 10 9 10 11 11 8 5 3 5
16 16 17 17 16 14 13 14 14 13 14 14 15 15 16 15 13 11 9 7 6 6 8 8 8 10 12 14 14 15 15 11 10 11 12 11 12 10 11 7 3 6
19 19 19 17 15 14 15 14 13 13 15 13 13 13 12 12 10 11 9 8 6 6 8 9 8 10 12 13 14 14 12 10 9 11 11 11 13 11 13 10 6 6
20 20 19 16 15 16 15 13 14 14 13 13 14 13 14 14 12 10 9 9 7 7 8 6 6 6 8 11 13 13 9 8 8 12 11 11 10 9 11 13 9 6
19 19 18 16 16 16 15 14 14 13 14 14 16 15 14 13 12 11 10 9 9 7 8 8 4 3 6 9 11 13 10 9 8 10 10 11 12 12 10 11 11 15
18 17 16 16 16 15 16 16 15 16 15 14 15 14 14 12 12 12 10 8 9 9 10 9 6 3 4 6 8 10 10 7 9 9 10 10 11 12 12 11 12 11
16 17 16 17 16 15 14 16 14 14 15 15 14 14 14 12 11 12 12 11 9 9 10 8 7 3 3 4 6 8 8 7 9 10 8 7 8 8 10 11 11 11

ECMWFNIL_sfc_gust_111.txt.gz
Wind_Gust
13 13 15 14 12 12 14 15 13 13 11 10 12 10 11 9 10 12 10 11 11 12 12 12 11 12 12 12 13 14 14 15 14 13 15 16 16 16 17 15 13 12
14 15 14 14 13 12 12 12 12 13 12 11 11 11 9 11 9 11 12 12 12 12 11 12 11 11 11 12 13 15 14 14 14 13 16 16 14 15 15 13 12 11
14 15 15 15 16 13 13 11 12 11 12 11 9 10 11 10 12 11 12 12 13 12 12 11 11 11 11 11 13 14 14 13 14 12 15 14 14 14 11 11 12 11
13 15 15 14 14 15 12 13 11 11 10 11 10 9 11 11 12 13 12 12 13 12 11 11 10 10 10 11 13 14 12 12 12 13 15 13 13 12 11 11 11 10
14 14 13 13 12 12 12 13 12 10 10 11 11 12 14 12 13 13 12 11 12 11 11 11 10 10 9 11 12 14 12 13 13 14 15 13 9 11 9 11 9 10
11 13 13 13 12 13 13 12 10 11 11 12 12 13 13 12 12 11 11 12 11 12 11 11 11 10 10 10 12 12 12 13 12 14 14 12 9 9 9 9 9 9
13 13 12 12 12 13 14 11 10 11 13 12 13 13 12 13 12 11 11 12 12 12 11 10 11 12 10 10 11 11 11 11 12 13 13 10 10 8 7 7 8 8
12 11 12 12 13 12 13 12 12 13 12 14 14 10 13 13 12 10 10 11 12 11 11 11 11 11 10 12 12 11 9 11 13 12 11 9 8 7 6 7 7 9
13 12 13 12 13 11 12 13 13 13 14 17 14 12 12 13 11 11 11 12 12 10 10 11 10 10 10 11 11 10 9 8 9 10 10 9 8 6 6 6 8 8
13 12 13 12 12 11 13 12 13 14 15 16 13 13 14 11 11 11 10 11 11 11 10 10 10 10 11 10 9 9 9 9 8 8 8 7 6 6 6 7 7 8
12 12 13 12 12 12 13 13 14 15 15 15 14 14 11 12 12 10 11 11 12 10 10 11 9 9 10 9 8 7 7 7 7 7 7 6 5 5 8 7 7 6
13 12 13 13 13 13 14 14 15 14 14 13 14 15 12 11 12 10 10 11 10 9 10 9 8 9 10 8 7 7 8 7 6 6 5 5 5 5 5 6 7 5
13 12 13 12 13 14 13 14 15 14 15 13 13 14 13 12 10 11 8 10 9 10 10 8 9 8 8 8 8 7 7 7 6 6 5 5 5 5 4 5 6 5
12 11 11 12 13 14 13 14 14 14 14 13 14 14 12 11 10 10 8 9 9 9 7 7 8 9 8 7 6 6 7 7 6 6 6 6 5 4 3 3 5 4
11 10 11 12 14 14 14 14 14 14 14 14 14 13 12 11 10 9 10 10 9 9 9 8 10 9 6 6 7 7 6 7 7 6 6 7 6 4 3 2 2 3
12 11 13 13 14 15 14 14 15 15 15 14 13 12 11 10 9 9 9 9 10 8 8 9 8 6 8 9 7 6 6 8 8 7 6 3 6 5 1 1 3 3
13 13 14 14 14 14 14 16 16 16 16 15 13 12 12 10 10 10 8 7 8 8 9 8 7 6 8 8 9 8 8 9 9 7 6 6 4 6 4 1 1 2
14 14 14 14 15 15 15 15 16 16 15 14 13 13 11 9 10 8 8 7 8 8 8 7 6 7 8 11 11 11 10 10 8 9 8 6 5 3 3 3 3 4
14 15 15 15 15 16 15 16 16 15 15 14 14 12 10 11 8 8 7 6 9 10 8 6 6 7 10 12 13 12 11 10 8 7 8 6 7 6 3 5 2 4
15 15 15 15 15 16 15 15 15 15 13 13 13 11 12 9 7 8 6 7 7 8 7 6 6 7 10 12 13 12 11 8 6 8 7 6 7 6 4 3 2 3
16 16 16 15 15 16 16 15 14 13 14 13 14 13 13 11 10 8 6 7 7 7 9 8 6 5 10 12 12 11 10 7 6 7 7 6 6 5 5 3 2 6
18 17 17 15 15 15 16 15 14 15 15 13 13 11 9 8 6 7 8 8 6 7 9 8 4 6 10 11 11 9 8 7 6 7 6 5 6 5 5 6 3 4
18 19 17 17 16 16 16 16 15 13 12 12 14 12 12 10 9 7 7 8 7 7 10 6 5 6 9 9 9 8 7 7 5 6 6 6 5 4 5 4 5 5
17 19 19 17 16 17 16 14 14 12 13 13 16 14 13 11 9 8 7 7 8 7 8 9 4 4 7 7 7 6 6 6 4 8 6 5 5 4 4 5 7 14
18 18 18 18 16 15 16 16 15 15 12 12 13 12 12 10 9 10 6 5 6 6 9 8 6 3 4 5 6 5 5 4 6 7 7 5 5 7 7 7 9 10
17 17 17 17 16 14 14 15 14 14 13 14 12 12 12 10 9 10 9 8 6 5 6 6 6 3 2 3 3 4 5 4 4 9 6 3 5 4 8 9 7 9

ECMWFNIL_sfc_gust_114.txt.gz
Wind_Gust
14 14 15 14 12 12 14 13 11 12 10 9 11 8 10 8 10 11 10 11 11 13 12 12 12 13 14 14 14 15 15 15 15 14 15 15 15 14 16 13 13 13
15 15 14 14 13 11 10 11 12 12 11 9 9 10 8 10 9 11 12 12 12 12 11 12 12 13 13 14 14 15 14 15 16 12 15 14 12 13 13 12 12 11
15 15 15 15 15 12 12 11 12 11 11 10 9 9 10 10 11 10 11 12 13 12 12 11 12 12 13 13 13 14 15 14 15 12 13 13 11 13 11 11 11 10
14 15 15 14 14 15 13 14 12 12 11 12 9 9 11 10 11 12 12 12 13 12 11 11 12 12 13 14 14 14 13 13 12 11 12 11 11 12 11 10 10 10
16 14 13 14 13 14 13 15 13 12 12 11 10 9 12 11 12 12 12 11 12 11 11 12 11 12 13 14 13 14 12 12 10 10 12 12 9 10 8 9 9 10
12 13 13 15 15 16 15 14 13 13 13 11 10 10 11 11 12 11 11 12 11 12 12 11 12 11 13 12 13 13 12 12 9 10 12 11 9 8 8 8 9 10
15 14 13 14 14 14 15 13 12 12 11 11 10 10 11 12 12 11 11 11 12 12 12 11 12 11 10 12 12 12 11 11 10 10 11 9 10 9 7 8 9 9
14 12 14 14 15 14 15 13 12 12 11 11 12 8 11 12 11 10 10 11 12 11 11 11 11 11 10 12 13 12 10 9 10 10 10 9 8 9 8 7 8 9
15 14 14 15 15 14 14 13 13 11 10 13 12 10 8 10 10 11 11 12 12 11 11 11 11 10 9 11 11 12 11 9 8 9 9 10 9 9 8 7 8 8
14 14 15 15 15 14 15 12 13 11 10 13 11 10 12 9 9 10 11 12 12 10 10 11 10 10 9 10 11 11 11 10 8 8 8 9 9 8 7 7 8 8
14 14 15 15 14 14 14 13 13 12 11 12 12 11 9 11 10 9 11 10 12 10 10 10 10 11 11 9 8 8 9 9 8 8 8 8 8 8 8 7 6 6
15 14 15 16 15 15 15 14 13 12 12 9 12 13 10 9 11 8 10 10 9 9 9 10 9 10 10 10 9 9 8 8 7 8 8 8 7 6 7 6 7 5
16 15 16 16 16 16 14 14 13 12 12 12 9 12 13 11 9 10 7 10 9 9 9 10 10 9 10 9 9 9 9 9 8 8 7 7 6 7 6 5 5 5
15 15 16 16 15 15 15 14 13 12 11 11 11 12 11 11 11 10 8 8 8 9 8 8 10 10 9 9 8 9 9 8 8 9 8 6 6 5 5 5 4 3
15 14 15 16 16 16 15 14 13 12 12 12 11 11 10 9 9 10 11 10 8 8 8 7 10 10 9 10 10 8 8 9 8 9 8 8 6 5 4 3 3 4
16 16 16 17 17 16 15 14 14 13 13 12 11 11 10 9 9 8 9 11 10 8 7 7 8 7 7 8 7 11 9 8 8 8 8 7 7 5 4 4 5 6
17 17 17 17 16 16 15 15 14 14 13 13 12 11 11 10 10 11 9 9 9 9 9 7 6 5 6 8 9 10 10 9 9 8 7 7 7 7 4 3 5 6
17 18 17 17 16 17 16 14 14 14 14 13 13 12 10 9 10 9 10 8 8 8 8 7 6 5 8 11 10 11 10 10 9 9 8 7 7 6 5 5 4 6
18 19 18 18 17 17 16 15 15 14 14 14 13 10 10 11 10 10 9 8 9 10 8 6 6 5 10 12 12 11 11 10 8 8 9 8 7 7 6 5 4 6
19 19 19 18 17 16 16 15 15 15 13 11 12 10 12 11 9 10 9 8 8 9 9 6 7 5 10 12 12 11 10 9 8 9 8 8 7 7 7 7 6 4
20 20 20 19 18 17 16 15 15 13 13 12 13 13 14 14 13 12 9 8 7 9 10 8 6 5 10 12 11 10 10 8 9 8 8 8 7 7 7 8 6 4
21 21 21 20 19 18 18 17 15 16 16 12 11 10 9 10 8 9 10 9 8 9 10 8 4 5 10 11 11 10 9 8 9 9 9 9 8 7 7 6 3 3
22 23 22 21 20 20 18 18 17 14 12 12 13 11 12 11 11 9 9 10 10 8 11 8 5 4 9 10 10 10 8 9 8 9 8 8 7 5 5 4 4 3
22 24 23 22 21 20 19 17 16 15 15 14 17 15 14 12 11 11 8 9 11 10 12 12 7 5 8 9 9 8 8 11 9 10 8 6 5 3 3 4 5 9
22 22 23 23 21 19 19 19 17 18 15 13 12 12 13 11 11 12 8 6 7 9 11 13 10 6 6 8 8 8 9 9 10 10 9 6 5 3 3 7 7 8
20 21 19 21 19 17 16 18 16 15 15 14 11 12 14 12 11 12 11 8 6 6 9 10 11 6 5 6 6 7 8 10 8 10 9 6 4 3 8 8 7 8

ECMWFNIL_sfc_gust_117.txt.gz
Wind_Gust
16 16 16 15 13 13 14 14 13 14 14 15 17 16 16 15 14 15 15 16 16 16 16 16 15 16 17 17 17 18 18 17 18 17 18 19 19 19 21 20 18 18
17 17 16 15 14 12 12 13 15 15 15 15 15 16 15 16 15 16 16 17 16 16 16 16 16 16 17 18 17 18 19 18 19 16 19 19 19 20 20 18 18 17
16 16 16 17 17 15 15 14 15 15 16 16 16 15 16 15 16 15 16 17 17 17 16 16 16 16 17 17 17 18 18 18 19 17 18 19 18 19 18 18 19 18
14 15 17 15 15 17 16 17 15 16 16 17 15 15 16 15 17 17 16 16 17 17 16 16 16 16 17 18 17 18 18 18 18 17 18 18 18 18 18 18 18 18
17 16 15 16 14 16 16 18 17 17 17 17 17 16 17 17 18 18 17 17 17 17 17 17 16 17 17 17 17 19 18 18 16 17 19 19 17 17 16 17 17 17
16 17 16 16 16 18 18 18 18 18 18 17 17 16 16 17 18 18 18 17 17 18 18 17 17 17 17 17 17 17 17 17 17 17 19 19 18 16 15 16 17 18
18 16 16 16 16 16 18 18 17 17 17 17 17 16 17 17 18 18 18 18 19 18 19 18 18 17 16 17 17 17 17 17 17 18 19 19 18 16 15 15 16 17
18 15 16 17 17 17 18 19 18 17 17 18 17 16 17 18 19 17 17 18 18 19 18 19 18 18 17 17 19 18 17 16 17 18 19 18 16 17 16 14 14 17
18 17 17 18 18 17 18 19 17 17 17 18 18 17 15 17 17 17 18 18 18 18 19 18 19 18 16 18 18 19 19 17 17 18 17 17 17 17 16 15 15 15
18 18 19 19 19 19 19 18 18 17 17 18 17 17 17 15 16 18 18 17 18 18 18 18 18 17 18 18 19 18 19 19 17 17 16 16 16 16 15 15 15 14
19 19 20 19 19 19 20 19 18 18 17 18 18 17 17 17 16 16 17 18 18 19 19 19 19 19 18 18 16 16 17 17 17 16 15 16 15 15 11 14 14 14
21 20 21 21 20 20 20 19 19 18 18 16 18 19 17 16 17 16 17 18 18 19 19 19 19 18 19 18 17 16 16 15 15 15 15 15 14 13 14 12 12 13
22 21 21 20 20 20 19 19 19 18 18 18 17 18 18 17 16 16 14 17 17 17 18 18 18 17 18 16 17 16 16 16 15 14 14 13 12 13 12 12 11 12
21 20 20 20 19 20 20 19 18 18 17 17 17 17 18 18 18 17 15 15 16 16 16 16 16 16 16 17 17 16 16 15 15 14 14 13 12 12 11 11 10 11
20 19 18 19 20 20 20 19 18 17 17 17 16 16 15 16 16 17 17 15 15 15 16 14 16 16 15 15 16 16 15 15 15 15 14 13 12 12 10 10 10 11
22 19 20 20 20 21 20 19 18 17 17 17 16 16 16 15 16 15 17 17 17 16 15 14 14 12 10 9 8 15 15 14 14 14 14 13 12 12 10 9 9 10
22 22 21 21 21 21 19 20 19 18 17 17 16 16 16 16 16 17 16 16 17 17 16 15 14 13 10 9 9 10 13 14 15 14 13 13 12 11 10 9 9 10
22 22 22 21 21 21 21 19 19 18 18 17 17 17 16 15 16 17 16 15 15 16 16 15 14 8 12 10 10 10 8 15 14 15 14 13 12 11 9 8 8 9
22 23 22 21 21 21 19 19 19 18 18 18 18 17 16 17 17 16 16 15 16 17 16 15 14 9 11 11 11 10 10 11 15 14 15 13 12 11 9 8 7 9
22 22 22 21 21 21 20 20 19 18 17 16 16 16 17 17 16 16 16 16 16 17 16 14 14 10 11 12 12 11 11 9 13 12 12 13 13 11 10 8 8 8
22 22 22 22 22 21 20 19 18 16 17 16 17 18 19 19 18 17 16 15 15 15 16 14 12 11 11 12 12 11 10 8 12 11 11 12 11 10 10 9 8 8
23 23 22 21 21 20 19 18 17 18 18 16 15 14 14 14 14 15 16 16 15 15 16 15 13 10 10 12 13 12 11 12 13 13 12 13 13 12 10 9 8 8
23 23 22 21 20 19 18 18 18 16 14 15 15 15 16 16 17 16 16 16 16 16 17 15 15 11 10 11 12 13 9 14 13 14 13 13 13 12 11 10 9 8
24 23 23 21 20 20 19 17 16 16 16 15 18 18 17 18 18 17 15 15 16 16 17 17 15 12 11 11 12 12 9 15 16 15 14 13 13 11 10 10 10 6
23 23 24 22 21 19 19 18 18 18 16 14 14 15 16 17 17 18 16 15 15 14 12 16 15 12 9 11 11 10 12 16 17 16 16 15 15 14 10 10 11 8
25 26 26 27 27 23 16 16 15 15 15 15 14 16 17 17 18 18 18 16 14 15 15 14 16 14 14 11 11 11 10 16 17 17 17 16 15 15 14 12 11 11

ECMWFNIL_sfc_gust_120.txt.gz
Wind_Gust
26 21 21 18 16 16 16 16 15 16 15 15 17 17 17 16 16 16 17 17 17 18 17 17 16 16 17 17 17 18 18 17 18 18 19 20 20 19 21 20 18 18
25 20 18 17 16 15 14 15 15 16 16 15 17 17 17 17 17 17 18 19 18 18 18 17 17 17 17 18 17 18 19 18 19 17 19 19 19 19 20 18 18 17
22 19 19 18 18 17 16 15 15 16 16 16 17 17 18 18 18 18 18 18 19 19 18 17 17 17 17 17 17 18 19 18 19 18 18 19 18 19 18 18 19 18
20 20 20 18 19 20 18 18 17 17 17 19 17 18 19 18 19 19 18 18 19 19 18 17 17 17 17 18 17 19 18 18 18 17 18 18 18 19 18 18 18 19
21 20 18 19 19 19 17 18 19 19 19 19 19 19 20 19 20 20 20 19 19 19 19 19 17 17 17 18 17 19 18 18 17 17 18 19 17 17 17 18 18 18
20 20 19 21 21 20 19 19 20 20 20 19 20 20 20 20 20 20 20 20 20 20 20 19 19 18 17 17 17 17 17 18 18 17 19 20 18 17 17 17 18 18
23 21 20 20 20 19 19 19 19 20 20 20 20 19 21 20 20 21 21 21 21 21 21 19 19 18 17 17 17 17 18 18 18 19 20 19 19 18 17 16 17 18
21 21 22 21 21 19 19 20 21 20 20 20 19 20 21 21 22 21 21 22 21 21 21 20 19 19 17 17 19 19 18 17 18 19 19 19 17 18 16 16 15 17
21 23 24 22 21 19 19 21 21 20 21 21 21 21 21 21 21 21 22 22 21 21 21 20 19 19 17 18 19 19 19 18 18 18 18 18 17 17 17 16 16 16
21 22 24 22 20 20 21 21 22 21 21 21 21 21 22 20 21 22 21 21 21 21 21 20 20 18 19 19 20 19 19 20 19 18 17 17 17 17 16 15 15 14
20 22 23 21 20 20 21 21 22 22 21 22 22 21 21 21 22 21 21 22 22 22 21 21 20 20 20 19 18 18 18 18 18 18 17 17 16 16 12 15 15 14
22 21 22 22 21 21 22 22 22 21 22 21 22 22 21 21 22 22 21 22 21 21 21 21 20 20 20 20 19 18 18 17 17 17 17 17 16 15 15 14 13 14
22 22 23 22 21 22 22 22 22 21 22 23 22 22 23 22 22 21 21 21 22 21 21 21 21 20 20 19 19 19 19 19 18 17 16 16 15 15 14 14 13 14
23 22 22 22 22 22 22 22 22 22 22 22 22 22 23 22 23 22 21 21 21 21 21 20 20 19 19 20 19 19 18 18 18 17 16 16 15 15 14 13 13 13
23 22 21 22 23 23 23 22 22 22 22 22 21 22 21 22 22 22 21 21 21 21 21 20 20 19 19 19 19 19 19 18 18 17 17 16 15 15 14 13 14 14
23 21 23 23 24 24 23 23 23 22 22 22 22 22 21 21 21 21 22 21 22 22 21 20 19 18 12 10 9 18 18 18 17 17 16 15 15 15 13 13 13 14
23 23 23 24 23 23 22 23 23 22 22 22 21 21 20 20 21 22 21 21 22 22 21 20 19 16 12 9 7 7 15 17 17 16 15 15 15 14 14 13 12 13
23 24 24 24 23 24 24 23 22 22 23 22 21 20 20 19 20 21 21 21 21 21 21 20 18 13 14 10 10 10 8 16 16 16 15 15 14 14 13 13 12 12
23 23 23 23 24 24 25 23 23 23 23 21 21 19 19 20 21 21 21 21 21 22 21 21 17 16 14 12 11 11 9 11 17 15 15 14 13 13 12 11 11 12
23 22 22 21 21 21 22 22 23 23 20 19 19 19 20 20 20 20 20 21 21 21 21 20 18 17 15 13 12 11 11 11 14 15 14 14 14 13 12 12 10 10
21 20 22 22 22 21 21 21 22 20 20 19 19 19 20 21 21 21 20 20 21 21 20 20 17 18 14 14 12 11 11 11 14 15 14 14 14 13 12 11 10 9
24 22 19 20 21 20 20 20 20 19 19 17 16 17 16 17 17 18 20 21 21 21 20 20 18 19 14 14 12 12 11 17 16 15 14 15 15 14 14 13 12 11
27 27 27 27 22 23 22 21 18 17 15 16 16 16 16 17 18 18 19 20 21 21 21 20 19 16 14 14 13 14 12 20 16 17 16 15 15 15 15 12 12 12
26 26 27 26 23 23 21 19 19 17 17 15 17 18 18 18 18 18 18 19 20 21 22 20 20 17 14 13 13 15 15 19 17 17 16 16 16 15 14 14 12 8
26 25 25 25 25 25 24 21 19 20 18 16 14 15 16 17 18 19 19 18 20 20 12 18 19 17 13 14 13 15 17 18 17 17 17 17 17 17 14 14 16 12
24 25 23 25 23 22 21 20 20 17 16 14 13 15 17 17 18 18 19 19 19 19 19 20 19 20 18 13 13 13 14 18 18 17 18 18 17 18 17 14 15 16

ECMWFNIL_sfc_gust_123.txt.gz
Wind_Gust
26 26 26 24 22 22 22 21 20 20 17 17 19 17 17 16 16 15 15 15 15 16 16 15 15 15 16 16 16 18 18 17 17 17 17 17 18 17 19 18 16 17
26 25 25 24 21 21 20 18 19 20 18 18 18 18 17 17 16 16 16 17 16 16 16 16 16 16 16 17 16 17 18 17 17 16 18 17 18 18 18 16 16 16
25 26 26 24 23 20 20 19 19 18 18 16 17 18 18 17 17 17 17 16 17 17 16 16 16 16 17 17 16 16 17 16 17 16 17 17 16 17 17 17 17 15
25 25 25 24 23 24 22 22 18 17 18 19 18 18 19 18 18 18 17 17 17 17 16 16 16 17 17 17 16 17 16 16 17 16 16 16 16 17 17 16 16 16
25 25 24 23 23 22 19 19 19 19 19 19 19 19 20 19 19 19 19 18 17 17 17 17 16 17 17 16 15 17 16 17 16 15 16 17 16 16 16 16 16 16
24 25 24 24 23 22 20 19 19 20 20 19 20 20 20 20 20 19 19 19 18 18 17 17 18 17 16 16 16 15 16 17 17 16 17 17 17 16 16 16 16 17
26 24 23 23 21 21 19 19 19 19 20 20 21 20 21 20 20 20 20 19 19 19 19 18 18 17 17 16 16 16 17 17 17 17 18 18 18 17 16 15 16 17
25 24 26 22 21 20 18 20 21 20 20 20 19 21 21 21 21 20 20 20 20 20 19 19 18 18 17 16 18 18 17 16 17 18 17 17 16 17 16 15 15 16
27 26 25 23 23 21 20 21 21 20 21 21 21 21 21 21 21 21 21 21 20 19 19 19 19 18 16 17 18 18 18 17 17 17 17 17 17 17 17 15 15 15
28 26 25 24 23 22 21 21 22 21 22 21 21 21 22 20 21 21 21 20 20 20 20 19 19 18 18 18 19 18 19 19 18 17 17 16 17 17 16 15 15 14
25 25 24 24 22 21 22 22 22 22 22 22 22 22 21 22 22 21 21 21 21 21 21 20 20 20 20 19 18 17 18 18 18 17 16 17 16 16 12 15 14 14
27 24 25 25 24 22 22 22 22 22 22 21 22 23 22 22 22 22 22 22 21 21 21 20 20 20 20 19 19 18 18 17 17 17 17 17 16 16 15 14 13 14
28 24 29 25 23 23 22 22 22 21 22 22 22 22 22 22 22 21 21 21 22 21 21 21 21 20 20 19 19 19 18 19 18 17 17 16 16 16 15 14 14 14
24 25 26 24 22 23 22 22 22 22 22 21 22 22 23 22 23 22 21 21 21 21 21 20 20 20 20 20 19 19 18 18 18 17 17 16 15 15 15 14 14 14
25 25 21 21 22 23 23 22 22 22 21 21 21 22 21 22 21 22 21 21 21 21 21 20 20 19 19 20 19 19 18 18 18 17 17 17 16 16 15 15 14 14
26 23 22 22 22 23 23 23 23 22 21 21 21 22 21 21 21 21 21 21 22 22 20 19 19 18 13 11 10 19 18 18 17 17 17 17 16 16 15 15 15 15
23 23 23 23 23 23 22 24 23 22 21 21 21 20 20 20 21 21 21 21 22 22 21 19 19 16 15 8 6 5 15 17 17 17 16 16 16 15 16 15 16 17
23 24 24 23 23 24 24 23 23 22 22 22 21 21 21 20 20 21 21 21 21 21 21 19 18 15 14 10 6 4 7 15 17 17 16 16 16 16 16 15 15 15
24 24 25 24 23 23 23 23 23 23 22 21 21 19 19 20 21 21 21 21 21 21 21 21 16 16 14 12 8 8 7 11 18 15 17 16 15 15 15 15 15 14
27 25 25 21 21 23 24 24 23 21 20 19 19 18 19 19 19 20 20 20 21 20 21 20 17 17 16 13 11 9 9 12 13 16 15 15 15 14 13 13 13 14
28 23 23 23 25 26 25 25 23 21 21 21 21 19 19 20 19 20 19 19 20 19 20 20 18 19 17 14 12 11 12 11 14 16 15 14 15 13 13 13 11 12
30 28 26 25 27 26 26 26 24 24 23 20 19 19 17 16 16 17 18 18 19 20 19 20 19 21 17 15 12 12 11 17 17 16 15 15 16 15 14 13 13 13
29 31 30 29 26 24 23 24 24 23 21 20 19 17 17 15 15 16 18 19 19 20 19 19 19 18 19 16 14 13 11 20 16 17 16 16 15 15 15 13 13 14
29 30 29 28 25 26 24 23 24 23 21 19 20 20 19 16 16 19 17 19 18 19 20 20 20 17 17 17 14 14 14 21 17 17 16 16 16 15 15 15 12 12
28 28 28 27 25 23 25 25 24 21 20 20 19 20 21 20 17 15 15 16 17 18 11 16 18 18 17 18 16 16 18 21 19 17 17 17 17 17 15 15 16 12
26 26 26 25 23 22 22 23 21 21 21 21 21 21 21 19 14 13 15 16 17 19 19 19 18 20 19 16 17 16 16 21 19 16 17 17 17 18 17 15 16 16

ECMWFNIL_sfc_gust_129.txt.gz
Wind_Gust
18 17 17 17 17 17 17 17 15 13 12 13 13 11 13 10 11 11 10 10 10 9 9 9 10 10 11 10 10 12 11 11 12 11 12 13 11 11 13 12 10 10
19 18 16 15 15 16 15 16 15 15 15 13 12 14 12 11 9 11 12 11 10 10 9 10 11 11 11 11 10 11 11 12 13 10 13 12 10 12 12 11 9 9
18 17 17 17 18 17 16 15 14 14 15 12 14 13 13 10 10 10 11 11 11 10 10 10 12 12 11 10 10 11 12 11 12 10 11 10 10 11 9 9 9 9
18 18 17 16 16 18 16 16 14 14 12 15 15 15 13 11 13 12 11 11 11 10 9 10 12 11 11 11 11 10 10 11 11 11 11 10 8 9 9 10 11 11
19 18 16 16 17 17 16 15 16 15 15 16 15 14 15 14 13 12 12 11 11 10 10 12 11 12 11 11 9 11 11 12 10 10 11 10 7 10 8 11 10 9
18 17 16 17 18 18 17 16 16 16 16 17 16 14 14 14 13 12 13 12 10 11 11 11 11 10 12 11 11 10 11 11 10 11 11 10 8 7 8 9 9 8
20 18 17 17 18 17 17 17 15 16 16 15 15 14 15 14 13 14 13 12 12 11 12 12 11 12 11 12 12 11 10 10 11 11 10 7 8 7 6 8 9 8
20 17 18 17 18 17 17 17 16 18 17 16 16 15 14 15 15 14 12 13 12 12 12 11 11 12 11 12 13 11 9 10 11 11 9 7 7 7 7 8 8 8
20 18 18 18 19 17 16 17 17 18 17 17 16 15 13 15 16 15 14 14 13 12 12 12 12 12 11 12 11 11 12 10 10 10 10 9 9 8 7 7 9 8
21 19 20 19 19 17 17 16 19 18 17 18 16 16 16 14 14 16 15 14 14 13 13 12 12 12 11 10 11 12 11 10 11 11 9 8 9 8 8 9 9 8
20 20 21 20 18 17 18 18 18 17 16 18 17 16 15 15 15 14 14 15 16 15 14 13 13 12 11 11 11 9 9 10 11 10 9 9 9 9 9 8 8 8
20 20 21 20 19 18 18 18 18 17 15 15 17 17 14 15 15 14 14 14 14 14 14 13 13 11 11 12 11 9 9 10 10 10 8 9 9 8 8 8 7 8
21 20 21 20 18 18 17 18 18 17 17 18 17 16 16 15 14 14 13 14 15 14 15 14 14 13 12 11 11 10 11 11 11 9 8 9 8 8 7 7 8 8
21 20 21 20 18 18 18 17 17 17 17 17 16 15 16 16 16 15 14 14 14 14 14 14 13 13 13 12 12 12 12 11 11 10 10 9 8 7 7 8 9 10
21 20 19 19 19 19 19 18 18 17 17 17 15 15 15 15 13 13 13 13 12 13 13 12 13 13 13 13 13 12 12 12 11 12 12 10 8 8 9 10 10 10
21 20 20 20 20 20 18 18 18 16 17 16 15 16 16 15 13 13 14 14 14 14 13 13 13 11 13 15 11 13 12 13 12 12 11 10 10 10 10 10 11 10
22 21 21 21 20 20 18 19 18 16 16 16 15 16 16 14 13 14 13 12 13 15 15 14 13 13 17 16 16 16 13 12 12 11 10 10 11 11 11 12 11 10
21 21 21 20 20 21 20 18 17 16 16 15 14 15 13 13 13 14 13 11 13 14 14 14 11 12 19 17 17 17 12 13 11 11 11 10 10 11 12 13 12 10
21 21 21 21 21 22 19 19 19 17 16 15 14 14 12 13 12 13 12 11 13 14 14 12 11 15 18 17 16 16 17 13 12 11 11 10 10 11 12 13 13 11
22 21 21 21 20 21 21 21 19 18 15 13 14 14 14 12 11 13 12 10 12 14 13 12 15 14 18 17 15 15 16 12 10 11 10 10 11 12 13 13 13 13
22 22 22 20 21 21 20 19 19 16 16 15 16 17 16 15 14 13 12 11 11 13 14 14 15 16 19 17 16 14 13 9 7 9 10 9 10 10 13 14 13 13
22 22 21 21 22 21 20 19 17 17 17 14 14 13 12 12 9 11 12 11 12 15 15 15 14 15 18 17 16 14 12 8 8 5 7 9 9 10 10 13 14 12
24 22 22 23 22 21 20 19 18 17 14 14 16 14 15 14 12 12 12 14 15 16 18 18 18 17 21 21 20 18 13 12 10 11 7 5 9 7 8 9 8 9
23 23 25 23 21 22 20 18 17 15 15 16 18 16 15 14 12 12 12 15 17 18 22 23 19 21 25 21 20 17 15 15 11 12 12 12 14 12 11 7 8 9
21 24 24 24 23 22 20 19 19 18 16 15 14 14 13 11 12 15 14 14 14 17 24 24 20 18 19 19 17 17 16 14 13 11 12 10 12 13 12 10 12 13
20 21 22 22 22 21 20 19 17 15 15 15 13 14 14 12 12 14 14 12 12 16 17 18 18 16 19 20 20 19 18 17 14 12 12 11 11 16 18 14 12 10

ECMWFNIL_sfc_gust_132.txt.gz
Wind_Gust
18 17 18 18 17 16 17 16 14 15 13 13 13 11 13 10 10 11 11 11 13 13 11 11 10 11 12 11 10 11 10 10 10 9 11 13 11 12 13 12 10 11
19 18 16 15 15 14 14 15 15 15 15 14 12 12 10 11 9 11 12 12 12 14 12 11 11 12 12 12 11 12 11 11 11 8 13 12 10 12 12 11 10 8
18 18 18 17 18 17 16 15 14 14 16 13 13 13 13 10 11 10 12 12 12 11 12 12 13 13 13 12 11 12 12 11 11 9 12 12 10 12 10 10 10 9
19 19 18 17 17 18 17 18 16 15 14 15 15 15 13 11 13 12 12 12 12 11 12 12 13 12 12 12 12 12 11 11 10 11 12 10 9 11 11 10 10 10
20 18 17 17 16 17 17 18 18 17 16 16 15 14 15 14 14 13 13 12 11 12 12 13 11 12 12 12 12 13 11 12 9 11 12 11 9 11 9 11 10 9
17 18 17 18 18 19 18 18 18 17 17 16 17 14 15 14 14 14 13 13 11 13 12 12 12 11 12 12 12 12 13 12 11 11 12 12 10 9 10 10 9 9
20 18 17 18 18 18 18 17 16 16 17 17 15 15 16 16 15 15 15 14 12 13 14 13 13 12 11 12 12 12 10 11 11 11 12 10 11 9 7 8 9 9
20 17 19 18 19 19 18 18 17 17 17 17 17 16 17 17 16 15 14 14 13 13 13 12 12 12 11 12 14 12 11 11 12 12 11 10 9 10 8 8 8 9
20 19 18 19 19 18 19 18 17 17 18 19 18 17 15 17 17 16 15 14 13 12 12 11 12 12 11 12 12 12 12 10 10 11 12 12 11 10 9 8 9 9
20 19 20 20 20 19 19 18 19 18 17 18 17 16 17 14 15 16 14 14 13 13 12 12 12 11 10 10 12 12 12 12 11 10 10 9 11 10 10 10 9 9
20 20 21 21 20 19 19 19 19 19 18 18 17 17 15 15 14 14 14 13 15 14 13 13 13 12 12 11 10 10 11 11 11 10 10 10 10 10 10 10 9 9
22 21 22 22 20 19 20 21 21 19 18 17 18 17 15 15 16 15 16 15 14 14 13 13 12 12 13 12 11 10 10 11 11 10 10 10 9 9 10 9 10 8
23 22 23 21 20 20 20 20 20 20 19 18 16 17 17 16 15 15 14 15 14 13 13 13 13 12 12 12 11 10 12 12 12 11 10 10 8 9 8 8 8 8
22 21 21 21 19 19 20 20 20 20 19 18 16 16 16 17 18 17 14 14 14 14 13 13 12 11 12 12 11 12 13 12 12 11 10 9 8 8 8 9 10 10
21 20 19 19 19 20 20 20 20 19 18 18 17 16 16 16 15 15 15 14 13 14 13 13 14 13 13 13 13 12 12 12 11 12 12 11 9 9 10 11 9 9
22 20 21 20 20 21 21 20 20 19 19 18 17 17 16 15 14 14 15 16 15 14 14 14 13 11 13 15 12 13 12 13 12 12 11 11 11 11 10 10 9 8
22 22 22 21 21 20 19 20 19 19 18 17 16 16 16 15 15 15 15 14 16 16 15 14 13 13 16 16 15 15 13 12 13 12 10 11 12 13 11 10 7 7
22 21 21 21 20 21 20 19 18 18 18 16 15 15 14 14 15 16 15 14 14 14 14 13 11 11 17 16 17 17 13 14 12 12 11 11 12 13 12 11 10 9
22 23 22 22 21 20 19 20 19 18 18 16 16 15 13 15 16 15 14 13 14 15 14 13 10 14 18 18 17 17 17 14 12 12 12 11 12 13 12 11 10 10
24 24 23 21 20 19 19 20 20 20 18 17 16 14 16 15 14 15 13 13 15 15 14 12 12 14 19 19 18 18 17 15 11 12 11 13 14 13 13 13 12 13
24 24 23 21 20 20 20 20 20 19 19 17 18 19 19 19 17 15 13 13 13 14 14 14 14 17 19 20 19 19 18 13 12 12 12 13 15 16 17 14 14 16
25 23 22 20 20 20 21 20 19 20 20 17 16 15 14 13 11 13 13 13 13 15 16 15 14 18 20 21 21 19 18 13 14 15 16 15 14 15 17 19 20 19
25 25 22 21 20 20 20 20 19 17 16 16 17 16 16 16 16 15 15 15 15 16 18 17 17 17 21 22 22 22 13 13 13 12 13 14 18 16 19 17 17 17
25 25 24 22 21 21 19 17 16 17 19 17 20 19 18 17 16 14 13 16 19 18 19 18 16 16 19 20 19 18 14 14 12 14 12 13 14 13 15 16 16 24
22 24 25 23 21 21 22 21 20 19 17 17 17 17 17 15 14 15 13 11 14 16 12 19 16 14 17 19 20 18 16 12 14 13 15 11 12 12 13 14 15 19
25 25 25 27 28 27 23 21 18 16 16 17 15 16 16 14 14 15 15 11 11 15 16 16 17 15 16 19 20 18 16 15 13 15 15 12 10 14 14 11 13 11